Wetterdaten: Montag, 05.11.2018
Datum Zeit Temp. A. Feuchte A. Luftdruck Regen Wind Richtung Richtung Sonnenschein ET UV Solar Taupunkt Windchill Windböen
05.11.2018 00:00 7,9 °C 89 % 1011,6 hPa 0,0 mm 0,2 km/h (0 Bft) O-NO 74 ° 0 min 0,000 mm 0,0 UV-I 0 W/m² 6,2 °C 7,9 °C 1,6 km/h (1 Bft)
05.11.2018 00:01 8,1 °C 89 % 1011,7 hPa 0,0 mm 0,0 km/h (0 Bft) O-NO 74 ° 0 min 0,000 mm 0,0 UV-I 0 W/m² 6,4 °C 8,1 °C 0,0 km/h (0 Bft)
05.11.2018 00:02 8,2 °C 88 % 1011,7 hPa 0,0 mm 0,0 km/h (0 Bft) O-NO 74 ° 0 min 0,000 mm 0,0 UV-I 0 W/m² 6,3 °C 8,2 °C 0,0 km/h (0 Bft)
05.11.2018 00:03 8,3 °C 88 % 1011,7 hPa 0,0 mm 0,0 km/h (0 Bft) S-SW 210 ° 0 min 0,000 mm 0,0 UV-I 0 W/m² 6,4 °C 8,3 °C 0,0 km/h (0 Bft)
05.11.2018 00:04 8,4 °C 87 % 1011,7 hPa 0,0 mm 0,0 km/h (0 Bft) S-SW 210 ° 0 min 0,000 mm 0,0 UV-I 0 W/m² 6,4 °C 8,4 °C 0,0 km/h (0 Bft)
05.11.2018 00:05 8,6 °C 87 % 1011,7 hPa 0,0 mm 0,6 km/h (0 Bft) S-SW 210 ° 0 min 0,000 mm 0,0 UV-I 0 W/m² 6,6 °C 8,6 °C 3,2 km/h (1 Bft)
05.11.2018 00:06 8,7 °C 86 % 1011,7 hPa 0,0 mm 0,5 km/h (0 Bft) S-SW 210 ° 0 min 0,000 mm 0,0 UV-I 0 W/m² 6,5 °C 8,7 °C 3,2 km/h (1 Bft)
05.11.2018 00:07 8,9 °C 86 % 1011,7 hPa 0,0 mm 0,6 km/h (0 Bft) S-SW 210 ° 0 min 0,000 mm 0,0 UV-I 0 W/m² 6,7 °C 8,9 °C 3,2 km/h (1 Bft)
05.11.2018 00:08 9,1 °C 85 % 1011,7 hPa 0,0 mm 0,8 km/h (0 Bft) S-SW 210 ° 0 min 0,000 mm 0,0 UV-I 0 W/m² 6,7 °C 9,1 °C 3,2 km/h (1 Bft)
05.11.2018 00:09 9,4 °C 84 % 1011,6 hPa 0,0 mm 0,7 km/h (0 Bft) S-SW 210 ° 0 min 0,000 mm 0,0 UV-I 0 W/m² 6,8 °C 9,4 °C 1,6 km/h (1 Bft)
05.11.2018 00:10 9,7 °C 83 % 1011,6 hPa 0,0 mm 0,2 km/h (0 Bft) S-SW 210 ° 0 min 0,000 mm 0,0 UV-I 0 W/m² 7,0 °C 9,7 °C 1,6 km/h (1 Bft)
05.11.2018 00:11 9,8 °C 82 % 1011,6 hPa 0,0 mm 0,3 km/h (0 Bft) SW 217 ° 0 min 0,000 mm 0,0 UV-I 0 W/m² 6,9 °C 9,8 °C 1,6 km/h (1 Bft)
05.11.2018 00:12 9,9 °C 81 % 1011,6 hPa 0,0 mm 0,5 km/h (0 Bft) SW 217 ° 0 min 0,000 mm 0,0 UV-I 0 W/m² 6,8 °C 9,9 °C 1,6 km/h (1 Bft)
05.11.2018 00:13 10,0 °C 81 % 1011,6 hPa 0,0 mm 0,0 km/h (0 Bft) SW 217 ° 0 min 0,000 mm 0,0 UV-I 0 W/m² 6,9 °C 10,0 °C 0,0 km/h (0 Bft)
05.11.2018 00:14 10,1 °C 80 % 1011,6 hPa 0,0 mm 0,0 km/h (0 Bft) SW 217 ° 0 min 0,000 mm 0,0 UV-I 0 W/m² 6,8 °C 10,1 °C 0,0 km/h (0 Bft)
05.11.2018 00:15 10,1 °C 81 % 1011,6 hPa 0,0 mm 0,1 km/h (0 Bft) S-SO 152 ° 0 min 0,000 mm 0,0 UV-I 0 W/m² 7,0 °C 10,1 °C 1,6 km/h (1 Bft)
05.11.2018 00:16 10,0 °C 81 % 1011,5 hPa 0,0 mm 2,0 km/h (1 Bft) S-SO 152 ° 0 min 0,000 mm 0,0 UV-I 0 W/m² 6,9 °C 10,0 °C 4,8 km/h (1 Bft)
05.11.2018 00:17 10,0 °C 80 % 1011,5 hPa 0,0 mm 0,3 km/h (0 Bft) S-SO 152 ° 0 min 0,000 mm 0,0 UV-I 0 W/m² 6,7 °C 10,0 °C 1,6 km/h (1 Bft)
05.11.2018 00:18 10,1 °C 80 % 1011,4 hPa 0,0 mm 1,6 km/h (1 Bft) S-SO 152 ° 0 min 0,000 mm 0,0 UV-I 0 W/m² 6,8 °C 10,1 °C 3,2 km/h (1 Bft)
05.11.2018 00:19 10,2 °C 79 % 1011,4 hPa 0,0 mm 2,5 km/h (1 Bft) S-SO 152 ° 0 min 0,000 mm 0,0 UV-I 0 W/m² 6,7 °C 10,2 °C 3,2 km/h (1 Bft)
05.11.2018 00:20 10,3 °C 79 % 1011,4 hPa 0,0 mm 2,0 km/h (1 Bft) S-SO 152 ° 0 min 0,000 mm 0,0 UV-I 0 W/m² 6,8 °C 10,3 °C 3,2 km/h (1 Bft)
05.11.2018 00:21 10,4 °C 78 % 1011,4 hPa 0,0 mm 1,0 km/h (0 Bft) S-SO 152 ° 0 min 0,000 mm 0,0 UV-I 0 W/m² 6,7 °C 10,4 °C 3,2 km/h (1 Bft)
05.11.2018 00:22 10,6 °C 78 % 1011,4 hPa 0,0 mm 1,1 km/h (1 Bft) S-SO 152 ° 0 min 0,000 mm 0,0 UV-I 0 W/m² 6,9 °C 10,6 °C 3,2 km/h (1 Bft)
05.11.2018 00:23 10,7 °C 77 % 1011,5 hPa 0,0 mm 1,5 km/h (1 Bft) S-SO 152 ° 0 min 0,000 mm 0,0 UV-I 0 W/m² 6,8 °C 10,7 °C 3,2 km/h (1 Bft)
05.11.2018 00:24 10,8 °C 77 % 1011,5 hPa 0,0 mm 1,6 km/h (1 Bft) S-SO 152 ° 0 min 0,000 mm 0,0 UV-I 0 W/m² 6,9 °C 10,8 °C 3,2 km/h (1 Bft)
05.11.2018 00:25 10,8 °C 77 % 1011,4 hPa 0,0 mm 0,0 km/h (0 Bft) S-SO 152 ° 0 min 0,000 mm 0,0 UV-I 0 W/m² 6,9 °C 10,8 °C 0,0 km/h (0 Bft)
05.11.2018 00:26 10,7 °C 77 % 1011,4 hPa 0,0 mm 0,0 km/h (0 Bft) S-SO 152 ° 0 min 0,000 mm 0,0 UV-I 0 W/m² 6,8 °C 10,7 °C 0,0 km/h (0 Bft)
05.11.2018 00:27 10,5 °C 77 % 1011,4 hPa 0,0 mm 0,0 km/h (0 Bft) S-SO 152 ° 0 min 0,000 mm 0,0 UV-I 0 W/m² 6,6 °C 10,5 °C 0,0 km/h (0 Bft)
05.11.2018 00:28 10,3 °C 78 % 1011,3 hPa 0,0 mm 0,0 km/h (0 Bft) S-SO 152 ° 0 min 0,000 mm 0,0 UV-I 0 W/m² 6,6 °C 10,3 °C 0,0 km/h (0 Bft)
05.11.2018 00:29 10,2 °C 78 % 1011,3 hPa 0,0 mm 0,0 km/h (0 Bft) S-SO 152 ° 0 min 0,000 mm 0,0 UV-I 0 W/m² 6,5 °C 10,2 °C 0,0 km/h (0 Bft)
05.11.2018 00:30 10,2 °C 78 % 1011,3 hPa 0,0 mm 0,0 km/h (0 Bft) S-SO 152 ° 0 min 0,000 mm 0,0 UV-I 0 W/m² 6,5 °C 10,2 °C 0,0 km/h (0 Bft)
05.11.2018 00:31 10,2 °C 78 % 1011,3 hPa 0,0 mm 0,0 km/h (0 Bft) S-SO 152 ° 0 min 0,000 mm 0,0 UV-I 0 W/m² 6,5 °C 10,2 °C 0,0 km/h (0 Bft)
05.11.2018 00:32 10,1 °C 78 % 1011,4 hPa 0,0 mm 0,0 km/h (0 Bft) S-SO 152 ° 0 min 0,000 mm 0,0 UV-I 0 W/m² 6,4 °C 10,1 °C 0,0 km/h (0 Bft)
05.11.2018 00:33 9,9 °C 78 % 1011,4 hPa 0,0 mm 0,0 km/h (0 Bft) S-SO 152 ° 0 min 0,000 mm 0,0 UV-I 0 W/m² 6,2 °C 9,9 °C 0,0 km/h (0 Bft)
05.11.2018 00:34 9,6 °C 78 % 1011,4 hPa 0,0 mm 0,0 km/h (0 Bft) S-SO 152 ° 0 min 0,000 mm 0,0 UV-I 0 W/m² 6,0 °C 9,6 °C 0,0 km/h (0 Bft)
05.11.2018 00:35 9,2 °C 80 % 1011,4 hPa 0,0 mm 0,0 km/h (0 Bft) S-SO 152 ° 0 min 0,000 mm 0,0 UV-I 0 W/m² 5,9 °C 9,2 °C 0,0 km/h (0 Bft)
05.11.2018 00:36 8,9 °C 81 % 1011,4 hPa 0,0 mm 0,0 km/h (0 Bft) S-SO 152 ° 0 min 0,000 mm 0,0 UV-I 0 W/m² 5,8 °C 8,9 °C 0,0 km/h (0 Bft)
05.11.2018 00:37 8,8 °C 81 % 1011,4 hPa 0,0 mm 0,0 km/h (0 Bft) S-SO 152 ° 0 min 0,000 mm 0,0 UV-I 0 W/m² 5,7 °C 8,8 °C 0,0 km/h (0 Bft)
05.11.2018 00:38 8,7 °C 82 % 1011,4 hPa 0,0 mm 0,0 km/h (0 Bft) S-SO 152 ° 0 min 0,000 mm 0,0 UV-I 0 W/m² 5,8 °C 8,7 °C 0,0 km/h (0 Bft)
05.11.2018 00:39 8,7 °C 83 % 1011,4 hPa 0,0 mm 0,0 km/h (0 Bft) S-SO 152 ° 0 min 0,000 mm 0,0 UV-I 0 W/m² 6,0 °C 8,7 °C 0,0 km/h (0 Bft)
05.11.2018 00:40 8,7 °C 84 % 1011,3 hPa 0,0 mm 0,0 km/h (0 Bft) S-SO 152 ° 0 min 0,000 mm 0,0 UV-I 0 W/m² 6,2 °C 8,7 °C 0,0 km/h (0 Bft)
05.11.2018 00:41 8,8 °C 84 % 1011,3 hPa 0,0 mm 0,0 km/h (0 Bft) S-SO 152 ° 0 min 0,000 mm 0,0 UV-I 0 W/m² 6,2 °C 8,8 °C 0,0 km/h (0 Bft)
05.11.2018 00:42 8,8 °C 84 % 1011,3 hPa 0,0 mm 0,0 km/h (0 Bft) S-SO 152 ° 0 min 0,000 mm 0,0 UV-I 0 W/m² 6,2 °C 8,8 °C 0,0 km/h (0 Bft)
05.11.2018 00:43 8,9 °C 84 % 1011,3 hPa 0,0 mm 0,0 km/h (0 Bft) S-SO 152 ° 0 min 0,000 mm 0,0 UV-I 0 W/m² 6,3 °C 8,9 °C 0,0 km/h (0 Bft)
05.11.2018 00:44 8,9 °C 84 % 1011,2 hPa 0,0 mm 0,0 km/h (0 Bft) S-SO 152 ° 0 min 0,000 mm 0,0 UV-I 0 W/m² 6,3 °C 8,9 °C 0,0 km/h (0 Bft)
05.11.2018 00:45 8,9 °C 84 % 1011,2 hPa 0,0 mm 0,0 km/h (0 Bft) S-SO 152 ° 0 min 0,000 mm 0,0 UV-I 0 W/m² 6,3 °C 8,9 °C 0,0 km/h (0 Bft)
05.11.2018 00:46 9,0 °C 84 % 1011,2 hPa 0,0 mm 0,0 km/h (0 Bft) S-SO 152 ° 0 min 0,000 mm 0,0 UV-I 0 W/m² 6,4 °C 9,0 °C 0,0 km/h (0 Bft)
05.11.2018 00:47 9,1 °C 83 % 1011,2 hPa 0,0 mm 0,0 km/h (0 Bft) S-SO 152 ° 0 min 0,000 mm 0,0 UV-I 0 W/m² 6,4 °C 9,1 °C 0,0 km/h (0 Bft)
05.11.2018 00:48 9,1 °C 82 % 1011,2 hPa 0,0 mm 0,0 km/h (0 Bft) S-SO 152 ° 0 min 0,000 mm 0,0 UV-I 0 W/m² 6,2 °C 9,1 °C 0,0 km/h (0 Bft)
05.11.2018 00:49 9,1 °C 82 % 1011,2 hPa 0,0 mm 0,0 km/h (0 Bft) S-SO 152 ° 0 min 0,000 mm 0,0 UV-I 0 W/m² 6,2 °C 9,1 °C 0,0 km/h (0 Bft)
05.11.2018 00:50 8,8 °C 81 % 1011,2 hPa 0,0 mm 0,0 km/h (0 Bft) S-SO 152 ° 0 min 0,000 mm 0,0 UV-I 0 W/m² 5,7 °C 8,8 °C 0,0 km/h (0 Bft)
05.11.2018 00:51 8,4 °C 81 % 1011,2 hPa 0,0 mm 0,0 km/h (0 Bft) S-SO 152 ° 0 min 0,000 mm 0,0 UV-I 0 W/m² 5,3 °C 8,4 °C 0,0 km/h (0 Bft)
05.11.2018 00:52 8,2 °C 82 % 1011,2 hPa 0,0 mm 0,1 km/h (0 Bft) S-SO 152 ° 0 min 0,000 mm 0,0 UV-I 0 W/m² 5,3 °C 8,2 °C 1,6 km/h (1 Bft)
05.11.2018 00:53 7,8 °C 83 % 1011,2 hPa 0,0 mm 0,0 km/h (0 Bft) S-SO 152 ° 0 min 0,000 mm 0,0 UV-I 0 W/m² 5,1 °C 7,8 °C 0,0 km/h (0 Bft)
05.11.2018 00:54 7,6 °C 84 % 1011,2 hPa 0,0 mm 0,0 km/h (0 Bft) S-SO 152 ° 0 min 0,000 mm 0,0 UV-I 0 W/m² 5,1 °C 7,6 °C 0,0 km/h (0 Bft)
05.11.2018 00:55 7,3 °C 85 % 1011,1 hPa 0,0 mm 0,0 km/h (0 Bft) S-SO 152 ° 0 min 0,000 mm 0,0 UV-I 0 W/m² 4,9 °C 7,3 °C 0,0 km/h (0 Bft)
05.11.2018 00:56 7,2 °C 86 % 1011,2 hPa 0,0 mm 0,0 km/h (0 Bft) S-SO 152 ° 0 min 0,000 mm 0,0 UV-I 0 W/m² 5,0 °C 7,2 °C 0,0 km/h (0 Bft)
05.11.2018 00:57 7,1 °C 86 % 1011,1 hPa 0,0 mm 0,0 km/h (0 Bft) S-SO 152 ° 0 min 0,000 mm 0,0 UV-I 0 W/m² 4,9 °C 7,1 °C 0,0 km/h (0 Bft)
05.11.2018 00:58 6,9 °C 87 % 1011,2 hPa 0,0 mm 0,0 km/h (0 Bft) S-SO 152 ° 0 min 0,000 mm 0,0 UV-I 0 W/m² 4,9 °C 6,9 °C 0,0 km/h (0 Bft)
05.11.2018 00:59 6,9 °C 88 % 1011,1 hPa 0,0 mm 0,0 km/h (0 Bft) S-SO 152 ° 0 min 0,000 mm 0,0 UV-I 0 W/m² 5,1 °C 6,9 °C 0,0 km/h (0 Bft)
05.11.2018 01:00 6,8 °C 89 % 1011,2 hPa 0,0 mm 0,0 km/h (0 Bft) S-SO 152 ° 0 min 0,000 mm 0,0 UV-I 0 W/m² 5,1 °C 6,8 °C 0,0 km/h (0 Bft)
05.11.2018 01:01 6,9 °C 89 % 1011,2 hPa 0,0 mm 0,0 km/h (0 Bft) S-SO 152 ° 0 min 0,000 mm 0,0 UV-I 0 W/m² 5,2 °C 6,9 °C 0,0 km/h (0 Bft)
05.11.2018 01:02 6,9 °C 89 % 1011,2 hPa 0,0 mm 0,0 km/h (0 Bft) S-SO 152 ° 0 min 0,000 mm 0,0 UV-I 0 W/m² 5,2 °C 6,9 °C 0,0 km/h (0 Bft)
05.11.2018 01:03 7,1 °C 89 % 1011,2 hPa 0,0 mm 0,0 km/h (0 Bft) S-SO 152 ° 0 min 0,000 mm 0,0 UV-I 0 W/m² 5,4 °C 7,1 °C 0,0 km/h (0 Bft)
05.11.2018 01:04 7,2 °C 90 % 1011,1 hPa 0,0 mm 0,0 km/h (0 Bft) S-SO 152 ° 0 min 0,000 mm 0,0 UV-I 0 W/m² 5,7 °C 7,2 °C 0,0 km/h (0 Bft)
05.11.2018 01:05 7,4 °C 89 % 1011,1 hPa 0,0 mm 0,0 km/h (0 Bft) S-SO 152 ° 0 min 0,000 mm 0,0 UV-I 0 W/m² 5,7 °C 7,4 °C 0,0 km/h (0 Bft)
05.11.2018 01:06 7,6 °C 89 % 1011,1 hPa 0,0 mm 0,0 km/h (0 Bft) S-SO 152 ° 0 min 0,000 mm 0,0 UV-I 0 W/m² 5,9 °C 7,6 °C 0,0 km/h (0 Bft)
05.11.2018 01:07 7,7 °C 89 % 1011,1 hPa 0,0 mm 0,0 km/h (0 Bft) S-SO 152 ° 0 min 0,000 mm 0,0 UV-I 0 W/m² 6,0 °C 7,7 °C 0,0 km/h (0 Bft)
05.11.2018 01:08 7,8 °C 89 % 1011,1 hPa 0,0 mm 0,0 km/h (0 Bft) S-SO 152 ° 0 min 0,000 mm 0,0 UV-I 0 W/m² 6,1 °C 7,8 °C 0,0 km/h (0 Bft)
05.11.2018 01:09 7,9 °C 88 % 1011,1 hPa 0,0 mm 0,0 km/h (0 Bft) S-SO 152 ° 0 min 0,000 mm 0,0 UV-I 0 W/m² 6,0 °C 7,9 °C 0,0 km/h (0 Bft)
05.11.2018 01:10 8,1 °C 87 % 1011,1 hPa 0,0 mm 0,0 km/h (0 Bft) S-SO 152 ° 0 min 0,000 mm 0,0 UV-I 0 W/m² 6,1 °C 8,1 °C 0,0 km/h (0 Bft)
05.11.2018 01:11 8,3 °C 86 % 1011,2 hPa 0,0 mm 0,0 km/h (0 Bft) S-SO 152 ° 0 min 0,000 mm 0,0 UV-I 0 W/m² 6,1 °C 8,3 °C 0,0 km/h (0 Bft)
05.11.2018 01:12 8,6 °C 86 % 1011,1 hPa 0,0 mm 0,3 km/h (0 Bft) S-SO 152 ° 0 min 0,000 mm 0,0 UV-I 0 W/m² 6,4 °C 8,6 °C 1,6 km/h (1 Bft)
05.11.2018 01:13 8,6 °C 84 % 1011,1 hPa 0,0 mm 1,0 km/h (0 Bft) S-SO 152 ° 0 min 0,000 mm 0,0 UV-I 0 W/m² 6,1 °C 8,6 °C 1,6 km/h (1 Bft)
05.11.2018 01:14 8,3 °C 83 % 1011,1 hPa 0,0 mm 0,0 km/h (0 Bft) S-SO 152 ° 0 min 0,000 mm 0,0 UV-I 0 W/m² 5,6 °C 8,3 °C 0,0 km/h (0 Bft)
05.11.2018 01:15 8,0 °C 83 % 1011,1 hPa 0,0 mm 0,0 km/h (0 Bft) S-SO 152 ° 0 min 0,000 mm 0,0 UV-I 0 W/m² 5,3 °C 8,0 °C 0,0 km/h (0 Bft)
05.11.2018 01:16 7,7 °C 84 % 1011,0 hPa 0,0 mm 0,0 km/h (0 Bft) S-SO 152 ° 0 min 0,000 mm 0,0 UV-I 0 W/m² 5,2 °C 7,7 °C 0,0 km/h (0 Bft)
05.11.2018 01:17 7,4 °C 85 % 1011,0 hPa 0,0 mm 0,0 km/h (0 Bft) S-SO 152 ° 0 min 0,000 mm 0,0 UV-I 0 W/m² 5,0 °C 7,4 °C 0,0 km/h (0 Bft)
05.11.2018 01:18 7,2 °C 86 % 1011,0 hPa 0,0 mm 0,0 km/h (0 Bft) S-SO 152 ° 0 min 0,000 mm 0,0 UV-I 0 W/m² 5,0 °C 7,2 °C 0,0 km/h (0 Bft)
05.11.2018 01:19 7,1 °C 87 % 1011,1 hPa 0,0 mm 0,0 km/h (0 Bft) S-SO 152 ° 0 min 0,000 mm 0,0 UV-I 0 W/m² 5,1 °C 7,1 °C 0,0 km/h (0 Bft)
05.11.2018 01:20 7,0 °C 88 % 1011,1 hPa 0,0 mm 0,0 km/h (0 Bft) S-SO 152 ° 0 min 0,000 mm 0,0 UV-I 0 W/m² 5,2 °C 7,0 °C 0,0 km/h (0 Bft)
05.11.2018 01:21 7,0 °C 88 % 1011,1 hPa 0,0 mm 0,3 km/h (0 Bft) S-SO 152 ° 0 min 0,000 mm 0,0 UV-I 0 W/m² 5,2 °C 7,0 °C 1,6 km/h (1 Bft)
05.11.2018 01:22 7,2 °C 90 % 1011,1 hPa 0,0 mm 0,2 km/h (0 Bft) S-SO 152 ° 0 min 0,000 mm 0,0 UV-I 0 W/m² 5,7 °C 7,2 °C 1,6 km/h (1 Bft)
05.11.2018 01:23 7,4 °C 89 % 1011,2 hPa 0,0 mm 0,0 km/h (0 Bft) S-SO 152 ° 0 min 0,000 mm 0,0 UV-I 0 W/m² 5,7 °C 7,4 °C 0,0 km/h (0 Bft)
05.11.2018 01:24 7,8 °C 89 % 1011,2 hPa 0,0 mm 0,0 km/h (0 Bft) S-SO 152 ° 0 min 0,000 mm 0,0 UV-I 0 W/m² 6,1 °C 7,8 °C 0,0 km/h (0 Bft)
05.11.2018 01:25 8,1 °C 89 % 1011,2 hPa 0,0 mm 0,0 km/h (0 Bft) S-SO 152 ° 0 min 0,000 mm 0,0 UV-I 0 W/m² 6,4 °C 8,1 °C 0,0 km/h (0 Bft)
05.11.2018 01:26 8,4 °C 88 % 1011,2 hPa 0,0 mm 0,0 km/h (0 Bft) S-SO 152 ° 0 min 0,000 mm 0,0 UV-I 0 W/m² 6,5 °C 8,4 °C 0,0 km/h (0 Bft)
05.11.2018 01:27 8,7 °C 85 % 1011,1 hPa 0,0 mm 0,0 km/h (0 Bft) S-SO 152 ° 0 min 0,000 mm 0,0 UV-I 0 W/m² 6,3 °C 8,7 °C 0,0 km/h (0 Bft)
05.11.2018 01:28 8,9 °C 85 % 1011,1 hPa 0,0 mm 0,2 km/h (0 Bft) S-SO 152 ° 0 min 0,000 mm 0,0 UV-I 0 W/m² 6,5 °C 8,9 °C 1,6 km/h (1 Bft)
05.11.2018 01:29 9,1 °C 84 % 1011,0 hPa 0,0 mm 0,0 km/h (0 Bft) S-SO 152 ° 0 min 0,000 mm 0,0 UV-I 0 W/m² 6,5 °C 9,1 °C 0,0 km/h (0 Bft)
05.11.2018 01:30 9,2 °C 84 % 1011,0 hPa 0,0 mm 0,0 km/h (0 Bft) S-SO 152 ° 0 min 0,000 mm 0,0 UV-I 0 W/m² 6,6 °C 9,2 °C 0,0 km/h (0 Bft)
05.11.2018 01:31 9,3 °C 83 % 1011,0 hPa 0,0 mm 0,0 km/h (0 Bft) S-SO 152 ° 0 min 0,000 mm 0,0 UV-I 0 W/m² 6,6 °C 9,3 °C 0,0 km/h (0 Bft)
05.11.2018 01:32 9,4 °C 83 % 1011,0 hPa 0,0 mm 0,6 km/h (0 Bft) S-SO 152 ° 0 min 0,000 mm 0,0 UV-I 0 W/m² 6,7 °C 9,4 °C 1,6 km/h (1 Bft)
05.11.2018 01:33 9,4 °C 82 % 1011,1 hPa 0,0 mm 0,1 km/h (0 Bft) S-SO 152 ° 0 min 0,000 mm 0,0 UV-I 0 W/m² 6,5 °C 9,4 °C 1,6 km/h (1 Bft)
05.11.2018 01:34 9,6 °C 81 % 1011,1 hPa 0,0 mm 0,6 km/h (0 Bft) S-SO 152 ° 0 min 0,000 mm 0,0 UV-I 0 W/m² 6,5 °C 9,6 °C 1,6 km/h (1 Bft)
05.11.2018 01:35 9,7 °C 80 % 1011,1 hPa 0,0 mm 0,0 km/h (0 Bft) S-SO 152 ° 0 min 0,000 mm 0,0 UV-I 0 W/m² 6,4 °C 9,7 °C 0,0 km/h (0 Bft)
05.11.2018 01:36 9,9 °C 80 % 1011,1 hPa 0,0 mm 0,0 km/h (0 Bft) S-SO 152 ° 0 min 0,000 mm 0,0 UV-I 0 W/m² 6,6 °C 9,9 °C 0,0 km/h (0 Bft)
05.11.2018 01:37 10,1 °C 80 % 1011,1 hPa 0,0 mm 0,0 km/h (0 Bft) S-SO 152 ° 0 min 0,000 mm 0,0 UV-I 0 W/m² 6,8 °C 10,1 °C 0,0 km/h (0 Bft)
05.11.2018 01:38 10,2 °C 80 % 1011,1 hPa 0,0 mm 0,0 km/h (0 Bft) S-SO 152 ° 0 min 0,000 mm 0,0 UV-I 0 W/m² 6,9 °C 10,2 °C 0,0 km/h (0 Bft)
05.11.2018 01:39 10,2 °C 79 % 1011,0 hPa 0,0 mm 0,0 km/h (0 Bft) S-SO 152 ° 0 min 0,000 mm 0,0 UV-I 0 W/m² 6,7 °C 10,2 °C 0,0 km/h (0 Bft)
05.11.2018 01:40 10,2 °C 79 % 1011,0 hPa 0,0 mm 0,5 km/h (0 Bft) S-SO 152 ° 0 min 0,000 mm 0,0 UV-I 0 W/m² 6,7 °C 10,2 °C 3,2 km/h (1 Bft)
05.11.2018 01:41 10,2 °C 79 % 1011,0 hPa 0,0 mm 1,0 km/h (0 Bft) S-SO 152 ° 0 min 0,000 mm 0,0 UV-I 0 W/m² 6,7 °C 10,2 °C 3,2 km/h (1 Bft)
05.11.2018 01:42 10,4 °C 79 % 1010,9 hPa 0,0 mm 0,0 km/h (0 Bft) S-SO 152 ° 0 min 0,000 mm 0,0 UV-I 0 W/m² 6,9 °C 10,4 °C 0,0 km/h (0 Bft)
05.11.2018 01:43 10,4 °C 78 % 1011,0 hPa 0,0 mm 0,0 km/h (0 Bft) S-SO 152 ° 0 min 0,000 mm 0,0 UV-I 0 W/m² 6,7 °C 10,4 °C 0,0 km/h (0 Bft)
05.11.2018 01:44 10,5 °C 77 % 1011,0 hPa 0,0 mm 0,0 km/h (0 Bft) S-SO 152 ° 0 min 0,000 mm 0,0 UV-I 0 W/m² 6,6 °C 10,5 °C 0,0 km/h (0 Bft)
05.11.2018 01:45 10,6 °C 77 % 1010,9 hPa 0,0 mm 0,0 km/h (0 Bft) S-SO 152 ° 0 min 0,000 mm 0,0 UV-I 0 W/m² 6,7 °C 10,6 °C 0,0 km/h (0 Bft)
05.11.2018 01:46 10,6 °C 77 % 1010,9 hPa 0,0 mm 0,0 km/h (0 Bft) S-SO 152 ° 0 min 0,000 mm 0,0 UV-I 0 W/m² 6,7 °C 10,6 °C 0,0 km/h (0 Bft)
05.11.2018 01:47 10,6 °C 77 % 1010,9 hPa 0,0 mm 0,0 km/h (0 Bft) S-SO 152 ° 0 min 0,000 mm 0,0 UV-I 0 W/m² 6,7 °C 10,6 °C 0,0 km/h (0 Bft)
05.11.2018 01:48 10,5 °C 77 % 1010,9 hPa 0,0 mm 0,0 km/h (0 Bft) S-SO 152 ° 0 min 0,000 mm 0,0 UV-I 0 W/m² 6,6 °C 10,5 °C 0,0 km/h (0 Bft)
05.11.2018 01:49 10,4 °C 77 % 1010,9 hPa 0,0 mm 0,0 km/h (0 Bft) S-SO 152 ° 0 min 0,000 mm 0,0 UV-I 0 W/m² 6,5 °C 10,4 °C 0,0 km/h (0 Bft)
05.11.2018 01:50 10,4 °C 78 % 1010,9 hPa 0,0 mm 0,0 km/h (0 Bft) S-SO 152 ° 0 min 0,000 mm 0,0 UV-I 0 W/m² 6,7 °C 10,4 °C 0,0 km/h (0 Bft)
05.11.2018 01:51 10,4 °C 77 % 1010,9 hPa 0,0 mm 0,0 km/h (0 Bft) S-SO 152 ° 0 min 0,000 mm 0,0 UV-I 0 W/m² 6,5 °C 10,4 °C 0,0 km/h (0 Bft)
05.11.2018 01:52 10,4 °C 77 % 1010,8 hPa 0,0 mm 0,0 km/h (0 Bft) S-SO 152 ° 0 min 0,000 mm 0,0 UV-I 0 W/m² 6,5 °C 10,4 °C 0,0 km/h (0 Bft)
05.11.2018 01:53 10,4 °C 77 % 1010,8 hPa 0,0 mm 0,0 km/h (0 Bft) S-SO 152 ° 0 min 0,000 mm 0,0 UV-I 0 W/m² 6,5 °C 10,4 °C 0,0 km/h (0 Bft)
05.11.2018 01:54 10,6 °C 76 % 1010,8 hPa 0,0 mm 0,0 km/h (0 Bft) S-SO 152 ° 0 min 0,000 mm 0,0 UV-I 0 W/m² 6,5 °C 10,6 °C 0,0 km/h (0 Bft)
05.11.2018 01:55 10,5 °C 76 % 1010,8 hPa 0,0 mm 0,0 km/h (0 Bft) S-SO 152 ° 0 min 0,000 mm 0,0 UV-I 0 W/m² 6,5 °C 10,5 °C 0,0 km/h (0 Bft)
05.11.2018 01:56 10,5 °C 76 % 1010,8 hPa 0,0 mm 0,0 km/h (0 Bft) S-SO 152 ° 0 min 0,000 mm 0,0 UV-I 0 W/m² 6,5 °C 10,5 °C 0,0 km/h (0 Bft)
05.11.2018 01:57 10,4 °C 77 % 1010,8 hPa 0,0 mm 0,0 km/h (0 Bft) S-SO 152 ° 0 min 0,000 mm 0,0 UV-I 0 W/m² 6,5 °C 10,4 °C 0,0 km/h (0 Bft)
05.11.2018 01:58 10,3 °C 77 % 1010,8 hPa 0,0 mm 0,0 km/h (0 Bft) S-SO 152 ° 0 min 0,000 mm 0,0 UV-I 0 W/m² 6,4 °C 10,3 °C 0,0 km/h (0 Bft)
05.11.2018 01:59 10,3 °C 77 % 1010,8 hPa 0,0 mm 0,0 km/h (0 Bft) S-SO 152 ° 0 min 0,000 mm 0,0 UV-I 0 W/m² 6,4 °C 10,3 °C 0,0 km/h (0 Bft)
05.11.2018 02:00 10,3 °C 77 % 1010,8 hPa 0,0 mm 0,0 km/h (0 Bft) S-SO 152 ° 0 min 0,000 mm 0,0 UV-I 0 W/m² 6,4 °C 10,3 °C 0,0 km/h (0 Bft)
05.11.2018 02:01 10,3 °C 77 % 1010,7 hPa 0,0 mm 0,0 km/h (0 Bft) S-SO 152 ° 0 min 0,000 mm 0,0 UV-I 0 W/m² 6,4 °C 10,3 °C 0,0 km/h (0 Bft)
05.11.2018 02:02 10,3 °C 77 % 1010,7 hPa 0,0 mm 0,0 km/h (0 Bft) S-SO 152 ° 0 min 0,000 mm 0,0 UV-I 0 W/m² 6,4 °C 10,3 °C 0,0 km/h (0 Bft)
05.11.2018 02:03 10,2 °C 77 % 1010,7 hPa 0,0 mm 0,0 km/h (0 Bft) S-SO 152 ° 0 min 0,000 mm 0,0 UV-I 0 W/m² 6,4 °C 10,2 °C 0,0 km/h (0 Bft)
05.11.2018 02:04 10,0 °C 78 % 1010,6 hPa 0,0 mm 0,0 km/h (0 Bft) S-SO 152 ° 0 min 0,000 mm 0,0 UV-I 0 W/m² 6,3 °C 10,0 °C 0,0 km/h (0 Bft)
05.11.2018 02:05 9,8 °C 78 % 1010,6 hPa 0,0 mm 0,0 km/h (0 Bft) S-SO 152 ° 0 min 0,000 mm 0,0 UV-I 0 W/m² 6,1 °C 9,8 °C 0,0 km/h (0 Bft)
05.11.2018 02:06 9,6 °C 79 % 1010,6 hPa 0,0 mm 0,0 km/h (0 Bft) S-SO 152 ° 0 min 0,000 mm 0,0 UV-I 0 W/m² 6,1 °C 9,6 °C 0,0 km/h (0 Bft)
05.11.2018 02:07 9,4 °C 79 % 1010,6 hPa 0,0 mm 0,0 km/h (0 Bft) S-SO 152 ° 0 min 0,000 mm 0,0 UV-I 0 W/m² 5,9 °C 9,4 °C 0,0 km/h (0 Bft)
05.11.2018 02:08 9,3 °C 79 % 1010,7 hPa 0,0 mm 0,0 km/h (0 Bft) S-SO 152 ° 0 min 0,000 mm 0,0 UV-I 0 W/m² 5,8 °C 9,3 °C 0,0 km/h (0 Bft)
05.11.2018 02:09 9,1 °C 80 % 1010,8 hPa 0,0 mm 0,0 km/h (0 Bft) S-SO 152 ° 0 min 0,000 mm 0,0 UV-I 0 W/m² 5,8 °C 9,1 °C 0,0 km/h (0 Bft)
05.11.2018 02:10 8,9 °C 80 % 1010,8 hPa 0,0 mm 0,0 km/h (0 Bft) S-SO 152 ° 0 min 0,000 mm 0,0 UV-I 0 W/m² 5,6 °C 8,9 °C 0,0 km/h (0 Bft)
05.11.2018 02:11 8,8 °C 81 % 1010,8 hPa 0,0 mm 0,0 km/h (0 Bft) S-SO 152 ° 0 min 0,000 mm 0,0 UV-I 0 W/m² 5,7 °C 8,8 °C 0,0 km/h (0 Bft)
05.11.2018 02:12 8,8 °C 81 % 1010,9 hPa 0,0 mm 0,0 km/h (0 Bft) S-SO 152 ° 0 min 0,000 mm 0,0 UV-I 0 W/m² 5,7 °C 8,8 °C 0,0 km/h (0 Bft)
05.11.2018 02:13 8,8 °C 82 % 1010,8 hPa 0,0 mm 0,0 km/h (0 Bft) S-SO 152 ° 0 min 0,000 mm 0,0 UV-I 0 W/m² 5,9 °C 8,8 °C 0,0 km/h (0 Bft)
05.11.2018 02:14 8,8 °C 81 % 1010,8 hPa 0,0 mm 0,0 km/h (0 Bft) S-SO 152 ° 0 min 0,000 mm 0,0 UV-I 0 W/m² 5,7 °C 8,8 °C 0,0 km/h (0 Bft)
05.11.2018 02:15 8,9 °C 81 % 1010,8 hPa 0,0 mm 0,0 km/h (0 Bft) S-SO 152 ° 0 min 0,000 mm 0,0 UV-I 0 W/m² 5,8 °C 8,9 °C 0,0 km/h (0 Bft)
05.11.2018 02:16 8,9 °C 81 % 1010,8 hPa 0,0 mm 0,0 km/h (0 Bft) S-SO 152 ° 0 min 0,000 mm 0,0 UV-I 0 W/m² 5,8 °C 8,9 °C 0,0 km/h (0 Bft)
05.11.2018 02:17 8,9 °C 81 % 1010,7 hPa 0,0 mm 0,0 km/h (0 Bft) S-SO 152 ° 0 min 0,000 mm 0,0 UV-I 0 W/m² 5,8 °C 8,9 °C 0,0 km/h (0 Bft)
05.11.2018 02:18 8,9 °C 81 % 1010,7 hPa 0,0 mm 0,0 km/h (0 Bft) S-SO 152 ° 0 min 0,000 mm 0,0 UV-I 0 W/m² 5,8 °C 8,9 °C 0,0 km/h (0 Bft)
05.11.2018 02:19 8,9 °C 81 % 1010,7 hPa 0,0 mm 0,0 km/h (0 Bft) S-SO 152 ° 0 min 0,000 mm 0,0 UV-I 0 W/m² 5,8 °C 8,9 °C 0,0 km/h (0 Bft)
05.11.2018 02:20 8,7 °C 81 % 1010,6 hPa 0,0 mm 0,0 km/h (0 Bft) S-SO 152 ° 0 min 0,000 mm 0,0 UV-I 0 W/m² 5,6 °C 8,7 °C 0,0 km/h (0 Bft)
05.11.2018 02:21 8,6 °C 81 % 1010,6 hPa 0,0 mm 0,0 km/h (0 Bft) S-SO 152 ° 0 min 0,000 mm 0,0 UV-I 0 W/m² 5,5 °C 8,6 °C 0,0 km/h (0 Bft)
05.11.2018 02:22 8,4 °C 82 % 1010,6 hPa 0,0 mm 0,0 km/h (0 Bft) S-SO 152 ° 0 min 0,000 mm 0,0 UV-I 0 W/m² 5,5 °C 8,4 °C 0,0 km/h (0 Bft)
05.11.2018 02:23 8,2 °C 83 % 1010,6 hPa 0,0 mm 0,0 km/h (0 Bft) S-SO 152 ° 0 min 0,000 mm 0,0 UV-I 0 W/m² 5,5 °C 8,2 °C 0,0 km/h (0 Bft)
05.11.2018 02:24 8,1 °C 83 % 1010,6 hPa 0,0 mm 0,0 km/h (0 Bft) S-SO 152 ° 0 min 0,000 mm 0,0 UV-I 0 W/m² 5,4 °C 8,1 °C 0,0 km/h (0 Bft)
05.11.2018 02:25 8,1 °C 84 % 1010,5 hPa 0,0 mm 0,0 km/h (0 Bft) S-SO 152 ° 0 min 0,000 mm 0,0 UV-I 0 W/m² 5,6 °C 8,1 °C 0,0 km/h (0 Bft)
05.11.2018 02:26 8,1 °C 85 % 1010,5 hPa 0,0 mm 0,0 km/h (0 Bft) S-SO 152 ° 0 min 0,000 mm 0,0 UV-I 0 W/m² 5,7 °C 8,1 °C 0,0 km/h (0 Bft)
05.11.2018 02:27 8,3 °C 85 % 1010,5 hPa 0,0 mm 0,0 km/h (0 Bft) S-SO 152 ° 0 min 0,000 mm 0,0 UV-I 0 W/m² 5,9 °C 8,3 °C 0,0 km/h (0 Bft)
05.11.2018 02:28 8,4 °C 85 % 1010,4 hPa 0,0 mm 0,0 km/h (0 Bft) S-SO 152 ° 0 min 0,000 mm 0,0 UV-I 0 W/m² 6,0 °C 8,4 °C 0,0 km/h (0 Bft)
05.11.2018 02:29 8,6 °C 86 % 1010,4 hPa 0,0 mm 0,0 km/h (0 Bft) S-SO 152 ° 0 min 0,000 mm 0,0 UV-I 0 W/m² 6,4 °C 8,6 °C 0,0 km/h (0 Bft)
05.11.2018 02:30 8,8 °C 85 % 1010,4 hPa 0,0 mm 0,0 km/h (0 Bft) S-SO 152 ° 0 min 0,000 mm 0,0 UV-I 0 W/m² 6,4 °C 8,8 °C 0,0 km/h (0 Bft)
05.11.2018 02:31 9,0 °C 85 % 1010,4 hPa 0,0 mm 0,0 km/h (0 Bft) S-SO 152 ° 0 min 0,000 mm 0,0 UV-I 0 W/m² 6,6 °C 9,0 °C 0,0 km/h (0 Bft)
05.11.2018 02:32 9,2 °C 83 % 1010,4 hPa 0,0 mm 0,0 km/h (0 Bft) S-SO 152 ° 0 min 0,000 mm 0,0 UV-I 0 W/m² 6,5 °C 9,2 °C 0,0 km/h (0 Bft)
05.11.2018 02:33 9,3 °C 82 % 1010,4 hPa 0,0 mm 0,8 km/h (0 Bft) S-SO 152 ° 0 min 0,000 mm 0,0 UV-I 0 W/m² 6,4 °C 9,3 °C 3,2 km/h (1 Bft)
05.11.2018 02:34 9,4 °C 81 % 1010,5 hPa 0,0 mm 0,0 km/h (0 Bft) S-SO 152 ° 0 min 0,000 mm 0,0 UV-I 0 W/m² 6,3 °C 9,4 °C 0,0 km/h (0 Bft)
05.11.2018 02:35 9,6 °C 81 % 1010,4 hPa 0,0 mm 0,2 km/h (0 Bft) S-SO 152 ° 0 min 0,000 mm 0,0 UV-I 0 W/m² 6,5 °C 9,6 °C 3,2 km/h (1 Bft)
05.11.2018 02:36 9,8 °C 81 % 1010,4 hPa 0,0 mm 1,1 km/h (1 Bft) S-SO 152 ° 0 min 0,000 mm 0,0 UV-I 0 W/m² 6,7 °C 9,8 °C 3,2 km/h (1 Bft)
05.11.2018 02:37 9,9 °C 81 % 1010,4 hPa 0,0 mm 0,6 km/h (0 Bft) N 355 ° 0 min 0,000 mm 0,0 UV-I 0 W/m² 6,8 °C 9,9 °C 3,2 km/h (1 Bft)
05.11.2018 02:38 9,9 °C 80 % 1010,3 hPa 0,0 mm 1,7 km/h (1 Bft) S 176 ° 0 min 0,000 mm 0,0 UV-I 0 W/m² 6,6 °C 9,9 °C 3,2 km/h (1 Bft)
05.11.2018 02:39 9,9 °C 80 % 1010,2 hPa 0,0 mm 1,9 km/h (1 Bft) S-SO 161 ° 0 min 0,000 mm 0,0 UV-I 0 W/m² 6,6 °C 9,9 °C 8,0 km/h (2 Bft)
05.11.2018 02:40 10,0 °C 79 % 1010,2 hPa 0,0 mm 0,1 km/h (0 Bft) S-SO 161 ° 0 min 0,000 mm 0,0 UV-I 0 W/m² 6,5 °C 10,0 °C 1,6 km/h (1 Bft)
05.11.2018 02:41 10,0 °C 79 % 1010,2 hPa 0,0 mm 0,0 km/h (0 Bft) S-SO 161 ° 0 min 0,000 mm 0,0 UV-I 0 W/m² 6,5 °C 10,0 °C 0,0 km/h (0 Bft)
05.11.2018 02:42 10,0 °C 79 % 1010,3 hPa 0,0 mm 0,4 km/h (0 Bft) S-SO 161 ° 0 min 0,000 mm 0,0 UV-I 0 W/m² 6,5 °C 10,0 °C 1,6 km/h (1 Bft)
05.11.2018 02:43 10,0 °C 79 % 1010,3 hPa 0,0 mm 0,0 km/h (0 Bft) S-SO 161 ° 0 min 0,000 mm 0,0 UV-I 0 W/m² 6,5 °C 10,0 °C 0,0 km/h (0 Bft)
05.11.2018 02:44 10,1 °C 78 % 1010,4 hPa 0,0 mm 0,0 km/h (0 Bft) S-SO 161 ° 0 min 0,000 mm 0,0 UV-I 0 W/m² 6,4 °C 10,1 °C 0,0 km/h (0 Bft)
05.11.2018 02:45 10,0 °C 78 % 1010,4 hPa 0,0 mm 0,0 km/h (0 Bft) S-SO 161 ° 0 min 0,000 mm 0,0 UV-I 0 W/m² 6,3 °C 10,0 °C 0,0 km/h (0 Bft)
05.11.2018 02:46 10,1 °C 78 % 1010,5 hPa 0,0 mm 0,0 km/h (0 Bft) S-SO 161 ° 0 min 0,000 mm 0,0 UV-I 0 W/m² 6,4 °C 10,1 °C 0,0 km/h (0 Bft)
05.11.2018 02:47 10,1 °C 78 % 1010,5 hPa 0,0 mm 0,0 km/h (0 Bft) S-SO 161 ° 0 min 0,000 mm 0,0 UV-I 0 W/m² 6,4 °C 10,1 °C 0,0 km/h (0 Bft)
05.11.2018 02:48 10,1 °C 78 % 1010,5 hPa 0,0 mm 0,6 km/h (0 Bft) NW 324 ° 0 min 0,000 mm 0,0 UV-I 0 W/m² 6,4 °C 10,1 °C 4,8 km/h (1 Bft)
05.11.2018 02:49 10,0 °C 78 % 1010,5 hPa 0,0 mm 0,6 km/h (0 Bft) N-NW 335 ° 0 min 0,000 mm 0,0 UV-I 0 W/m² 6,3 °C 10,0 °C 3,2 km/h (1 Bft)
05.11.2018 02:50 9,9 °C 78 % 1010,5 hPa 0,0 mm 0,0 km/h (0 Bft) N-NW 335 ° 0 min 0,000 mm 0,0 UV-I 0 W/m² 6,2 °C 9,9 °C 0,0 km/h (0 Bft)
05.11.2018 02:51 9,9 °C 78 % 1010,5 hPa 0,0 mm 0,0 km/h (0 Bft) N-NW 335 ° 0 min 0,000 mm 0,0 UV-I 0 W/m² 6,2 °C 9,9 °C 0,0 km/h (0 Bft)
05.11.2018 02:52 9,9 °C 79 % 1010,5 hPa 0,0 mm 0,0 km/h (0 Bft) N-NW 335 ° 0 min 0,000 mm 0,0 UV-I 0 W/m² 6,4 °C 9,9 °C 0,0 km/h (0 Bft)
05.11.2018 02:53 9,9 °C 78 % 1010,5 hPa 0,0 mm 0,0 km/h (0 Bft) N-NW 335 ° 0 min 0,000 mm 0,0 UV-I 0 W/m² 6,2 °C 9,9 °C 0,0 km/h (0 Bft)
05.11.2018 02:54 9,9 °C 79 % 1010,5 hPa 0,0 mm 0,0 km/h (0 Bft) N-NW 335 ° 0 min 0,000 mm 0,0 UV-I 0 W/m² 6,4 °C 9,9 °C 0,0 km/h (0 Bft)
05.11.2018 02:55 9,9 °C 79 % 1010,4 hPa 0,0 mm 0,0 km/h (0 Bft) N-NW 335 ° 0 min 0,000 mm 0,0 UV-I 0 W/m² 6,4 °C 9,9 °C 0,0 km/h (0 Bft)
05.11.2018 02:56 9,9 °C 79 % 1010,4 hPa 0,0 mm 0,0 km/h (0 Bft) N-NW 335 ° 0 min 0,000 mm 0,0 UV-I 0 W/m² 6,4 °C 9,9 °C 0,0 km/h (0 Bft)
05.11.2018 02:57 9,9 °C 78 % 1010,4 hPa 0,0 mm 0,0 km/h (0 Bft) N-NW 335 ° 0 min 0,000 mm 0,0 UV-I 0 W/m² 6,2 °C 9,9 °C 0,0 km/h (0 Bft)
05.11.2018 02:58 10,0 °C 78 % 1010,3 hPa 0,0 mm 0,0 km/h (0 Bft) N-NW 335 ° 0 min 0,000 mm 0,0 UV-I 0 W/m² 6,3 °C 10,0 °C 0,0 km/h (0 Bft)
05.11.2018 02:59 10,1 °C 78 % 1010,3 hPa 0,0 mm 0,0 km/h (0 Bft) N-NW 335 ° 0 min 0,000 mm 0,0 UV-I 0 W/m² 6,4 °C 10,1 °C 0,0 km/h (0 Bft)
05.11.2018 03:00 10,1 °C 78 % 1010,2 hPa 0,0 mm 0,0 km/h (0 Bft) N-NW 335 ° 0 min 0,000 mm 0,0 UV-I 0 W/m² 6,4 °C 10,1 °C 0,0 km/h (0 Bft)
05.11.2018 03:01 9,9 °C 78 % 1010,2 hPa 0,0 mm 0,0 km/h (0 Bft) N-NW 335 ° 0 min 0,025 mm 0,0 UV-I 0 W/m² 6,2 °C 9,9 °C 0,0 km/h (0 Bft)
05.11.2018 03:02 9,9 °C 79 % 1010,1 hPa 0,0 mm 0,0 km/h (0 Bft) N-NW 335 ° 0 min 0,000 mm 0,0 UV-I 0 W/m² 6,4 °C 9,9 °C 0,0 km/h (0 Bft)
05.11.2018 03:03 9,9 °C 78 % 1010,1 hPa 0,0 mm 0,0 km/h (0 Bft) N-NW 335 ° 0 min 0,000 mm 0,0 UV-I 0 W/m² 6,2 °C 9,9 °C 0,0 km/h (0 Bft)
05.11.2018 03:04 9,9 °C 78 % 1010,0 hPa 0,0 mm 0,0 km/h (0 Bft) N-NW 335 ° 0 min 0,000 mm 0,0 UV-I 0 W/m² 6,2 °C 9,9 °C 0,0 km/h (0 Bft)
05.11.2018 03:05 9,9 °C 78 % 1010,0 hPa 0,0 mm 0,0 km/h (0 Bft) N-NW 335 ° 0 min 0,000 mm 0,0 UV-I 0 W/m² 6,2 °C 9,9 °C 0,0 km/h (0 Bft)
05.11.2018 03:06 9,9 °C 77 % 1010,0 hPa 0,0 mm 0,0 km/h (0 Bft) N-NW 335 ° 0 min 0,000 mm 0,0 UV-I 0 W/m² 6,1 °C 9,9 °C 0,0 km/h (0 Bft)
05.11.2018 03:07 9,9 °C 78 % 1010,0 hPa 0,0 mm 0,0 km/h (0 Bft) N-NW 335 ° 0 min 0,000 mm 0,0 UV-I 0 W/m² 6,2 °C 9,9 °C 0,0 km/h (0 Bft)
05.11.2018 03:08 9,8 °C 78 % 1010,0 hPa 0,0 mm 0,0 km/h (0 Bft) N-NW 335 ° 0 min 0,000 mm 0,0 UV-I 0 W/m² 6,1 °C 9,8 °C 0,0 km/h (0 Bft)
05.11.2018 03:09 9,9 °C 78 % 1010,1 hPa 0,0 mm 0,0 km/h (0 Bft) N-NW 335 ° 0 min 0,000 mm 0,0 UV-I 0 W/m² 6,2 °C 9,9 °C 0,0 km/h (0 Bft)
05.11.2018 03:10 9,9 °C 78 % 1010,1 hPa 0,0 mm 0,0 km/h (0 Bft) N-NW 335 ° 0 min 0,000 mm 0,0 UV-I 0 W/m² 6,2 °C 9,9 °C 0,0 km/h (0 Bft)
05.11.2018 03:11 9,9 °C 78 % 1010,1 hPa 0,0 mm 0,0 km/h (0 Bft) N-NW 335 ° 0 min 0,000 mm 0,0 UV-I 0 W/m² 6,2 °C 9,9 °C 0,0 km/h (0 Bft)
05.11.2018 03:12 9,9 °C 78 % 1010,0 hPa 0,0 mm 0,0 km/h (0 Bft) N-NW 335 ° 0 min 0,000 mm 0,0 UV-I 0 W/m² 6,2 °C 9,9 °C 0,0 km/h (0 Bft)
05.11.2018 03:13 9,9 °C 78 % 1010,1 hPa 0,0 mm 1,1 km/h (1 Bft) N-NW 335 ° 0 min 0,000 mm 0,0 UV-I 0 W/m² 6,2 °C 9,9 °C 3,2 km/h (1 Bft)
05.11.2018 03:14 9,9 °C 79 % 1010,1 hPa 0,0 mm 0,5 km/h (0 Bft) N-NW 335 ° 0 min 0,000 mm 0,0 UV-I 0 W/m² 6,4 °C 9,9 °C 1,6 km/h (1 Bft)
05.11.2018 03:15 9,9 °C 79 % 1010,1 hPa 0,0 mm 0,8 km/h (0 Bft) N-NW 335 ° 0 min 0,000 mm 0,0 UV-I 0 W/m² 6,4 °C 9,9 °C 1,6 km/h (1 Bft)
05.11.2018 03:16 9,8 °C 80 % 1010,1 hPa 0,0 mm 0,1 km/h (0 Bft) N-NW 335 ° 0 min 0,000 mm 0,0 UV-I 0 W/m² 6,5 °C 9,8 °C 1,6 km/h (1 Bft)
05.11.2018 03:17 9,8 °C 79 % 1010,1 hPa 0,0 mm 0,4 km/h (0 Bft) N-NW 335 ° 0 min 0,000 mm 0,0 UV-I 0 W/m² 6,3 °C 9,8 °C 1,6 km/h (1 Bft)
05.11.2018 03:18 9,7 °C 79 % 1010,2 hPa 0,0 mm 0,0 km/h (0 Bft) N-NW 335 ° 0 min 0,000 mm 0,0 UV-I 0 W/m² 6,2 °C 9,7 °C 0,0 km/h (0 Bft)
05.11.2018 03:19 9,8 °C 79 % 1010,2 hPa 0,0 mm 0,6 km/h (0 Bft) N-NW 335 ° 0 min 0,000 mm 0,0 UV-I 0 W/m² 6,3 °C 9,8 °C 1,6 km/h (1 Bft)
05.11.2018 03:20 9,8 °C 79 % 1010,2 hPa 0,0 mm 1,2 km/h (1 Bft) N-NW 335 ° 0 min 0,000 mm 0,0 UV-I 0 W/m² 6,3 °C 9,8 °C 3,2 km/h (1 Bft)
05.11.2018 03:21 9,8 °C 79 % 1010,2 hPa 0,0 mm 0,3 km/h (0 Bft) N-NW 335 ° 0 min 0,000 mm 0,0 UV-I 0 W/m² 6,3 °C 9,8 °C 1,6 km/h (1 Bft)
05.11.2018 03:22 9,8 °C 78 % 1010,2 hPa 0,0 mm 0,6 km/h (0 Bft) N-NW 335 ° 0 min 0,000 mm 0,0 UV-I 0 W/m² 6,1 °C 9,8 °C 1,6 km/h (1 Bft)
05.11.2018 03:23 9,9 °C 78 % 1010,2 hPa 0,0 mm 0,0 km/h (0 Bft) N-NW 335 ° 0 min 0,000 mm 0,0 UV-I 0 W/m² 6,2 °C 9,9 °C 0,0 km/h (0 Bft)
05.11.2018 03:24 9,9 °C 78 % 1010,2 hPa 0,0 mm 0,0 km/h (0 Bft) N-NW 335 ° 0 min 0,000 mm 0,0 UV-I 0 W/m² 6,2 °C 9,9 °C 0,0 km/h (0 Bft)
05.11.2018 03:25 9,9 °C 77 % 1010,1 hPa 0,0 mm 0,8 km/h (0 Bft) N-NW 335 ° 0 min 0,000 mm 0,0 UV-I 0 W/m² 6,1 °C 9,9 °C 1,6 km/h (1 Bft)
05.11.2018 03:26 10,0 °C 78 % 1010,0 hPa 0,0 mm 0,0 km/h (0 Bft) N-NW 335 ° 0 min 0,000 mm 0,0 UV-I 0 W/m² 6,3 °C 10,0 °C 0,0 km/h (0 Bft)
05.11.2018 03:27 9,9 °C 78 % 1010,0 hPa 0,0 mm 0,0 km/h (0 Bft) N-NW 335 ° 0 min 0,000 mm 0,0 UV-I 0 W/m² 6,2 °C 9,9 °C 0,0 km/h (0 Bft)
05.11.2018 03:28 9,8 °C 78 % 1009,9 hPa 0,0 mm 0,0 km/h (0 Bft) N-NW 335 ° 0 min 0,000 mm 0,0 UV-I 0 W/m² 6,1 °C 9,8 °C 0,0 km/h (0 Bft)
05.11.2018 03:29 9,8 °C 79 % 1009,9 hPa 0,0 mm 0,0 km/h (0 Bft) N-NW 335 ° 0 min 0,000 mm 0,0 UV-I 0 W/m² 6,3 °C 9,8 °C 0,0 km/h (0 Bft)
05.11.2018 03:30 9,7 °C 79 % 1010,0 hPa 0,0 mm 0,0 km/h (0 Bft) N-NW 335 ° 0 min 0,000 mm 0,0 UV-I 0 W/m² 6,2 °C 9,7 °C 0,0 km/h (0 Bft)
05.11.2018 03:31 9,7 °C 79 % 1009,9 hPa 0,0 mm 0,0 km/h (0 Bft) N-NW 335 ° 0 min 0,000 mm 0,0 UV-I 0 W/m² 6,2 °C 9,7 °C 0,0 km/h (0 Bft)
05.11.2018 03:32 9,7 °C 79 % 1009,9 hPa 0,0 mm 0,0 km/h (0 Bft) N-NW 335 ° 0 min 0,000 mm 0,0 UV-I 0 W/m² 6,2 °C 9,7 °C 0,0 km/h (0 Bft)
05.11.2018 03:33 9,8 °C 79 % 1009,9 hPa 0,0 mm 0,0 km/h (0 Bft) N-NW 335 ° 0 min 0,000 mm 0,0 UV-I 0 W/m² 6,3 °C 9,8 °C 0,0 km/h (0 Bft)
05.11.2018 03:34 9,9 °C 78 % 1009,9 hPa 0,0 mm 0,0 km/h (0 Bft) N-NW 335 ° 0 min 0,000 mm 0,0 UV-I 0 W/m² 6,2 °C 9,9 °C 0,0 km/h (0 Bft)
05.11.2018 03:35 9,9 °C 78 % 1009,9 hPa 0,0 mm 0,0 km/h (0 Bft) N-NW 335 ° 0 min 0,000 mm 0,0 UV-I 0 W/m² 6,2 °C 9,9 °C 0,0 km/h (0 Bft)
05.11.2018 03:36 9,9 °C 77 % 1009,9 hPa 0,0 mm 0,0 km/h (0 Bft) N-NW 335 ° 0 min 0,000 mm 0,0 UV-I 0 W/m² 6,1 °C 9,9 °C 0,0 km/h (0 Bft)
05.11.2018 03:37 9,9 °C 78 % 1010,0 hPa 0,0 mm 0,0 km/h (0 Bft) N-NW 335 ° 0 min 0,000 mm 0,0 UV-I 0 W/m² 6,2 °C 9,9 °C 0,0 km/h (0 Bft)
05.11.2018 03:38 9,8 °C 77 % 1010,0 hPa 0,0 mm 0,0 km/h (0 Bft) N-NW 335 ° 0 min 0,000 mm 0,0 UV-I 0 W/m² 6,0 °C 9,8 °C 0,0 km/h (0 Bft)
05.11.2018 03:39 9,6 °C 78 % 1010,0 hPa 0,0 mm 0,0 km/h (0 Bft) N-NW 335 ° 0 min 0,000 mm 0,0 UV-I 0 W/m² 6,0 °C 9,6 °C 0,0 km/h (0 Bft)
05.11.2018 03:40 9,4 °C 79 % 1009,9 hPa 0,0 mm 0,0 km/h (0 Bft) N-NW 335 ° 0 min 0,000 mm 0,0 UV-I 0 W/m² 5,9 °C 9,4 °C 0,0 km/h (0 Bft)
05.11.2018 03:41 9,4 °C 80 % 1010,0 hPa 0,0 mm 0,0 km/h (0 Bft) N-NW 335 ° 0 min 0,000 mm 0,0 UV-I 0 W/m² 6,1 °C 9,4 °C 0,0 km/h (0 Bft)
05.11.2018 03:42 9,4 °C 79 % 1009,9 hPa 0,0 mm 0,0 km/h (0 Bft) N-NW 335 ° 0 min 0,000 mm 0,0 UV-I 0 W/m² 5,9 °C 9,4 °C 0,0 km/h (0 Bft)
05.11.2018 03:43 9,4 °C 79 % 1010,1 hPa 0,0 mm 0,0 km/h (0 Bft) N-NW 335 ° 0 min 0,000 mm 0,0 UV-I 0 W/m² 5,9 °C 9,4 °C 0,0 km/h (0 Bft)
05.11.2018 03:44 9,2 °C 79 % 1010,1 hPa 0,0 mm 0,7 km/h (0 Bft) N-NW 334 ° 0 min 0,000 mm 0,0 UV-I 0 W/m² 5,8 °C 9,2 °C 3,2 km/h (1 Bft)
05.11.2018 03:45 9,2 °C 80 % 1010,0 hPa 0,0 mm 2,0 km/h (1 Bft) N-NW 333 ° 0 min 0,000 mm 0,0 UV-I 0 W/m² 5,9 °C 9,2 °C 3,2 km/h (1 Bft)
05.11.2018 03:46 9,3 °C 80 % 1010,0 hPa 0,0 mm 3,1 km/h (1 Bft) W-SW 242 ° 0 min 0,000 mm 0,0 UV-I 0 W/m² 6,0 °C 9,3 °C 4,8 km/h (1 Bft)
05.11.2018 03:47 9,4 °C 80 % 1010,0 hPa 0,0 mm 3,9 km/h (1 Bft) W-SW 239 ° 0 min 0,000 mm 0,0 UV-I 0 W/m² 6,1 °C 9,4 °C 6,4 km/h (2 Bft)
05.11.2018 03:48 9,6 °C 79 % 1010,0 hPa 0,0 mm 1,5 km/h (1 Bft) W-SW 239 ° 0 min 0,000 mm 0,0 UV-I 0 W/m² 6,1 °C 9,6 °C 3,2 km/h (1 Bft)
05.11.2018 03:49 9,7 °C 78 % 1009,9 hPa 0,0 mm 1,0 km/h (0 Bft) W-SW 239 ° 0 min 0,000 mm 0,0 UV-I 0 W/m² 6,1 °C 9,7 °C 3,2 km/h (1 Bft)
05.11.2018 03:50 9,7 °C 79 % 1009,9 hPa 0,0 mm 0,0 km/h (0 Bft) W-SW 239 ° 0 min 0,000 mm 0,0 UV-I 0 W/m² 6,2 °C 9,7 °C 0,0 km/h (0 Bft)
05.11.2018 03:51 9,7 °C 79 % 1009,9 hPa 0,0 mm 0,1 km/h (0 Bft) W-SW 239 ° 0 min 0,000 mm 0,0 UV-I 0 W/m² 6,2 °C 9,7 °C 1,6 km/h (1 Bft)
05.11.2018 03:52 9,7 °C 79 % 1010,0 hPa 0,0 mm 0,2 km/h (0 Bft) W-SW 239 ° 0 min 0,000 mm 0,0 UV-I 0 W/m² 6,2 °C 9,7 °C 1,6 km/h (1 Bft)
05.11.2018 03:53 9,8 °C 79 % 1010,0 hPa 0,0 mm 0,0 km/h (0 Bft) W-SW 239 ° 0 min 0,000 mm 0,0 UV-I 0 W/m² 6,3 °C 9,8 °C 0,0 km/h (0 Bft)
05.11.2018 03:54 9,8 °C 79 % 1010,0 hPa 0,0 mm 0,0 km/h (0 Bft) W-SW 239 ° 0 min 0,000 mm 0,0 UV-I 0 W/m² 6,3 °C 9,8 °C 0,0 km/h (0 Bft)
05.11.2018 03:55 9,8 °C 78 % 1010,0 hPa 0,0 mm 0,0 km/h (0 Bft) W-SW 239 ° 0 min 0,000 mm 0,0 UV-I 0 W/m² 6,1 °C 9,8 °C 0,0 km/h (0 Bft)
05.11.2018 03:56 9,8 °C 79 % 1009,9 hPa 0,0 mm 0,0 km/h (0 Bft) W-SW 239 ° 0 min 0,000 mm 0,0 UV-I 0 W/m² 6,3 °C 9,8 °C 0,0 km/h (0 Bft)
05.11.2018 03:57 9,8 °C 79 % 1009,9 hPa 0,0 mm 0,0 km/h (0 Bft) W-SW 239 ° 0 min 0,000 mm 0,0 UV-I 0 W/m² 6,3 °C 9,8 °C 0,0 km/h (0 Bft)
05.11.2018 03:58 9,8 °C 78 % 1009,9 hPa 0,0 mm 0,2 km/h (0 Bft) W-SW 239 ° 0 min 0,000 mm 0,0 UV-I 0 W/m² 6,1 °C 9,8 °C 1,6 km/h (1 Bft)
05.11.2018 03:59 9,9 °C 78 % 1009,9 hPa 0,0 mm 0,1 km/h (0 Bft) W-SW 239 ° 0 min 0,000 mm 0,0 UV-I 0 W/m² 6,2 °C 9,9 °C 1,6 km/h (1 Bft)
05.11.2018 04:00 9,8 °C 78 % 1009,9 hPa 0,0 mm 1,8 km/h (1 Bft) W-SW 239 ° 0 min 0,026 mm 0,0 UV-I 0 W/m² 6,1 °C 9,8 °C 3,2 km/h (1 Bft)
05.11.2018 04:01 9,8 °C 77 % 1010,0 hPa 0,0 mm 0,7 km/h (0 Bft) SW 234 ° 0 min 0,000 mm 0,0 UV-I 0 W/m² 6,0 °C 9,8 °C 3,2 km/h (1 Bft)
05.11.2018 04:02 9,9 °C 78 % 1010,1 hPa 0,0 mm 0,0 km/h (0 Bft) SW 234 ° 0 min 0,000 mm 0,0 UV-I 0 W/m² 6,2 °C 9,9 °C 0,0 km/h (0 Bft)
05.11.2018 04:03 9,8 °C 79 % 1010,1 hPa 0,0 mm 0,0 km/h (0 Bft) SW 234 ° 0 min 0,000 mm 0,0 UV-I 0 W/m² 6,3 °C 9,8 °C 0,0 km/h (0 Bft)
05.11.2018 04:04 9,8 °C 79 % 1010,1 hPa 0,0 mm 1,0 km/h (0 Bft) SW 231 ° 0 min 0,000 mm 0,0 UV-I 0 W/m² 6,3 °C 9,8 °C 3,2 km/h (1 Bft)
05.11.2018 04:05 9,7 °C 79 % 1010,2 hPa 0,0 mm 0,0 km/h (0 Bft) SW 231 ° 0 min 0,000 mm 0,0 UV-I 0 W/m² 6,2 °C 9,7 °C 0,0 km/h (0 Bft)
05.11.2018 04:06 9,6 °C 80 % 1010,2 hPa 0,0 mm 0,0 km/h (0 Bft) SW 231 ° 0 min 0,000 mm 0,0 UV-I 0 W/m² 6,3 °C 9,6 °C 0,0 km/h (0 Bft)
05.11.2018 04:07 9,5 °C 80 % 1010,2 hPa 0,0 mm 0,0 km/h (0 Bft) SW 231 ° 0 min 0,000 mm 0,0 UV-I 0 W/m² 6,2 °C 9,5 °C 0,0 km/h (0 Bft)
05.11.2018 04:08 9,4 °C 80 % 1010,1 hPa 0,0 mm 0,4 km/h (0 Bft) SW 231 ° 0 min 0,000 mm 0,0 UV-I 0 W/m² 6,1 °C 9,4 °C 3,2 km/h (1 Bft)
05.11.2018 04:09 9,4 °C 80 % 1010,1 hPa 0,0 mm 0,1 km/h (0 Bft) SW 231 ° 0 min 0,000 mm 0,0 UV-I 0 W/m² 6,1 °C 9,4 °C 1,6 km/h (1 Bft)
05.11.2018 04:10 9,4 °C 80 % 1010,1 hPa 0,0 mm 0,0 km/h (0 Bft) SW 231 ° 0 min 0,000 mm 0,0 UV-I 0 W/m² 6,1 °C 9,4 °C 0,0 km/h (0 Bft)
05.11.2018 04:11 9,5 °C 79 % 1010,1 hPa 0,0 mm 0,3 km/h (0 Bft) N-NW 331 ° 0 min 0,000 mm 0,0 UV-I 0 W/m² 6,0 °C 9,5 °C 1,6 km/h (1 Bft)
05.11.2018 04:12 9,6 °C 79 % 1010,1 hPa 0,0 mm 0,0 km/h (0 Bft) N-NW 331 ° 0 min 0,000 mm 0,0 UV-I 0 W/m² 6,1 °C 9,6 °C 0,0 km/h (0 Bft)
05.11.2018 04:13 9,6 °C 79 % 1010,0 hPa 0,0 mm 0,3 km/h (0 Bft) N-NW 334 ° 0 min 0,000 mm 0,0 UV-I 0 W/m² 6,1 °C 9,6 °C 1,6 km/h (1 Bft)
05.11.2018 04:14 9,7 °C 79 % 1010,1 hPa 0,0 mm 0,0 km/h (0 Bft) N-NW 334 ° 0 min 0,000 mm 0,0 UV-I 0 W/m² 6,2 °C 9,7 °C 0,0 km/h (0 Bft)
05.11.2018 04:15 9,8 °C 79 % 1010,1 hPa 0,0 mm 0,0 km/h (0 Bft) N-NW 334 ° 0 min 0,000 mm 0,0 UV-I 0 W/m² 6,3 °C 9,8 °C 0,0 km/h (0 Bft)
05.11.2018 04:16 9,8 °C 78 % 1010,1 hPa 0,0 mm 0,4 km/h (0 Bft) N-NW 329 ° 0 min 0,000 mm 0,0 UV-I 0 W/m² 6,1 °C 9,8 °C 1,6 km/h (1 Bft)
05.11.2018 04:17 9,8 °C 78 % 1010,1 hPa 0,0 mm 0,0 km/h (0 Bft) N-NW 329 ° 0 min 0,000 mm 0,0 UV-I 0 W/m² 6,1 °C 9,8 °C 0,0 km/h (0 Bft)
05.11.2018 04:18 9,9 °C 79 % 1010,1 hPa 0,0 mm 0,0 km/h (0 Bft) N-NW 329 ° 0 min 0,000 mm 0,0 UV-I 0 W/m² 6,4 °C 9,9 °C 0,0 km/h (0 Bft)
05.11.2018 04:19 9,9 °C 78 % 1010,1 hPa 0,0 mm 0,0 km/h (0 Bft) N-NW 329 ° 0 min 0,000 mm 0,0 UV-I 0 W/m² 6,2 °C 9,9 °C 0,0 km/h (0 Bft)
05.11.2018 04:20 9,9 °C 78 % 1010,0 hPa 0,0 mm 0,0 km/h (0 Bft) N-NW 329 ° 0 min 0,000 mm 0,0 UV-I 0 W/m² 6,2 °C 9,9 °C 0,0 km/h (0 Bft)
05.11.2018 04:21 9,9 °C 78 % 1010,0 hPa 0,0 mm 0,0 km/h (0 Bft) N-NW 329 ° 0 min 0,000 mm 0,0 UV-I 0 W/m² 6,2 °C 9,9 °C 0,0 km/h (0 Bft)
05.11.2018 04:22 9,9 °C 78 % 1010,0 hPa 0,0 mm 0,0 km/h (0 Bft) N-NW 329 ° 0 min 0,000 mm 0,0 UV-I 0 W/m² 6,2 °C 9,9 °C 0,0 km/h (0 Bft)
05.11.2018 04:23 9,9 °C 77 % 1010,0 hPa 0,0 mm 0,5 km/h (0 Bft) N-NW 329 ° 0 min 0,000 mm 0,0 UV-I 0 W/m² 6,1 °C 9,9 °C 1,6 km/h (1 Bft)
05.11.2018 04:24 9,9 °C 78 % 1010,0 hPa 0,0 mm 0,0 km/h (0 Bft) N-NW 329 ° 0 min 0,000 mm 0,0 UV-I 0 W/m² 6,2 °C 9,9 °C 0,0 km/h (0 Bft)
05.11.2018 04:25 10,0 °C 77 % 1009,9 hPa 0,0 mm 0,0 km/h (0 Bft) N-NW 329 ° 0 min 0,000 mm 0,0 UV-I 0 W/m² 6,2 °C 10,0 °C 0,0 km/h (0 Bft)
05.11.2018 04:26 10,1 °C 77 % 1010,0 hPa 0,0 mm 0,0 km/h (0 Bft) N-NW 329 ° 0 min 0,000 mm 0,0 UV-I 0 W/m² 6,3 °C 10,1 °C 0,0 km/h (0 Bft)
05.11.2018 04:27 10,1 °C 77 % 1009,9 hPa 0,0 mm 0,0 km/h (0 Bft) N-NW 329 ° 0 min 0,000 mm 0,0 UV-I 0 W/m² 6,3 °C 10,1 °C 0,0 km/h (0 Bft)
05.11.2018 04:28 10,0 °C 76 % 1009,8 hPa 0,0 mm 0,0 km/h (0 Bft) N-NW 329 ° 0 min 0,000 mm 0,0 UV-I 0 W/m² 6,0 °C 10,0 °C 0,0 km/h (0 Bft)
05.11.2018 04:29 10,0 °C 77 % 1009,8 hPa 0,0 mm 0,0 km/h (0 Bft) N-NW 329 ° 0 min 0,000 mm 0,0 UV-I 0 W/m² 6,2 °C 10,0 °C 0,0 km/h (0 Bft)
05.11.2018 04:30 9,9 °C 77 % 1009,8 hPa 0,0 mm 0,0 km/h (0 Bft) N-NW 329 ° 0 min 0,000 mm 0,0 UV-I 0 W/m² 6,1 °C 9,9 °C 0,0 km/h (0 Bft)
05.11.2018 04:31 10,0 °C 77 % 1009,9 hPa 0,0 mm 0,0 km/h (0 Bft) N-NW 329 ° 0 min 0,000 mm 0,0 UV-I 0 W/m² 6,2 °C 10,0 °C 0,0 km/h (0 Bft)
05.11.2018 04:32 10,1 °C 77 % 1009,8 hPa 0,0 mm 0,0 km/h (0 Bft) N-NW 329 ° 0 min 0,000 mm 0,0 UV-I 0 W/m² 6,3 °C 10,1 °C 0,0 km/h (0 Bft)
05.11.2018 04:33 10,2 °C 77 % 1009,8 hPa 0,0 mm 0,0 km/h (0 Bft) N-NW 329 ° 0 min 0,000 mm 0,0 UV-I 0 W/m² 6,4 °C 10,2 °C 0,0 km/h (0 Bft)
05.11.2018 04:34 10,3 °C 76 % 1009,9 hPa 0,0 mm 0,6 km/h (0 Bft) N-NW 329 ° 0 min 0,000 mm 0,0 UV-I 0 W/m² 6,3 °C 10,3 °C 3,2 km/h (1 Bft)
05.11.2018 04:35 10,3 °C 77 % 1009,8 hPa 0,0 mm 2,3 km/h (1 Bft) N 355 ° 0 min 0,000 mm 0,0 UV-I 0 W/m² 6,4 °C 10,3 °C 4,8 km/h (1 Bft)
05.11.2018 04:36 10,1 °C 77 % 1009,8 hPa 0,0 mm 3,2 km/h (1 Bft) O 82 ° 0 min 0,000 mm 0,0 UV-I 0 W/m² 6,3 °C 10,1 °C 6,4 km/h (2 Bft)
05.11.2018 04:37 10,1 °C 78 % 1009,9 hPa 0,0 mm 3,1 km/h (1 Bft) O 85 ° 0 min 0,000 mm 0,0 UV-I 0 W/m² 6,4 °C 10,1 °C 4,8 km/h (1 Bft)
05.11.2018 04:38 10,1 °C 77 % 1009,9 hPa 0,0 mm 2,6 km/h (1 Bft) O 86 ° 0 min 0,000 mm 0,0 UV-I 0 W/m² 6,3 °C 10,1 °C 3,2 km/h (1 Bft)
05.11.2018 04:39 10,1 °C 78 % 1009,8 hPa 0,0 mm 0,5 km/h (0 Bft) O 86 ° 0 min 0,000 mm 0,0 UV-I 0 W/m² 6,4 °C 10,1 °C 3,2 km/h (1 Bft)
05.11.2018 04:40 10,0 °C 78 % 1009,8 hPa 0,0 mm 0,1 km/h (0 Bft) O 86 ° 0 min 0,000 mm 0,0 UV-I 0 W/m² 6,3 °C 10,0 °C 1,6 km/h (1 Bft)
05.11.2018 04:41 10,0 °C 78 % 1009,8 hPa 0,0 mm 0,0 km/h (0 Bft) O 86 ° 0 min 0,000 mm 0,0 UV-I 0 W/m² 6,3 °C 10,0 °C 0,0 km/h (0 Bft)
05.11.2018 04:42 9,9 °C 78 % 1009,8 hPa 0,0 mm 0,0 km/h (0 Bft) O 86 ° 0 min 0,000 mm 0,0 UV-I 0 W/m² 6,2 °C 9,9 °C 0,0 km/h (0 Bft)
05.11.2018 04:43 9,9 °C 78 % 1009,8 hPa 0,0 mm 0,0 km/h (0 Bft) O 86 ° 0 min 0,000 mm 0,0 UV-I 0 W/m² 6,2 °C 9,9 °C 0,0 km/h (0 Bft)
05.11.2018 04:44 9,9 °C 77 % 1009,8 hPa 0,0 mm 0,0 km/h (0 Bft) O 86 ° 0 min 0,000 mm 0,0 UV-I 0 W/m² 6,1 °C 9,9 °C 0,0 km/h (0 Bft)
05.11.2018 04:45 9,9 °C 77 % 1009,8 hPa 0,0 mm 2,3 km/h (1 Bft) O 86 ° 0 min 0,000 mm 0,0 UV-I 0 W/m² 6,1 °C 9,9 °C 4,8 km/h (1 Bft)
05.11.2018 04:46 9,9 °C 78 % 1009,8 hPa 0,0 mm 1,3 km/h (1 Bft) O 86 ° 0 min 0,000 mm 0,0 UV-I 0 W/m² 6,2 °C 9,9 °C 3,2 km/h (1 Bft)
05.11.2018 04:47 9,9 °C 77 % 1009,7 hPa 0,0 mm 1,4 km/h (1 Bft) O 86 ° 0 min 0,000 mm 0,0 UV-I 0 W/m² 6,1 °C 9,9 °C 3,2 km/h (1 Bft)
05.11.2018 04:48 10,0 °C 77 % 1009,8 hPa 0,0 mm 0,5 km/h (0 Bft) O 86 ° 0 min 0,000 mm 0,0 UV-I 0 W/m² 6,2 °C 10,0 °C 3,2 km/h (1 Bft)
05.11.2018 04:49 10,1 °C 76 % 1009,8 hPa 0,0 mm 1,7 km/h (1 Bft) O 86 ° 0 min 0,000 mm 0,0 UV-I 0 W/m² 6,1 °C 10,1 °C 3,2 km/h (1 Bft)
05.11.2018 04:50 10,2 °C 76 % 1009,8 hPa 0,0 mm 1,4 km/h (1 Bft) O 86 ° 0 min 0,000 mm 0,0 UV-I 0 W/m² 6,2 °C 10,2 °C 3,2 km/h (1 Bft)
05.11.2018 04:51 10,2 °C 77 % 1009,7 hPa 0,0 mm 0,6 km/h (0 Bft) O 86 ° 0 min 0,000 mm 0,0 UV-I 0 W/m² 6,4 °C 10,2 °C 3,2 km/h (1 Bft)
05.11.2018 04:52 10,2 °C 77 % 1009,7 hPa 0,0 mm 0,0 km/h (0 Bft) O 86 ° 0 min 0,000 mm 0,0 UV-I 0 W/m² 6,4 °C 10,2 °C 0,0 km/h (0 Bft)
05.11.2018 04:53 10,3 °C 76 % 1009,7 hPa 0,0 mm 0,0 km/h (0 Bft) O 86 ° 0 min 0,000 mm 0,0 UV-I 0 W/m² 6,3 °C 10,3 °C 0,0 km/h (0 Bft)
05.11.2018 04:54 10,4 °C 76 % 1009,7 hPa 0,0 mm 0,0 km/h (0 Bft) O 86 ° 0 min 0,000 mm 0,0 UV-I 0 W/m² 6,4 °C 10,4 °C 0,0 km/h (0 Bft)
05.11.2018 04:55 10,5 °C 76 % 1009,7 hPa 0,0 mm 0,0 km/h (0 Bft) O 86 ° 0 min 0,000 mm 0,0 UV-I 0 W/m² 6,5 °C 10,5 °C 0,0 km/h (0 Bft)
05.11.2018 04:56 10,6 °C 76 % 1009,7 hPa 0,0 mm 0,0 km/h (0 Bft) O 86 ° 0 min 0,000 mm 0,0 UV-I 0 W/m² 6,5 °C 10,6 °C 0,0 km/h (0 Bft)
05.11.2018 04:57 10,7 °C 75 % 1009,7 hPa 0,0 mm 0,1 km/h (0 Bft) O 86 ° 0 min 0,000 mm 0,0 UV-I 0 W/m² 6,5 °C 10,7 °C 1,6 km/h (1 Bft)
05.11.2018 04:58 10,7 °C 74 % 1009,7 hPa 0,0 mm 0,4 km/h (0 Bft) O 96 ° 0 min 0,000 mm 0,0 UV-I 0 W/m² 6,3 °C 10,7 °C 3,2 km/h (1 Bft)
05.11.2018 04:59 10,7 °C 74 % 1009,7 hPa 0,0 mm 1,6 km/h (1 Bft) N 5 ° 0 min 0,000 mm 0,0 UV-I 0 W/m² 6,3 °C 10,7 °C 4,8 km/h (1 Bft)
05.11.2018 05:00 10,7 °C 74 % 1009,7 hPa 0,0 mm 1,7 km/h (1 Bft) NO 53 ° 0 min 0,025 mm 0,0 UV-I 0 W/m² 6,3 °C 10,7 °C 3,2 km/h (1 Bft)
05.11.2018 05:01 10,8 °C 74 % 1009,7 hPa 0,0 mm 0,3 km/h (0 Bft) O-SO 117 ° 0 min 0,000 mm 0,0 UV-I 0 W/m² 6,4 °C 10,8 °C 1,6 km/h (1 Bft)
05.11.2018 05:02 10,8 °C 74 % 1009,7 hPa 0,0 mm 0,0 km/h (0 Bft) O-SO 117 ° 0 min 0,000 mm 0,0 UV-I 0 W/m² 6,4 °C 10,8 °C 0,0 km/h (0 Bft)
05.11.2018 05:03 10,8 °C 74 % 1009,7 hPa 0,0 mm 1,9 km/h (1 Bft) O-SO 117 ° 0 min 0,000 mm 0,0 UV-I 0 W/m² 6,4 °C 10,8 °C 3,2 km/h (1 Bft)
05.11.2018 05:04 10,8 °C 73 % 1009,7 hPa 0,0 mm 2,0 km/h (1 Bft) S-SW 194 ° 0 min 0,000 mm 0,0 UV-I 0 W/m² 6,2 °C 10,8 °C 4,8 km/h (1 Bft)
05.11.2018 05:05 10,8 °C 73 % 1009,7 hPa 0,0 mm 3,6 km/h (1 Bft) S-SW 206 ° 0 min 0,000 mm 0,0 UV-I 0 W/m² 6,2 °C 10,8 °C 4,8 km/h (1 Bft)
05.11.2018 05:06 10,8 °C 73 % 1009,7 hPa 0,0 mm 1,9 km/h (1 Bft) SW 214 ° 0 min 0,000 mm 0,0 UV-I 0 W/m² 6,2 °C 10,8 °C 3,2 km/h (1 Bft)
05.11.2018 05:07 10,8 °C 73 % 1009,7 hPa 0,0 mm 2,8 km/h (1 Bft) SW 215 ° 0 min 0,000 mm 0,0 UV-I 0 W/m² 6,2 °C 10,8 °C 4,8 km/h (1 Bft)
05.11.2018 05:08 10,8 °C 73 % 1009,7 hPa 0,0 mm 2,8 km/h (1 Bft) SW 225 ° 0 min 0,000 mm 0,0 UV-I 0 W/m² 6,2 °C 10,8 °C 4,8 km/h (1 Bft)
05.11.2018 05:09 10,7 °C 74 % 1009,7 hPa 0,0 mm 0,8 km/h (0 Bft) SW 225 ° 0 min 0,000 mm 0,0 UV-I 0 W/m² 6,3 °C 10,7 °C 3,2 km/h (1 Bft)
05.11.2018 05:10 10,6 °C 74 % 1009,6 hPa 0,0 mm 0,1 km/h (0 Bft) SW 225 ° 0 min 0,000 mm 0,0 UV-I 0 W/m² 6,2 °C 10,6 °C 1,6 km/h (1 Bft)
05.11.2018 05:11 10,5 °C 75 % 1009,6 hPa 0,0 mm 0,0 km/h (0 Bft) SW 225 ° 0 min 0,000 mm 0,0 UV-I 0 W/m² 6,3 °C 10,5 °C 0,0 km/h (0 Bft)
05.11.2018 05:12 10,4 °C 75 % 1009,5 hPa 0,0 mm 0,0 km/h (0 Bft) SW 225 ° 0 min 0,000 mm 0,0 UV-I 0 W/m² 6,2 °C 10,4 °C 0,0 km/h (0 Bft)
05.11.2018 05:13 10,3 °C 76 % 1009,5 hPa 0,0 mm 0,0 km/h (0 Bft) SW 225 ° 0 min 0,000 mm 0,0 UV-I 0 W/m² 6,3 °C 10,3 °C 0,0 km/h (0 Bft)
05.11.2018 05:14 10,2 °C 77 % 1009,4 hPa 0,0 mm 0,2 km/h (0 Bft) S-SW 196 ° 0 min 0,000 mm 0,0 UV-I 0 W/m² 6,4 °C 10,2 °C 1,6 km/h (1 Bft)
05.11.2018 05:15 10,1 °C 78 % 1009,5 hPa 0,0 mm 1,0 km/h (0 Bft) S-SW 196 ° 0 min 0,000 mm 0,0 UV-I 0 W/m² 6,4 °C 10,1 °C 3,2 km/h (1 Bft)
05.11.2018 05:16 9,9 °C 79 % 1009,4 hPa 0,0 mm 1,7 km/h (1 Bft) S-SW 196 ° 0 min 0,000 mm 0,0 UV-I 0 W/m² 6,4 °C 9,9 °C 3,2 km/h (1 Bft)
05.11.2018 05:17 9,8 °C 78 % 1009,4 hPa 0,0 mm 0,6 km/h (0 Bft) S-SW 196 ° 0 min 0,000 mm 0,0 UV-I 0 W/m² 6,1 °C 9,8 °C 1,6 km/h (1 Bft)
05.11.2018 05:18 9,9 °C 78 % 1009,4 hPa 0,0 mm 0,0 km/h (0 Bft) S-SW 196 ° 0 min 0,000 mm 0,0 UV-I 0 W/m² 6,2 °C 9,9 °C 0,0 km/h (0 Bft)
05.11.2018 05:19 9,9 °C 77 % 1009,4 hPa 0,0 mm 0,0 km/h (0 Bft) S-SW 196 ° 0 min 0,000 mm 0,0 UV-I 0 W/m² 6,1 °C 9,9 °C 0,0 km/h (0 Bft)
05.11.2018 05:20 9,9 °C 77 % 1009,5 hPa 0,0 mm 0,0 km/h (0 Bft) S-SW 196 ° 0 min 0,000 mm 0,0 UV-I 0 W/m² 6,1 °C 9,9 °C 0,0 km/h (0 Bft)
05.11.2018 05:21 10,0 °C 77 % 1009,5 hPa 0,0 mm 0,0 km/h (0 Bft) S-SW 196 ° 0 min 0,000 mm 0,0 UV-I 0 W/m² 6,2 °C 10,0 °C 0,0 km/h (0 Bft)
05.11.2018 05:22 9,9 °C 77 % 1009,5 hPa 0,0 mm 0,0 km/h (0 Bft) S-SW 196 ° 0 min 0,000 mm 0,0 UV-I 0 W/m² 6,1 °C 9,9 °C 0,0 km/h (0 Bft)
05.11.2018 05:23 9,9 °C 77 % 1009,4 hPa 0,0 mm 0,0 km/h (0 Bft) S-SW 196 ° 0 min 0,000 mm 0,0 UV-I 0 W/m² 6,1 °C 9,9 °C 0,0 km/h (0 Bft)
05.11.2018 05:24 9,8 °C 77 % 1009,4 hPa 0,0 mm 0,0 km/h (0 Bft) S-SW 196 ° 0 min 0,000 mm 0,0 UV-I 0 W/m² 6,0 °C 9,8 °C 0,0 km/h (0 Bft)
05.11.2018 05:25 9,9 °C 77 % 1009,3 hPa 0,0 mm 0,0 km/h (0 Bft) S-SW 196 ° 0 min 0,000 mm 0,0 UV-I 0 W/m² 6,1 °C 9,9 °C 0,0 km/h (0 Bft)
05.11.2018 05:26 9,9 °C 77 % 1009,4 hPa 0,0 mm 0,0 km/h (0 Bft) S-SW 196 ° 0 min 0,000 mm 0,0 UV-I 0 W/m² 6,1 °C 9,9 °C 0,0 km/h (0 Bft)
05.11.2018 05:27 10,0 °C 77 % 1009,3 hPa 0,0 mm 0,0 km/h (0 Bft) S-SW 196 ° 0 min 0,000 mm 0,0 UV-I 0 W/m² 6,2 °C 10,0 °C 0,0 km/h (0 Bft)
05.11.2018 05:28 10,1 °C 78 % 1009,3 hPa 0,0 mm 0,1 km/h (0 Bft) S 182 ° 0 min 0,000 mm 0,0 UV-I 0 W/m² 6,4 °C 10,1 °C 1,6 km/h (1 Bft)
05.11.2018 05:29 10,1 °C 78 % 1009,3 hPa 0,0 mm 1,9 km/h (1 Bft) S 181 ° 0 min 0,000 mm 0,0 UV-I 0 W/m² 6,4 °C 10,1 °C 3,2 km/h (1 Bft)
05.11.2018 05:30 10,0 °C 78 % 1009,3 hPa 0,0 mm 1,4 km/h (1 Bft) S 181 ° 0 min 0,000 mm 0,0 UV-I 0 W/m² 6,3 °C 10,0 °C 3,2 km/h (1 Bft)
05.11.2018 05:31 9,9 °C 78 % 1009,3 hPa 0,0 mm 1,5 km/h (1 Bft) SO 144 ° 0 min 0,000 mm 0,0 UV-I 0 W/m² 6,2 °C 9,9 °C 3,2 km/h (1 Bft)
05.11.2018 05:32 9,9 °C 79 % 1009,3 hPa 0,0 mm 2,3 km/h (1 Bft) O-SO 117 ° 0 min 0,000 mm 0,0 UV-I 0 W/m² 6,4 °C 9,9 °C 4,8 km/h (1 Bft)
05.11.2018 05:33 9,8 °C 79 % 1009,2 hPa 0,0 mm 4,3 km/h (1 Bft) O-NO 73 ° 0 min 0,000 mm 0,0 UV-I 0 W/m² 6,3 °C 9,8 °C 6,4 km/h (2 Bft)
05.11.2018 05:34 9,8 °C 79 % 1009,2 hPa 0,0 mm 3,0 km/h (1 Bft) O 82 ° 0 min 0,000 mm 0,0 UV-I 0 W/m² 6,3 °C 9,8 °C 4,8 km/h (1 Bft)
05.11.2018 05:35 9,8 °C 79 % 1009,2 hPa 0,0 mm 3,4 km/h (1 Bft) O 86 ° 0 min 0,000 mm 0,0 UV-I 0 W/m² 6,3 °C 9,8 °C 4,8 km/h (1 Bft)
05.11.2018 05:36 9,8 °C 78 % 1009,2 hPa 0,0 mm 2,7 km/h (1 Bft) O 91 ° 0 min 0,000 mm 0,0 UV-I 0 W/m² 6,1 °C 9,8 °C 4,8 km/h (1 Bft)
05.11.2018 05:37 9,9 °C 77 % 1009,1 hPa 0,0 mm 1,7 km/h (1 Bft) O 91 ° 0 min 0,000 mm 0,0 UV-I 0 W/m² 6,1 °C 9,9 °C 3,2 km/h (1 Bft)
05.11.2018 05:38 10,1 °C 77 % 1009,1 hPa 0,0 mm 0,1 km/h (0 Bft) O 91 ° 0 min 0,000 mm 0,0 UV-I 0 W/m² 6,3 °C 10,1 °C 1,6 km/h (1 Bft)
05.11.2018 05:39 10,1 °C 78 % 1009,1 hPa 0,0 mm 2,6 km/h (1 Bft) O-NO 78 ° 0 min 0,000 mm 0,0 UV-I 0 W/m² 6,4 °C 10,1 °C 4,8 km/h (1 Bft)
05.11.2018 05:40 10,2 °C 77 % 1009,0 hPa 0,0 mm 4,8 km/h (1 Bft) O 90 ° 0 min 0,000 mm 0,0 UV-I 0 W/m² 6,4 °C 10,2 °C 9,7 km/h (2 Bft)
05.11.2018 05:41 10,3 °C 77 % 1009,0 hPa 0,0 mm 3,9 km/h (1 Bft) O 79 ° 0 min 0,000 mm 0,0 UV-I 0 W/m² 6,4 °C 10,3 °C 4,8 km/h (1 Bft)
05.11.2018 05:42 10,3 °C 77 % 1009,0 hPa 0,0 mm 3,0 km/h (1 Bft) O 79 ° 0 min 0,000 mm 0,0 UV-I 0 W/m² 6,4 °C 10,3 °C 4,8 km/h (1 Bft)
05.11.2018 05:43 10,3 °C 77 % 1009,0 hPa 0,0 mm 1,5 km/h (1 Bft) O 79 ° 0 min 0,000 mm 0,0 UV-I 0 W/m² 6,4 °C 10,3 °C 3,2 km/h (1 Bft)
05.11.2018 05:44 10,4 °C 76 % 1009,0 hPa 0,0 mm 0,9 km/h (0 Bft) O 79 ° 0 min 0,000 mm 0,0 UV-I 0 W/m² 6,4 °C 10,4 °C 1,6 km/h (1 Bft)
05.11.2018 05:45 10,4 °C 75 % 1009,1 hPa 0,0 mm 0,5 km/h (0 Bft) O 79 ° 0 min 0,000 mm 0,0 UV-I 0 W/m² 6,2 °C 10,4 °C 1,6 km/h (1 Bft)
05.11.2018 05:46 10,4 °C 75 % 1009,0 hPa 0,0 mm 0,1 km/h (0 Bft) O 79 ° 0 min 0,000 mm 0,0 UV-I 0 W/m² 6,2 °C 10,4 °C 1,6 km/h (1 Bft)
05.11.2018 05:47 10,4 °C 75 % 1009,1 hPa 0,0 mm 0,0 km/h (0 Bft) O 79 ° 0 min 0,000 mm 0,0 UV-I 0 W/m² 6,2 °C 10,4 °C 0,0 km/h (0 Bft)
05.11.2018 05:48 10,4 °C 75 % 1009,1 hPa 0,0 mm 0,3 km/h (0 Bft) O 79 ° 0 min 0,000 mm 0,0 UV-I 0 W/m² 6,2 °C 10,4 °C 1,6 km/h (1 Bft)
05.11.2018 05:49 10,4 °C 75 % 1009,0 hPa 0,0 mm 0,0 km/h (0 Bft) O 79 ° 0 min 0,000 mm 0,0 UV-I 0 W/m² 6,2 °C 10,4 °C 0,0 km/h (0 Bft)
05.11.2018 05:50 10,3 °C 76 % 1009,1 hPa 0,0 mm 1,8 km/h (1 Bft) O-NO 76 ° 0 min 0,000 mm 0,0 UV-I 0 W/m² 6,3 °C 10,3 °C 3,2 km/h (1 Bft)
05.11.2018 05:51 10,3 °C 76 % 1009,0 hPa 0,0 mm 0,9 km/h (0 Bft) O 87 ° 0 min 0,000 mm 0,0 UV-I 0 W/m² 6,3 °C 10,3 °C 3,2 km/h (1 Bft)
05.11.2018 05:52 10,2 °C 76 % 1009,0 hPa 0,0 mm 2,0 km/h (1 Bft) SO 132 ° 0 min 0,000 mm 0,0 UV-I 0 W/m² 6,2 °C 10,2 °C 4,8 km/h (1 Bft)
05.11.2018 05:53 10,2 °C 77 % 1009,0 hPa 0,0 mm 1,8 km/h (1 Bft) O-SO 117 ° 0 min 0,000 mm 0,0 UV-I 0 W/m² 6,4 °C 10,2 °C 3,2 km/h (1 Bft)
05.11.2018 05:54 10,2 °C 77 % 1008,9 hPa 0,0 mm 0,6 km/h (0 Bft) O-SO 119 ° 0 min 0,000 mm 0,0 UV-I 0 W/m² 6,4 °C 10,2 °C 3,2 km/h (1 Bft)
05.11.2018 05:55 10,2 °C 76 % 1008,9 hPa 0,0 mm 0,3 km/h (0 Bft) O-SO 119 ° 0 min 0,000 mm 0,0 UV-I 0 W/m² 6,2 °C 10,2 °C 1,6 km/h (1 Bft)
05.11.2018 05:56 10,3 °C 76 % 1008,9 hPa 0,0 mm 0,1 km/h (0 Bft) O-SO 119 ° 0 min 0,000 mm 0,0 UV-I 0 W/m² 6,3 °C 10,3 °C 1,6 km/h (1 Bft)
05.11.2018 05:57 10,4 °C 75 % 1008,9 hPa 0,0 mm 0,8 km/h (0 Bft) O-SO 119 ° 0 min 0,000 mm 0,0 UV-I 0 W/m² 6,2 °C 10,4 °C 3,2 km/h (1 Bft)
05.11.2018 05:58 10,6 °C 76 % 1008,9 hPa 0,0 mm 1,0 km/h (0 Bft) O-SO 119 ° 0 min 0,000 mm 0,0 UV-I 0 W/m² 6,5 °C 10,6 °C 1,6 km/h (1 Bft)
05.11.2018 05:59 10,6 °C 75 % 1009,0 hPa 0,0 mm 0,3 km/h (0 Bft) O-SO 119 ° 0 min 0,000 mm 0,0 UV-I 0 W/m² 6,4 °C 10,6 °C 1,6 km/h (1 Bft)
05.11.2018 06:00 10,7 °C 74 % 1009,1 hPa 0,0 mm 0,0 km/h (0 Bft) O-SO 119 ° 0 min 0,026 mm 0,0 UV-I 0 W/m² 6,3 °C 10,7 °C 0,0 km/h (0 Bft)
05.11.2018 06:01 10,8 °C 74 % 1009,0 hPa 0,0 mm 0,0 km/h (0 Bft) O-SO 119 ° 0 min 0,000 mm 0,0 UV-I 0 W/m² 6,4 °C 10,8 °C 0,0 km/h (0 Bft)
05.11.2018 06:02 10,6 °C 74 % 1009,0 hPa 0,0 mm 0,8 km/h (0 Bft) O-SO 119 ° 0 min 0,000 mm 0,0 UV-I 0 W/m² 6,2 °C 10,6 °C 1,6 km/h (1 Bft)
05.11.2018 06:03 10,4 °C 75 % 1009,0 hPa 0,0 mm 0,0 km/h (0 Bft) O-SO 119 ° 0 min 0,000 mm 0,0 UV-I 0 W/m² 6,2 °C 10,4 °C 0,0 km/h (0 Bft)
05.11.2018 06:04 10,3 °C 75 % 1008,9 hPa 0,0 mm 0,0 km/h (0 Bft) O-SO 119 ° 0 min 0,000 mm 0,0 UV-I 0 W/m² 6,1 °C 10,3 °C 0,0 km/h (0 Bft)
05.11.2018 06:05 10,2 °C 76 % 1008,9 hPa 0,0 mm 0,8 km/h (0 Bft) O-SO 119 ° 0 min 0,000 mm 0,0 UV-I 0 W/m² 6,2 °C 10,2 °C 1,6 km/h (1 Bft)
05.11.2018 06:06 10,1 °C 77 % 1008,9 hPa 0,0 mm 1,5 km/h (1 Bft) O-SO 119 ° 0 min 0,000 mm 0,0 UV-I 0 W/m² 6,3 °C 10,1 °C 3,2 km/h (1 Bft)
05.11.2018 06:07 10,0 °C 77 % 1008,9 hPa 0,0 mm 0,2 km/h (0 Bft) O-SO 119 ° 0 min 0,000 mm 0,0 UV-I 0 W/m² 6,2 °C 10,0 °C 1,6 km/h (1 Bft)
05.11.2018 06:08 9,9 °C 77 % 1008,9 hPa 0,0 mm 0,2 km/h (0 Bft) O-SO 119 ° 0 min 0,000 mm 0,0 UV-I 0 W/m² 6,1 °C 9,9 °C 1,6 km/h (1 Bft)
05.11.2018 06:09 9,9 °C 77 % 1008,9 hPa 0,0 mm 0,3 km/h (0 Bft) O-SO 119 ° 0 min 0,000 mm 0,0 UV-I 0 W/m² 6,1 °C 9,9 °C 1,6 km/h (1 Bft)
05.11.2018 06:10 9,9 °C 77 % 1009,0 hPa 0,0 mm 0,0 km/h (0 Bft) O-SO 119 ° 0 min 0,000 mm 0,0 UV-I 0 W/m² 6,1 °C 9,9 °C 0,0 km/h (0 Bft)
05.11.2018 06:11 9,9 °C 77 % 1009,0 hPa 0,0 mm 1,1 km/h (1 Bft) O-SO 119 ° 0 min 0,000 mm 0,0 UV-I 0 W/m² 6,1 °C 9,9 °C 3,2 km/h (1 Bft)
05.11.2018 06:12 9,9 °C 77 % 1009,0 hPa 0,0 mm 0,1 km/h (0 Bft) O-SO 119 ° 0 min 0,000 mm 0,0 UV-I 0 W/m² 6,1 °C 9,9 °C 1,6 km/h (1 Bft)
05.11.2018 06:13 10,0 °C 77 % 1009,0 hPa 0,0 mm 2,7 km/h (1 Bft) O-SO 118 ° 0 min 0,000 mm 0,0 UV-I 0 W/m² 6,2 °C 10,0 °C 4,8 km/h (1 Bft)
05.11.2018 06:14 9,9 °C 78 % 1009,0 hPa 0,0 mm 2,3 km/h (1 Bft) O-NO 68 ° 0 min 0,000 mm 0,0 UV-I 0 W/m² 6,2 °C 9,9 °C 4,8 km/h (1 Bft)
05.11.2018 06:15 9,8 °C 79 % 1009,0 hPa 0,0 mm 1,9 km/h (1 Bft) O-NO 67 ° 0 min 0,000 mm 0,0 UV-I 0 W/m² 6,3 °C 9,8 °C 3,2 km/h (1 Bft)
05.11.2018 06:16 9,8 °C 78 % 1009,0 hPa 0,0 mm 2,1 km/h (1 Bft) O-NO 67 ° 0 min 0,000 mm 0,0 UV-I 0 W/m² 6,1 °C 9,8 °C 3,2 km/h (1 Bft)
05.11.2018 06:17 9,8 °C 78 % 1008,9 hPa 0,0 mm 1,2 km/h (1 Bft) O-NO 67 ° 0 min 0,000 mm 0,0 UV-I 0 W/m² 6,1 °C 9,8 °C 1,6 km/h (1 Bft)
05.11.2018 06:18 9,8 °C 78 % 1008,9 hPa 0,0 mm 1,1 km/h (1 Bft) O-NO 67 ° 0 min 0,000 mm 0,0 UV-I 0 W/m² 6,1 °C 9,8 °C 3,2 km/h (1 Bft)
05.11.2018 06:19 9,7 °C 78 % 1008,9 hPa 0,0 mm 1,0 km/h (0 Bft) O-NO 67 ° 0 min 0,000 mm 0,0 UV-I 0 W/m² 6,1 °C 9,7 °C 1,6 km/h (1 Bft)
05.11.2018 06:20 9,7 °C 78 % 1008,9 hPa 0,0 mm 0,3 km/h (0 Bft) O-NO 67 ° 0 min 0,000 mm 0,0 UV-I 0 W/m² 6,1 °C 9,7 °C 1,6 km/h (1 Bft)
05.11.2018 06:21 9,7 °C 78 % 1008,9 hPa 0,0 mm 0,0 km/h (0 Bft) O-NO 67 ° 0 min 0,000 mm 0,0 UV-I 0 W/m² 6,1 °C 9,7 °C 0,0 km/h (0 Bft)
05.11.2018 06:22 9,6 °C 78 % 1008,9 hPa 0,0 mm 0,0 km/h (0 Bft) O-NO 67 ° 0 min 0,000 mm 0,0 UV-I 0 W/m² 6,0 °C 9,6 °C 0,0 km/h (0 Bft)
05.11.2018 06:23 9,6 °C 78 % 1008,9 hPa 0,0 mm 0,1 km/h (0 Bft) O-NO 67 ° 0 min 0,000 mm 0,0 UV-I 0 W/m² 6,0 °C 9,6 °C 1,6 km/h (1 Bft)
05.11.2018 06:24 9,6 °C 78 % 1009,0 hPa 0,0 mm 0,0 km/h (0 Bft) O-NO 67 ° 0 min 0,000 mm 0,0 UV-I 0 W/m² 6,0 °C 9,6 °C 0,0 km/h (0 Bft)
05.11.2018 06:25 9,6 °C 78 % 1009,0 hPa 0,0 mm 0,0 km/h (0 Bft) O-NO 67 ° 0 min 0,000 mm 0,0 UV-I 0 W/m² 6,0 °C 9,6 °C 0,0 km/h (0 Bft)
05.11.2018 06:26 9,6 °C 78 % 1009,0 hPa 0,0 mm 0,0 km/h (0 Bft) O-NO 67 ° 0 min 0,000 mm 0,0 UV-I 0 W/m² 6,0 °C 9,6 °C 0,0 km/h (0 Bft)
05.11.2018 06:27 9,6 °C 78 % 1009,0 hPa 0,0 mm 0,0 km/h (0 Bft) O-NO 67 ° 0 min 0,000 mm 0,0 UV-I 0 W/m² 6,0 °C 9,6 °C 0,0 km/h (0 Bft)
05.11.2018 06:28 9,7 °C 77 % 1008,8 hPa 0,0 mm 0,0 km/h (0 Bft) O-NO 67 ° 0 min 0,000 mm 0,0 UV-I 0 W/m² 5,9 °C 9,7 °C 0,0 km/h (0 Bft)
05.11.2018 06:29 9,8 °C 77 % 1008,8 hPa 0,0 mm 0,0 km/h (0 Bft) O-NO 67 ° 0 min 0,000 mm 0,0 UV-I 0 W/m² 6,0 °C 9,8 °C 0,0 km/h (0 Bft)
05.11.2018 06:30 9,9 °C 77 % 1008,8 hPa 0,0 mm 0,0 km/h (0 Bft) O-NO 67 ° 0 min 0,000 mm 0,0 UV-I 0 W/m² 6,1 °C 9,9 °C 0,0 km/h (0 Bft)
05.11.2018 06:31 9,9 °C 76 % 1008,8 hPa 0,0 mm 0,0 km/h (0 Bft) O-NO 67 ° 0 min 0,000 mm 0,0 UV-I 0 W/m² 5,9 °C 9,9 °C 0,0 km/h (0 Bft)
05.11.2018 06:32 9,8 °C 77 % 1008,8 hPa 0,0 mm 0,0 km/h (0 Bft) O-NO 67 ° 0 min 0,000 mm 0,0 UV-I 0 W/m² 6,0 °C 9,8 °C 0,0 km/h (0 Bft)
05.11.2018 06:33 9,8 °C 77 % 1008,8 hPa 0,0 mm 0,0 km/h (0 Bft) O-NO 67 ° 0 min 0,000 mm 0,0 UV-I 0 W/m² 6,0 °C 9,8 °C 0,0 km/h (0 Bft)
05.11.2018 06:34 9,7 °C 77 % 1008,7 hPa 0,0 mm 0,0 km/h (0 Bft) O-NO 67 ° 0 min 0,000 mm 0,0 UV-I 0 W/m² 5,9 °C 9,7 °C 0,0 km/h (0 Bft)
05.11.2018 06:35 9,6 °C 77 % 1008,7 hPa 0,0 mm 0,0 km/h (0 Bft) O-NO 67 ° 0 min 0,000 mm 0,0 UV-I 0 W/m² 5,8 °C 9,6 °C 0,0 km/h (0 Bft)
05.11.2018 06:36 9,6 °C 77 % 1008,7 hPa 0,0 mm 0,7 km/h (0 Bft) O-NO 67 ° 0 min 0,000 mm 0,0 UV-I 0 W/m² 5,8 °C 9,6 °C 3,2 km/h (1 Bft)
05.11.2018 06:37 9,6 °C 77 % 1008,7 hPa 0,0 mm 0,1 km/h (0 Bft) O-NO 67 ° 0 min 0,000 mm 0,0 UV-I 0 W/m² 5,8 °C 9,6 °C 1,6 km/h (1 Bft)
05.11.2018 06:38 9,6 °C 76 % 1008,7 hPa 0,0 mm 0,1 km/h (0 Bft) O-NO 67 ° 0 min 0,000 mm 0,0 UV-I 0 W/m² 5,6 °C 9,6 °C 1,6 km/h (1 Bft)
05.11.2018 06:39 9,7 °C 76 % 1008,7 hPa 0,0 mm 0,0 km/h (0 Bft) O-NO 67 ° 0 min 0,000 mm 0,0 UV-I 0 W/m² 5,7 °C 9,7 °C 0,0 km/h (0 Bft)
05.11.2018 06:40 9,7 °C 76 % 1008,7 hPa 0,0 mm 0,0 km/h (0 Bft) O-NO 67 ° 0 min 0,000 mm 0,0 UV-I 0 W/m² 5,7 °C 9,7 °C 0,0 km/h (0 Bft)
05.11.2018 06:41 9,8 °C 76 % 1008,8 hPa 0,0 mm 0,3 km/h (0 Bft) O-NO 67 ° 0 min 0,000 mm 0,0 UV-I 0 W/m² 5,8 °C 9,8 °C 1,6 km/h (1 Bft)
05.11.2018 06:42 9,9 °C 76 % 1008,8 hPa 0,0 mm 0,9 km/h (0 Bft) O-NO 67 ° 0 min 0,000 mm 0,0 UV-I 0 W/m² 5,9 °C 9,9 °C 3,2 km/h (1 Bft)
05.11.2018 06:43 9,9 °C 75 % 1008,8 hPa 0,0 mm 0,1 km/h (0 Bft) O-NO 67 ° 0 min 0,000 mm 0,0 UV-I 0 W/m² 5,7 °C 9,9 °C 1,6 km/h (1 Bft)
05.11.2018 06:44 9,9 °C 76 % 1008,8 hPa 0,0 mm 0,1 km/h (0 Bft) O-NO 67 ° 0 min 0,000 mm 0,0 UV-I 0 W/m² 5,9 °C 9,9 °C 1,6 km/h (1 Bft)
05.11.2018 06:45 9,9 °C 76 % 1008,8 hPa 0,0 mm 0,0 km/h (0 Bft) O-NO 67 ° 0 min 0,000 mm 0,0 UV-I 0 W/m² 5,9 °C 9,9 °C 0,0 km/h (0 Bft)
05.11.2018 06:46 9,8 °C 76 % 1008,8 hPa 0,0 mm 0,0 km/h (0 Bft) O-NO 67 ° 0 min 0,000 mm 0,0 UV-I 0 W/m² 5,8 °C 9,8 °C 0,0 km/h (0 Bft)
05.11.2018 06:47 9,8 °C 76 % 1008,8 hPa 0,0 mm 0,3 km/h (0 Bft) O-NO 67 ° 0 min 0,000 mm 0,0 UV-I 0 W/m² 5,8 °C 9,8 °C 1,6 km/h (1 Bft)
05.11.2018 06:48 9,8 °C 76 % 1008,7 hPa 0,0 mm 0,9 km/h (0 Bft) O-NO 67 ° 0 min 0,000 mm 0,0 UV-I 0 W/m² 5,8 °C 9,8 °C 3,2 km/h (1 Bft)
05.11.2018 06:49 9,7 °C 76 % 1008,7 hPa 0,0 mm 0,3 km/h (0 Bft) O-NO 67 ° 0 min 0,000 mm 0,0 UV-I 0 W/m² 5,7 °C 9,7 °C 1,6 km/h (1 Bft)
05.11.2018 06:50 9,8 °C 76 % 1008,7 hPa 0,0 mm 2,5 km/h (1 Bft) O-SO 115 ° 0 min 0,000 mm 0,0 UV-I 0 W/m² 5,8 °C 9,8 °C 6,4 km/h (2 Bft)
05.11.2018 06:51 9,9 °C 76 % 1008,8 hPa 0,0 mm 0,9 km/h (0 Bft) O-SO 115 ° 0 min 0,000 mm 0,0 UV-I 0 W/m² 5,9 °C 9,9 °C 3,2 km/h (1 Bft)
05.11.2018 06:52 10,0 °C 76 % 1008,8 hPa 0,0 mm 0,2 km/h (0 Bft) O-SO 115 ° 0 min 0,000 mm 0,0 UV-I 0 W/m² 6,0 °C 10,0 °C 1,6 km/h (1 Bft)
05.11.2018 06:53 10,0 °C 76 % 1008,8 hPa 0,0 mm 0,0 km/h (0 Bft) O-SO 115 ° 0 min 0,000 mm 0,0 UV-I 0 W/m² 6,0 °C 10,0 °C 0,0 km/h (0 Bft)
05.11.2018 06:54 10,1 °C 75 % 1008,8 hPa 0,0 mm 0,3 km/h (0 Bft) O-SO 115 ° 0 min 0,000 mm 0,0 UV-I 0 W/m² 5,9 °C 10,1 °C 1,6 km/h (1 Bft)
05.11.2018 06:55 10,2 °C 74 % 1008,8 hPa 0,0 mm 1,4 km/h (1 Bft) O-SO 115 ° 0 min 0,000 mm 0,0 UV-I 0 W/m² 5,8 °C 10,2 °C 3,2 km/h (1 Bft)
05.11.2018 06:56 10,2 °C 74 % 1008,9 hPa 0,0 mm 0,6 km/h (0 Bft) O-SO 115 ° 0 min 0,000 mm 0,0 UV-I 0 W/m² 5,8 °C 10,2 °C 1,6 km/h (1 Bft)
05.11.2018 06:57 10,3 °C 75 % 1008,9 hPa 0,0 mm 0,3 km/h (0 Bft) O-SO 115 ° 0 min 0,000 mm 0,0 UV-I 0 W/m² 6,1 °C 10,3 °C 1,6 km/h (1 Bft)
05.11.2018 06:58 10,3 °C 74 % 1009,0 hPa 0,0 mm 0,0 km/h (0 Bft) O-SO 115 ° 0 min 0,000 mm 0,0 UV-I 0 W/m² 5,9 °C 10,3 °C 0,0 km/h (0 Bft)
05.11.2018 06:59 10,5 °C 73 % 1009,0 hPa 0,0 mm 0,0 km/h (0 Bft) O-SO 115 ° 0 min 0,000 mm 0,0 UV-I 0 W/m² 5,9 °C 10,5 °C 0,0 km/h (0 Bft)
05.11.2018 07:00 10,6 °C 73 % 1009,0 hPa 0,0 mm 0,0 km/h (0 Bft) O-SO 115 ° 0 min 0,000 mm 0,0 UV-I 0 W/m² 6,0 °C 10,6 °C 0,0 km/h (0 Bft)
05.11.2018 07:01 10,6 °C 73 % 1009,0 hPa 0,0 mm 0,4 km/h (0 Bft) O-SO 115 ° 0 min 0,000 mm 0,0 UV-I 0 W/m² 6,0 °C 10,6 °C 3,2 km/h (1 Bft)
05.11.2018 07:02 10,6 °C 74 % 1009,0 hPa 0,0 mm 1,1 km/h (1 Bft) O-SO 115 ° 0 min 0,000 mm 0,0 UV-I 0 W/m² 6,2 °C 10,6 °C 3,2 km/h (1 Bft)
05.11.2018 07:03 10,6 °C 73 % 1009,0 hPa 0,0 mm 0,1 km/h (0 Bft) O-SO 115 ° 0 min 0,000 mm 0,0 UV-I 0 W/m² 6,0 °C 10,6 °C 1,6 km/h (1 Bft)
05.11.2018 07:04 10,4 °C 73 % 1009,0 hPa 0,0 mm 0,0 km/h (0 Bft) O-SO 115 ° 0 min 0,000 mm 0,0 UV-I 0 W/m² 5,8 °C 10,4 °C 0,0 km/h (0 Bft)
05.11.2018 07:05 10,5 °C 73 % 1009,0 hPa 0,0 mm 0,7 km/h (0 Bft) O-SO 115 ° 0 min 0,000 mm 0,0 UV-I 0 W/m² 5,9 °C 10,5 °C 3,2 km/h (1 Bft)
05.11.2018 07:06 10,5 °C 73 % 1008,9 hPa 0,0 mm 0,1 km/h (0 Bft) O-SO 115 ° 0 min 0,000 mm 0,0 UV-I 0 W/m² 5,9 °C 10,5 °C 1,6 km/h (1 Bft)
05.11.2018 07:07 10,5 °C 73 % 1008,9 hPa 0,0 mm 0,0 km/h (0 Bft) O-SO 115 ° 0 min 0,000 mm 0,0 UV-I 0 W/m² 5,9 °C 10,5 °C 0,0 km/h (0 Bft)
05.11.2018 07:08 10,6 °C 72 % 1008,9 hPa 0,0 mm 0,0 km/h (0 Bft) O-SO 115 ° 0 min 0,000 mm 0,0 UV-I 0 W/m² 5,8 °C 10,6 °C 0,0 km/h (0 Bft)
05.11.2018 07:09 10,6 °C 72 % 1008,9 hPa 0,0 mm 0,0 km/h (0 Bft) O-SO 115 ° 0 min 0,000 mm 0,0 UV-I 0 W/m² 5,8 °C 10,6 °C 0,0 km/h (0 Bft)
05.11.2018 07:10 10,7 °C 71 % 1008,9 hPa 0,0 mm 0,0 km/h (0 Bft) O-SO 115 ° 0 min 0,000 mm 0,0 UV-I 5 W/m² 5,7 °C 10,7 °C 0,0 km/h (0 Bft)
05.11.2018 07:11 10,8 °C 71 % 1008,9 hPa 0,0 mm 0,4 km/h (0 Bft) O-SO 115 ° 0 min 0,000 mm 0,0 UV-I 5 W/m² 5,8 °C 10,8 °C 1,6 km/h (1 Bft)
05.11.2018 07:12 10,9 °C 72 % 1008,9 hPa 0,0 mm 0,2 km/h (0 Bft) O-SO 115 ° 0 min 0,000 mm 0,0 UV-I 5 W/m² 6,1 °C 10,9 °C 1,6 km/h (1 Bft)
05.11.2018 07:13 10,9 °C 71 % 1008,9 hPa 0,0 mm 2,4 km/h (1 Bft) O-SO 115 ° 0 min 0,000 mm 0,0 UV-I 5 W/m² 5,9 °C 10,9 °C 3,2 km/h (1 Bft)
05.11.2018 07:14 10,8 °C 71 % 1008,9 hPa 0,0 mm 0,7 km/h (0 Bft) O-SO 115 ° 0 min 0,000 mm 0,0 UV-I 5 W/m² 5,8 °C 10,8 °C 1,6 km/h (1 Bft)
05.11.2018 07:15 10,8 °C 71 % 1008,9 hPa 0,0 mm 1,5 km/h (1 Bft) O-SO 115 ° 0 min 0,000 mm 0,0 UV-I 5 W/m² 5,8 °C 10,8 °C 1,6 km/h (1 Bft)
05.11.2018 07:16 10,9 °C 71 % 1008,9 hPa 0,0 mm 0,3 km/h (0 Bft) O-SO 115 ° 0 min 0,000 mm 0,0 UV-I 5 W/m² 5,9 °C 10,9 °C 1,6 km/h (1 Bft)
05.11.2018 07:17 10,9 °C 71 % 1008,9 hPa 0,0 mm 0,4 km/h (0 Bft) O-SO 115 ° 0 min 0,000 mm 0,0 UV-I 5 W/m² 5,9 °C 10,9 °C 1,6 km/h (1 Bft)
05.11.2018 07:18 10,9 °C 71 % 1008,9 hPa 0,0 mm 0,2 km/h (0 Bft) O-SO 115 ° 0 min 0,000 mm 0,0 UV-I 7 W/m² 5,9 °C 10,9 °C 1,6 km/h (1 Bft)
05.11.2018 07:19 11,0 °C 70 % 1008,8 hPa 0,0 mm 0,0 km/h (0 Bft) O-SO 115 ° 0 min 0,000 mm 0,0 UV-I 7 W/m² 5,7 °C 11,0 °C 0,0 km/h (0 Bft)
05.11.2018 07:20 10,9 °C 70 % 1008,8 hPa 0,0 mm 0,0 km/h (0 Bft) O-SO 115 ° 0 min 0,000 mm 0,0 UV-I 7 W/m² 5,6 °C 10,9 °C 0,0 km/h (0 Bft)
05.11.2018 07:21 10,9 °C 72 % 1008,8 hPa 0,0 mm 0,4 km/h (0 Bft) O-SO 115 ° 0 min 0,000 mm 0,0 UV-I 11 W/m² 6,1 °C 10,9 °C 1,6 km/h (1 Bft)
05.11.2018 07:22 10,9 °C 72 % 1008,8 hPa 0,0 mm 1,0 km/h (0 Bft) O-SO 115 ° 0 min 0,000 mm 0,0 UV-I 11 W/m² 6,1 °C 10,9 °C 3,2 km/h (1 Bft)
05.11.2018 07:23 10,8 °C 72 % 1008,8 hPa 0,0 mm 0,1 km/h (0 Bft) O-SO 115 ° 0 min 0,000 mm 0,0 UV-I 11 W/m² 6,0 °C 10,8 °C 1,6 km/h (1 Bft)
05.11.2018 07:24 10,7 °C 73 % 1008,8 hPa 0,0 mm 0,0 km/h (0 Bft) O-SO 115 ° 0 min 0,000 mm 0,0 UV-I 11 W/m² 6,1 °C 10,7 °C 0,0 km/h (0 Bft)
05.11.2018 07:25 10,6 °C 72 % 1008,7 hPa 0,0 mm 0,0 km/h (0 Bft) O-SO 115 ° 0 min 0,000 mm 0,0 UV-I 12 W/m² 5,8 °C 10,6 °C 0,0 km/h (0 Bft)
05.11.2018 07:26 10,6 °C 72 % 1008,7 hPa 0,0 mm 0,1 km/h (0 Bft) O-SO 115 ° 0 min 0,000 mm 0,0 UV-I 12 W/m² 5,8 °C 10,6 °C 1,6 km/h (1 Bft)
05.11.2018 07:27 10,6 °C 71 % 1008,7 hPa 0,0 mm 0,3 km/h (0 Bft) O-SO 115 ° 0 min 0,000 mm 0,0 UV-I 14 W/m² 5,6 °C 10,6 °C 1,6 km/h (1 Bft)
05.11.2018 07:28 10,7 °C 71 % 1008,7 hPa 0,0 mm 0,1 km/h (0 Bft) O-SO 115 ° 0 min 0,000 mm 0,0 UV-I 14 W/m² 5,7 °C 10,7 °C 1,6 km/h (1 Bft)
05.11.2018 07:29 10,8 °C 71 % 1008,8 hPa 0,0 mm 0,0 km/h (0 Bft) O-SO 115 ° 0 min 0,000 mm 0,0 UV-I 14 W/m² 5,8 °C 10,8 °C 0,0 km/h (0 Bft)
05.11.2018 07:30 10,9 °C 71 % 1008,8 hPa 0,0 mm 0,0 km/h (0 Bft) O-SO 115 ° 0 min 0,000 mm 0,0 UV-I 16 W/m² 5,9 °C 10,9 °C 0,0 km/h (0 Bft)
05.11.2018 07:31 11,0 °C 71 % 1008,8 hPa 0,0 mm 0,0 km/h (0 Bft) O-SO 115 ° 0 min 0,000 mm 0,0 UV-I 16 W/m² 5,9 °C 11,0 °C 0,0 km/h (0 Bft)
05.11.2018 07:32 11,1 °C 69 % 1008,8 hPa 0,0 mm 0,0 km/h (0 Bft) O-SO 115 ° 0 min 0,000 mm 0,0 UV-I 16 W/m² 5,6 °C 11,1 °C 0,0 km/h (0 Bft)
05.11.2018 07:33 11,1 °C 70 % 1008,8 hPa 0,0 mm 0,0 km/h (0 Bft) O-SO 115 ° 0 min 0,000 mm 0,0 UV-I 18 W/m² 5,8 °C 11,1 °C 0,0 km/h (0 Bft)
05.11.2018 07:34 11,0 °C 70 % 1008,8 hPa 0,0 mm 0,0 km/h (0 Bft) O-SO 115 ° 0 min 0,000 mm 0,0 UV-I 19 W/m² 5,7 °C 11,0 °C 0,0 km/h (0 Bft)
05.11.2018 07:35 10,9 °C 71 % 1008,8 hPa 0,0 mm 0,0 km/h (0 Bft) O-SO 115 ° 0 min 0,000 mm 0,0 UV-I 21 W/m² 5,9 °C 10,9 °C 0,0 km/h (0 Bft)
05.11.2018 07:36 10,9 °C 71 % 1008,8 hPa 0,0 mm 0,0 km/h (0 Bft) O-SO 115 ° 0 min 0,000 mm 0,0 UV-I 21 W/m² 5,9 °C 10,9 °C 0,0 km/h (0 Bft)
05.11.2018 07:37 10,8 °C 72 % 1008,8 hPa 0,0 mm 0,0 km/h (0 Bft) O-SO 115 ° 0 min 0,000 mm 0,0 UV-I 23 W/m² 6,0 °C 10,8 °C 0,0 km/h (0 Bft)
05.11.2018 07:38 10,8 °C 74 % 1008,8 hPa 0,0 mm 0,9 km/h (0 Bft) O-SO 115 ° 0 min 0,000 mm 0,0 UV-I 23 W/m² 6,4 °C 10,8 °C 4,8 km/h (1 Bft)
05.11.2018 07:39 10,7 °C 74 % 1008,8 hPa 0,0 mm 3,0 km/h (1 Bft) O-SO 106 ° 0 min 0,000 mm 0,0 UV-I 25 W/m² 6,3 °C 10,7 °C 4,8 km/h (1 Bft)
05.11.2018 07:40 10,6 °C 74 % 1008,8 hPa 0,0 mm 1,5 km/h (1 Bft) O-SO 106 ° 0 min 0,000 mm 0,0 UV-I 25 W/m² 6,2 °C 10,6 °C 3,2 km/h (1 Bft)
05.11.2018 07:41 10,4 °C 74 % 1008,8 hPa 0,0 mm 2,2 km/h (1 Bft) O-SO 105 ° 0 min 0,000 mm 0,0 UV-I 23 W/m² 6,0 °C 10,4 °C 3,2 km/h (1 Bft)
05.11.2018 07:42 10,4 °C 74 % 1008,8 hPa 0,0 mm 2,7 km/h (1 Bft) O-SO 105 ° 0 min 0,000 mm 0,0 UV-I 23 W/m² 6,0 °C 10,4 °C 4,8 km/h (1 Bft)
05.11.2018 07:43 10,5 °C 74 % 1008,8 hPa 0,0 mm 3,7 km/h (1 Bft) O-SO 105 ° 0 min 0,000 mm 0,0 UV-I 25 W/m² 6,1 °C 10,5 °C 4,8 km/h (1 Bft)
05.11.2018 07:44 10,6 °C 74 % 1008,8 hPa 0,0 mm 2,5 km/h (1 Bft) O-SO 105 ° 0 min 0,000 mm 0,0 UV-I 25 W/m² 6,2 °C 10,6 °C 4,8 km/h (1 Bft)
05.11.2018 07:45 10,6 °C 74 % 1008,8 hPa 0,0 mm 3,6 km/h (1 Bft) O-NO 65 ° 0 min 0,000 mm 0,0 UV-I 25 W/m² 6,2 °C 10,6 °C 4,8 km/h (1 Bft)
05.11.2018 07:46 10,6 °C 74 % 1008,7 hPa 0,0 mm 2,4 km/h (1 Bft) SO 136 ° 0 min 0,000 mm 0,0 UV-I 23 W/m² 6,2 °C 10,6 °C 4,8 km/h (1 Bft)
05.11.2018 07:47 10,6 °C 74 % 1008,7 hPa 0,0 mm 0,8 km/h (0 Bft) SO 140 ° 0 min 0,000 mm 0,0 UV-I 23 W/m² 6,2 °C 10,6 °C 3,2 km/h (1 Bft)
05.11.2018 07:48 10,7 °C 72 % 1008,7 hPa 0,0 mm 0,0 km/h (0 Bft) SO 140 ° 0 min 0,000 mm 0,0 UV-I 25 W/m² 5,9 °C 10,7 °C 0,0 km/h (0 Bft)
05.11.2018 07:49 10,8 °C 71 % 1008,7 hPa 0,0 mm 0,0 km/h (0 Bft) SO 140 ° 0 min 0,000 mm 0,0 UV-I 25 W/m² 5,8 °C 10,8 °C 0,0 km/h (0 Bft)
05.11.2018 07:50 10,9 °C 72 % 1008,6 hPa 0,0 mm 0,0 km/h (0 Bft) SO 140 ° 0 min 0,000 mm 0,0 UV-I 26 W/m² 6,1 °C 10,9 °C 0,0 km/h (0 Bft)
05.11.2018 07:51 10,9 °C 72 % 1008,6 hPa 0,0 mm 0,0 km/h (0 Bft) SO 140 ° 0 min 0,000 mm 0,0 UV-I 26 W/m² 6,1 °C 10,9 °C 0,0 km/h (0 Bft)
05.11.2018 07:52 11,0 °C 71 % 1008,5 hPa 0,0 mm 0,0 km/h (0 Bft) SO 140 ° 0 min 0,000 mm 0,0 UV-I 26 W/m² 5,9 °C 11,0 °C 0,0 km/h (0 Bft)
05.11.2018 07:53 11,2 °C 70 % 1008,5 hPa 0,0 mm 0,0 km/h (0 Bft) SO 140 ° 0 min 0,000 mm 0,0 UV-I 25 W/m² 5,9 °C 11,2 °C 0,0 km/h (0 Bft)
05.11.2018 07:54 11,2 °C 72 % 1008,6 hPa 0,0 mm 0,0 km/h (0 Bft) SO 140 ° 0 min 0,000 mm 0,0 UV-I 25 W/m² 6,3 °C 11,2 °C 0,0 km/h (0 Bft)
05.11.2018 07:55 11,2 °C 72 % 1008,6 hPa 0,0 mm 0,1 km/h (0 Bft) SO 135 ° 0 min 0,000 mm 0,0 UV-I 25 W/m² 6,3 °C 11,2 °C 1,6 km/h (1 Bft)
05.11.2018 07:56 11,2 °C 72 % 1008,6 hPa 0,0 mm 2,8 km/h (1 Bft) O-SO 121 ° 0 min 0,000 mm 0,0 UV-I 25 W/m² 6,3 °C 11,2 °C 3,2 km/h (1 Bft)
05.11.2018 07:57 11,3 °C 71 % 1008,7 hPa 0,0 mm 1,1 km/h (1 Bft) O-SO 121 ° 0 min 0,000 mm 0,0 UV-I 25 W/m² 6,2 °C 11,3 °C 1,6 km/h (1 Bft)
05.11.2018 07:58 11,3 °C 71 % 1008,7 hPa 0,0 mm 3,8 km/h (1 Bft) O-NO 66 ° 0 min 0,000 mm 0,0 UV-I 26 W/m² 6,2 °C 11,3 °C 6,4 km/h (2 Bft)
05.11.2018 07:59 11,4 °C 70 % 1008,7 hPa 0,0 mm 2,6 km/h (1 Bft) O-NO 76 ° 0 min 0,000 mm 0,0 UV-I 26 W/m² 6,1 °C 11,4 °C 6,4 km/h (2 Bft)
05.11.2018 08:00 11,5 °C 71 % 1008,7 hPa 0,0 mm 1,5 km/h (1 Bft) O-NO 76 ° 0 min 0,000 mm 0,0 UV-I 26 W/m² 6,4 °C 11,5 °C 4,8 km/h (1 Bft)
05.11.2018 08:01 11,6 °C 70 % 1008,8 hPa 0,0 mm 4,3 km/h (1 Bft) O-NO 63 ° 0 min 0,025 mm 0,0 UV-I 26 W/m² 6,3 °C 11,6 °C 6,4 km/h (2 Bft)
05.11.2018 08:02 11,7 °C 70 % 1008,8 hPa 0,0 mm 1,8 km/h (1 Bft) O-NO 63 ° 0 min 0,000 mm 0,0 UV-I 28 W/m² 6,4 °C 11,7 °C 3,2 km/h (1 Bft)
05.11.2018 08:03 11,7 °C 70 % 1008,8 hPa 0,0 mm 0,3 km/h (0 Bft) O-NO 63 ° 0 min 0,000 mm 0,0 UV-I 28 W/m² 6,4 °C 11,7 °C 1,6 km/h (1 Bft)
05.11.2018 08:04 11,7 °C 70 % 1008,8 hPa 0,0 mm 1,0 km/h (0 Bft) O-NO 63 ° 0 min 0,000 mm 0,0 UV-I 32 W/m² 6,4 °C 11,7 °C 3,2 km/h (1 Bft)
05.11.2018 08:05 11,6 °C 69 % 1008,8 hPa 0,0 mm 0,0 km/h (0 Bft) O-NO 63 ° 0 min 0,000 mm 0,0 UV-I 33 W/m² 6,1 °C 11,6 °C 0,0 km/h (0 Bft)
05.11.2018 08:06 11,6 °C 69 % 1008,8 hPa 0,0 mm 0,0 km/h (0 Bft) O-NO 63 ° 0 min 0,000 mm 0,0 UV-I 35 W/m² 6,1 °C 11,6 °C 0,0 km/h (0 Bft)
05.11.2018 08:07 11,6 °C 69 % 1008,7 hPa 0,0 mm 1,0 km/h (0 Bft) O-NO 63 ° 0 min 0,000 mm 0,0 UV-I 37 W/m² 6,1 °C 11,6 °C 3,2 km/h (1 Bft)
05.11.2018 08:08 11,6 °C 69 % 1008,7 hPa 0,0 mm 2,0 km/h (1 Bft) W-NW 291 ° 0 min 0,000 mm 0,0 UV-I 42 W/m² 6,1 °C 11,6 °C 4,8 km/h (1 Bft)
05.11.2018 08:09 11,7 °C 69 % 1008,7 hPa 0,0 mm 2,0 km/h (1 Bft) W-NW 291 ° 0 min 0,000 mm 0,0 UV-I 44 W/m² 6,2 °C 11,7 °C 3,2 km/h (1 Bft)
05.11.2018 08:10 11,7 °C 69 % 1008,6 hPa 0,0 mm 0,8 km/h (0 Bft) W-NW 291 ° 0 min 0,000 mm 0,0 UV-I 47 W/m² 6,2 °C 11,7 °C 3,2 km/h (1 Bft)
05.11.2018 08:11 11,8 °C 69 % 1008,6 hPa 0,0 mm 0,0 km/h (0 Bft) W-NW 291 ° 0 min 0,000 mm 0,0 UV-I 49 W/m² 6,3 °C 11,8 °C 0,0 km/h (0 Bft)
05.11.2018 08:12 11,8 °C 70 % 1008,6 hPa 0,0 mm 0,3 km/h (0 Bft) W-NW 291 ° 0 min 0,000 mm 0,0 UV-I 51 W/m² 6,5 °C 11,8 °C 1,6 km/h (1 Bft)
05.11.2018 08:13 11,7 °C 70 % 1008,6 hPa 0,0 mm 0,0 km/h (0 Bft) W-NW 291 ° 0 min 0,000 mm 0,0 UV-I 54 W/m² 6,4 °C 11,7 °C 0,0 km/h (0 Bft)
05.11.2018 08:14 11,6 °C 70 % 1008,5 hPa 0,0 mm 0,0 km/h (0 Bft) W-NW 291 ° 0 min 0,000 mm 0,0 UV-I 58 W/m² 6,3 °C 11,6 °C 0,0 km/h (0 Bft)
05.11.2018 08:15 11,6 °C 70 % 1008,5 hPa 0,0 mm 0,0 km/h (0 Bft) W-NW 291 ° 0 min 0,000 mm 0,0 UV-I 60 W/m² 6,3 °C 11,6 °C 0,0 km/h (0 Bft)
05.11.2018 08:16 11,6 °C 70 % 1008,5 hPa 0,0 mm 0,0 km/h (0 Bft) W-NW 291 ° 0 min 0,000 mm 0,0 UV-I 62 W/m² 6,3 °C 11,6 °C 0,0 km/h (0 Bft)
05.11.2018 08:17 11,7 °C 70 % 1008,6 hPa 0,0 mm 0,0 km/h (0 Bft) W-NW 291 ° 0 min 0,000 mm 0,0 UV-I 63 W/m² 6,4 °C 11,7 °C 0,0 km/h (0 Bft)
05.11.2018 08:18 11,7 °C 71 % 1008,6 hPa 0,0 mm 0,0 km/h (0 Bft) W-NW 291 ° 0 min 0,000 mm 0,0 UV-I 63 W/m² 6,6 °C 11,7 °C 0,0 km/h (0 Bft)
05.11.2018 08:19 11,8 °C 70 % 1008,6 hPa 0,0 mm 0,0 km/h (0 Bft) W-NW 291 ° 0 min 0,000 mm 0,0 UV-I 65 W/m² 6,5 °C 11,8 °C 0,0 km/h (0 Bft)
05.11.2018 08:20 11,8 °C 70 % 1008,6 hPa 0,0 mm 0,4 km/h (0 Bft) W-NW 291 ° 0 min 0,000 mm 0,0 UV-I 67 W/m² 6,5 °C 11,8 °C 1,6 km/h (1 Bft)
05.11.2018 08:21 11,7 °C 71 % 1008,6 hPa 0,0 mm 1,1 km/h (1 Bft) N 5 ° 0 min 0,000 mm 0,0 UV-I 67 W/m² 6,6 °C 11,7 °C 3,2 km/h (1 Bft)
05.11.2018 08:22 11,6 °C 72 % 1008,7 hPa 0,0 mm 0,0 km/h (0 Bft) N 5 ° 0 min 0,000 mm 0,0 UV-I 67 W/m² 6,7 °C 11,6 °C 0,0 km/h (0 Bft)
05.11.2018 08:23 11,5 °C 73 % 1008,7 hPa 0,0 mm 0,0 km/h (0 Bft) N 5 ° 0 min 0,000 mm 0,0 UV-I 67 W/m² 6,8 °C 11,5 °C 0,0 km/h (0 Bft)
05.11.2018 08:24 11,4 °C 72 % 1008,7 hPa 0,0 mm 0,0 km/h (0 Bft) N 5 ° 0 min 0,000 mm 0,0 UV-I 69 W/m² 6,5 °C 11,4 °C 0,0 km/h (0 Bft)
05.11.2018 08:25 11,4 °C 72 % 1008,8 hPa 0,0 mm 0,0 km/h (0 Bft) N 5 ° 0 min 0,000 mm 0,0 UV-I 69 W/m² 6,5 °C 11,4 °C 0,0 km/h (0 Bft)
05.11.2018 08:26 11,3 °C 72 % 1008,8 hPa 0,0 mm 0,0 km/h (0 Bft) N 5 ° 0 min 0,000 mm 0,0 UV-I 69 W/m² 6,4 °C 11,3 °C 0,0 km/h (0 Bft)
05.11.2018 08:27 11,4 °C 71 % 1008,8 hPa 0,0 mm 0,0 km/h (0 Bft) N 5 ° 0 min 0,000 mm 0,0 UV-I 70 W/m² 6,3 °C 11,4 °C 0,0 km/h (0 Bft)
05.11.2018 08:28 11,5 °C 72 % 1008,8 hPa 0,0 mm 0,0 km/h (0 Bft) N 5 ° 0 min 0,000 mm 0,0 UV-I 70 W/m² 6,6 °C 11,5 °C 0,0 km/h (0 Bft)
05.11.2018 08:29 11,7 °C 71 % 1008,8 hPa 0,0 mm 0,0 km/h (0 Bft) N 5 ° 0 min 0,000 mm 0,0 UV-I 72 W/m² 6,6 °C 11,7 °C 0,0 km/h (0 Bft)
05.11.2018 08:30 11,7 °C 70 % 1008,8 hPa 0,0 mm 0,6 km/h (0 Bft) N 5 ° 0 min 0,000 mm 0,0 UV-I 72 W/m² 6,4 °C 11,7 °C 3,2 km/h (1 Bft)
05.11.2018 08:31 11,9 °C 69 % 1008,8 hPa 0,0 mm 0,2 km/h (0 Bft) N 5 ° 0 min 0,000 mm 0,0 UV-I 74 W/m² 6,4 °C 11,9 °C 1,6 km/h (1 Bft)
05.11.2018 08:32 12,0 °C 69 % 1008,7 hPa 0,0 mm 0,0 km/h (0 Bft) N 5 ° 0 min 0,000 mm 0,0 UV-I 77 W/m² 6,5 °C 12,0 °C 0,0 km/h (0 Bft)
05.11.2018 08:33 12,1 °C 69 % 1008,7 hPa 0,0 mm 0,4 km/h (0 Bft) N 5 ° 0 min 0,000 mm 0,0 UV-I 79 W/m² 6,6 °C 12,1 °C 3,2 km/h (1 Bft)
05.11.2018 08:34 12,1 °C 70 % 1008,6 hPa 0,0 mm 0,5 km/h (0 Bft) N 5 ° 0 min 0,000 mm 0,0 UV-I 79 W/m² 6,8 °C 12,1 °C 3,2 km/h (1 Bft)
05.11.2018 08:35 12,2 °C 70 % 1008,6 hPa 0,0 mm 0,9 km/h (0 Bft) N 9 ° 0 min 0,000 mm 0,0 UV-I 81 W/m² 6,9 °C 12,2 °C 3,2 km/h (1 Bft)
05.11.2018 08:36 12,2 °C 70 % 1008,6 hPa 0,0 mm 0,1 km/h (0 Bft) N 9 ° 0 min 0,000 mm 0,0 UV-I 81 W/m² 6,9 °C 12,2 °C 1,6 km/h (1 Bft)
05.11.2018 08:37 12,2 °C 72 % 1008,6 hPa 0,0 mm 2,6 km/h (1 Bft) NW 313 ° 0 min 0,000 mm 0,0 UV-I 83 W/m² 7,3 °C 12,2 °C 3,2 km/h (1 Bft)
05.11.2018 08:38 12,1 °C 72 % 1008,6 hPa 0,0 mm 0,2 km/h (0 Bft) NW 313 ° 0 min 0,000 mm 0,0 UV-I 83 W/m² 7,2 °C 12,1 °C 1,6 km/h (1 Bft)
05.11.2018 08:39 12,1 °C 72 % 1008,7 hPa 0,0 mm 1,6 km/h (1 Bft) NW 313 ° 0 min 0,000 mm 0,5 UV-I 83 W/m² 7,2 °C 12,1 °C 3,2 km/h (1 Bft)
05.11.2018 08:40 12,1 °C 72 % 1008,7 hPa 0,0 mm 1,0 km/h (0 Bft) NW 313 ° 0 min 0,000 mm 0,5 UV-I 83 W/m² 7,2 °C 12,1 °C 1,6 km/h (1 Bft)
05.11.2018 08:41 11,9 °C 73 % 1008,7 hPa 0,0 mm 1,1 km/h (1 Bft) NW 313 ° 0 min 0,000 mm 0,5 UV-I 81 W/m² 7,2 °C 11,9 °C 3,2 km/h (1 Bft)
05.11.2018 08:42 11,9 °C 73 % 1008,7 hPa 0,0 mm 1,1 km/h (1 Bft) NW 313 ° 0 min 0,000 mm 0,5 UV-I 81 W/m² 7,2 °C 11,9 °C 3,2 km/h (1 Bft)
05.11.2018 08:43 11,9 °C 72 % 1008,7 hPa 0,0 mm 0,0 km/h (0 Bft) NW 313 ° 0 min 0,000 mm 0,5 UV-I 83 W/m² 7,0 °C 11,9 °C 0,0 km/h (0 Bft)
05.11.2018 08:44 11,8 °C 73 % 1008,7 hPa 0,0 mm 0,0 km/h (0 Bft) NW 313 ° 0 min 0,000 mm 0,5 UV-I 83 W/m² 7,1 °C 11,8 °C 0,0 km/h (0 Bft)
05.11.2018 08:45 11,7 °C 75 % 1008,6 hPa 0,0 mm 0,6 km/h (0 Bft) NW 315 ° 0 min 0,000 mm 0,5 UV-I 83 W/m² 7,4 °C 11,7 °C 3,2 km/h (1 Bft)
05.11.2018 08:46 11,6 °C 75 % 1008,6 hPa 0,0 mm 2,4 km/h (1 Bft) NW 315 ° 0 min 0,000 mm 0,5 UV-I 81 W/m² 7,3 °C 11,6 °C 3,2 km/h (1 Bft)
05.11.2018 08:47 11,6 °C 74 % 1008,6 hPa 0,0 mm 0,3 km/h (0 Bft) NW 315 ° 0 min 0,000 mm 0,5 UV-I 81 W/m² 7,1 °C 11,6 °C 1,6 km/h (1 Bft)
05.11.2018 08:48 11,4 °C 75 % 1008,7 hPa 0,0 mm 0,0 km/h (0 Bft) NW 315 ° 0 min 0,000 mm 0,5 UV-I 81 W/m² 7,1 °C 11,4 °C 0,0 km/h (0 Bft)
05.11.2018 08:49 11,4 °C 74 % 1008,8 hPa 0,0 mm 0,0 km/h (0 Bft) NW 315 ° 0 min 0,000 mm 0,0 UV-I 79 W/m² 6,9 °C 11,4 °C 0,0 km/h (0 Bft)
05.11.2018 08:50 11,3 °C 75 % 1008,8 hPa 0,0 mm 0,2 km/h (0 Bft) NW 306 ° 0 min 0,000 mm 0,0 UV-I 77 W/m² 7,0 °C 11,3 °C 1,6 km/h (1 Bft)
05.11.2018 08:51 11,3 °C 75 % 1008,9 hPa 0,0 mm 2,6 km/h (1 Bft) W 275 ° 0 min 0,000 mm 0,0 UV-I 77 W/m² 7,0 °C 11,3 °C 3,2 km/h (1 Bft)
05.11.2018 08:52 11,3 °C 74 % 1008,9 hPa 0,0 mm 2,6 km/h (1 Bft) W 267 ° 0 min 0,000 mm 0,0 UV-I 77 W/m² 6,8 °C 11,3 °C 3,2 km/h (1 Bft)
05.11.2018 08:53 11,4 °C 72 % 1008,9 hPa 0,0 mm 2,2 km/h (1 Bft) W 267 ° 0 min 0,000 mm 0,0 UV-I 77 W/m² 6,5 °C 11,4 °C 3,2 km/h (1 Bft)
05.11.2018 08:54 11,5 °C 73 % 1008,9 hPa 0,0 mm 0,8 km/h (0 Bft) W-SW 238 ° 0 min 0,000 mm 0,0 UV-I 77 W/m² 6,8 °C 11,5 °C 3,2 km/h (1 Bft)
05.11.2018 08:55 11,6 °C 75 % 1009,0 hPa 0,0 mm 0,0 km/h (0 Bft) W-SW 238 ° 0 min 0,000 mm 0,0 UV-I 76 W/m² 7,3 °C 11,6 °C 0,0 km/h (0 Bft)
05.11.2018 08:56 11,6 °C 75 % 1009,0 hPa 0,0 mm 0,0 km/h (0 Bft) SW 236 ° 0 min 0,000 mm 0,0 UV-I 76 W/m² 7,3 °C 11,6 °C 0,0 km/h (0 Bft)
05.11.2018 08:57 11,6 °C 74 % 1009,0 hPa 0,0 mm 0,0 km/h (0 Bft) SW 236 ° 0 min 0,000 mm 0,0 UV-I 76 W/m² 7,1 °C 11,6 °C 0,0 km/h (0 Bft)
05.11.2018 08:58 11,7 °C 72 % 1009,1 hPa 0,0 mm 0,5 km/h (0 Bft) SW 215 ° 0 min 0,000 mm 0,0 UV-I 76 W/m² 6,8 °C 11,7 °C 3,2 km/h (1 Bft)
05.11.2018 08:59 11,8 °C 70 % 1009,1 hPa 0,0 mm 4,8 km/h (1 Bft) S-SW 205 ° 0 min 0,000 mm 0,0 UV-I 76 W/m² 6,5 °C 11,8 °C 6,4 km/h (2 Bft)
05.11.2018 09:00 12,1 °C 70 % 1009,1 hPa 0,0 mm 1,5 km/h (1 Bft) S-SW 205 ° 0 min 0,051 mm 0,0 UV-I 76 W/m² 6,8 °C 12,1 °C 3,2 km/h (1 Bft)
05.11.2018 09:01 12,2 °C 71 % 1009,1 hPa 0,0 mm 3,1 km/h (1 Bft) S-SW 205 ° 0 min 0,000 mm 0,0 UV-I 76 W/m² 7,1 °C 12,2 °C 4,8 km/h (1 Bft)
05.11.2018 09:02 12,2 °C 70 % 1009,0 hPa 0,0 mm 2,4 km/h (1 Bft) S-SW 205 ° 0 min 0,000 mm 0,0 UV-I 76 W/m² 6,9 °C 12,2 °C 4,8 km/h (1 Bft)
05.11.2018 09:03 12,2 °C 72 % 1009,1 hPa 0,0 mm 1,9 km/h (1 Bft) S-SW 205 ° 0 min 0,000 mm 0,0 UV-I 77 W/m² 7,3 °C 12,2 °C 3,2 km/h (1 Bft)
05.11.2018 09:04 12,2 °C 71 % 1009,1 hPa 0,0 mm 1,6 km/h (1 Bft) S-SW 205 ° 0 min 0,000 mm 0,0 UV-I 77 W/m² 7,1 °C 12,2 °C 3,2 km/h (1 Bft)
05.11.2018 09:05 12,2 °C 73 % 1009,1 hPa 0,0 mm 0,6 km/h (0 Bft) S-SW 205 ° 0 min 0,000 mm 0,5 UV-I 79 W/m² 7,5 °C 12,2 °C 1,6 km/h (1 Bft)
05.11.2018 09:06 12,1 °C 75 % 1009,2 hPa 0,0 mm 4,1 km/h (1 Bft) NO 51 ° 0 min 0,000 mm 0,5 UV-I 81 W/m² 7,8 °C 12,1 °C 8,0 km/h (2 Bft)
05.11.2018 09:07 11,9 °C 74 % 1009,2 hPa 0,0 mm 3,6 km/h (1 Bft) NO 52 ° 0 min 0,000 mm 0,5 UV-I 83 W/m² 7,4 °C 11,9 °C 6,4 km/h (2 Bft)
05.11.2018 09:08 11,9 °C 74 % 1009,1 hPa 0,0 mm 1,8 km/h (1 Bft) NO 52 ° 0 min 0,000 mm 0,5 UV-I 84 W/m² 7,4 °C 11,9 °C 3,2 km/h (1 Bft)
05.11.2018 09:09 11,9 °C 74 % 1009,1 hPa 0,0 mm 0,0 km/h (0 Bft) NO 52 ° 0 min 0,000 mm 0,5 UV-I 86 W/m² 7,4 °C 11,9 °C 0,0 km/h (0 Bft)
05.11.2018 09:10 11,8 °C 76 % 1009,1 hPa 0,0 mm 0,0 km/h (0 Bft) NO 52 ° 0 min 0,000 mm 0,5 UV-I 88 W/m² 7,7 °C 11,8 °C 0,0 km/h (0 Bft)
05.11.2018 09:11 11,7 °C 77 % 1009,1 hPa 0,0 mm 1,6 km/h (1 Bft) NO 52 ° 0 min 0,000 mm 0,5 UV-I 90 W/m² 7,8 °C 11,7 °C 3,2 km/h (1 Bft)
05.11.2018 09:12 11,6 °C 78 % 1009,0 hPa 0,0 mm 1,5 km/h (1 Bft) NO 52 ° 0 min 0,000 mm 0,5 UV-I 93 W/m² 7,9 °C 11,6 °C 3,2 km/h (1 Bft)
05.11.2018 09:13 11,6 °C 77 % 1009,1 hPa 0,0 mm 3,2 km/h (1 Bft) NO 51 ° 0 min 0,000 mm 0,5 UV-I 95 W/m² 7,7 °C 11,6 °C 4,8 km/h (1 Bft)
05.11.2018 09:14 11,5 °C 78 % 1009,1 hPa 0,0 mm 3,2 km/h (1 Bft) NO 51 ° 0 min 0,000 mm 0,6 UV-I 95 W/m² 7,8 °C 11,5 °C 3,2 km/h (1 Bft)
05.11.2018 09:15 11,5 °C 77 % 1009,2 hPa 0,0 mm 2,9 km/h (1 Bft) W-NW 288 ° 0 min 0,000 mm 0,6 UV-I 95 W/m² 7,6 °C 11,5 °C 4,8 km/h (1 Bft)
05.11.2018 09:16 11,5 °C 77 % 1009,1 hPa 0,0 mm 3,1 km/h (1 Bft) W-NW 288 ° 0 min 0,000 mm 0,6 UV-I 93 W/m² 7,6 °C 11,5 °C 4,8 km/h (1 Bft)
05.11.2018 09:17 11,5 °C 78 % 1009,1 hPa 0,0 mm 2,0 km/h (1 Bft) W-NW 288 ° 0 min 0,000 mm 0,6 UV-I 91 W/m² 7,8 °C 11,5 °C 3,2 km/h (1 Bft)
05.11.2018 09:18 11,5 °C 78 % 1009,1 hPa 0,0 mm 2,3 km/h (1 Bft) W-NW 288 ° 0 min 0,000 mm 0,6 UV-I 90 W/m² 7,8 °C 11,5 °C 3,2 km/h (1 Bft)
05.11.2018 09:19 11,6 °C 78 % 1009,1 hPa 0,0 mm 1,8 km/h (1 Bft) W-NW 288 ° 0 min 0,000 mm 0,6 UV-I 90 W/m² 7,9 °C 11,6 °C 3,2 km/h (1 Bft)
05.11.2018 09:20 11,6 °C 79 % 1009,1 hPa 0,0 mm 2,3 km/h (1 Bft) W-NW 288 ° 0 min 0,000 mm 0,6 UV-I 88 W/m² 8,1 °C 11,6 °C 3,2 km/h (1 Bft)
05.11.2018 09:21 11,6 °C 79 % 1009,1 hPa 0,0 mm 1,2 km/h (1 Bft) W-NW 288 ° 0 min 0,000 mm 0,5 UV-I 88 W/m² 8,1 °C 11,6 °C 3,2 km/h (1 Bft)
05.11.2018 09:22 11,6 °C 76 % 1009,1 hPa 0,0 mm 2,0 km/h (1 Bft) W-NW 288 ° 0 min 0,000 mm 0,5 UV-I 86 W/m² 7,5 °C 11,6 °C 3,2 km/h (1 Bft)
05.11.2018 09:23 11,7 °C 76 % 1009,1 hPa 0,0 mm 1,9 km/h (1 Bft) W-NW 288 ° 0 min 0,000 mm 0,5 UV-I 84 W/m² 7,6 °C 11,7 °C 3,2 km/h (1 Bft)
05.11.2018 09:24 11,7 °C 75 % 1009,1 hPa 0,0 mm 0,3 km/h (0 Bft) W-NW 288 ° 0 min 0,000 mm 0,5 UV-I 83 W/m² 7,4 °C 11,7 °C 1,6 km/h (1 Bft)
05.11.2018 09:25 11,8 °C 76 % 1009,0 hPa 0,0 mm 3,2 km/h (1 Bft) W-NW 288 ° 0 min 0,000 mm 0,5 UV-I 83 W/m² 7,7 °C 11,8 °C 4,8 km/h (1 Bft)
05.11.2018 09:26 11,8 °C 77 % 1009,0 hPa 0,0 mm 0,4 km/h (0 Bft) W-NW 288 ° 0 min 0,000 mm 0,5 UV-I 83 W/m² 7,9 °C 11,8 °C 1,6 km/h (1 Bft)
05.11.2018 09:27 11,8 °C 79 % 1009,0 hPa 0,0 mm 0,0 km/h (0 Bft) W-NW 288 ° 0 min 0,000 mm 0,5 UV-I 83 W/m² 8,3 °C 11,8 °C 0,0 km/h (0 Bft)
05.11.2018 09:28 11,7 °C 79 % 1009,0 hPa 0,0 mm 0,0 km/h (0 Bft) W-NW 288 ° 0 min 0,000 mm 0,5 UV-I 83 W/m² 8,2 °C 11,7 °C 0,0 km/h (0 Bft)
05.11.2018 09:29 11,6 °C 79 % 1009,0 hPa 0,0 mm 1,5 km/h (1 Bft) N 360 ° 0 min 0,000 mm 0,5 UV-I 83 W/m² 8,1 °C 11,6 °C 3,2 km/h (1 Bft)
05.11.2018 09:30 11,6 °C 79 % 1009,0 hPa 0,0 mm 1,4 km/h (1 Bft) N 360 ° 0 min 0,000 mm 0,5 UV-I 83 W/m² 8,1 °C 11,6 °C 3,2 km/h (1 Bft)
05.11.2018 09:31 11,6 °C 79 % 1009,0 hPa 0,0 mm 0,0 km/h (0 Bft) N 360 ° 0 min 0,000 mm 0,5 UV-I 83 W/m² 8,1 °C 11,6 °C 0,0 km/h (0 Bft)
05.11.2018 09:32 11,5 °C 79 % 1009,0 hPa 0,0 mm 0,7 km/h (0 Bft) N 360 ° 0 min 0,000 mm 0,5 UV-I 83 W/m² 8,0 °C 11,5 °C 1,6 km/h (1 Bft)
05.11.2018 09:33 11,5 °C 79 % 1009,0 hPa 0,0 mm 1,1 km/h (1 Bft) N 360 ° 0 min 0,000 mm 0,5 UV-I 84 W/m² 8,0 °C 11,5 °C 1,6 km/h (1 Bft)
05.11.2018 09:34 11,5 °C 79 % 1009,0 hPa 0,0 mm 0,0 km/h (0 Bft) N 360 ° 0 min 0,000 mm 0,5 UV-I 84 W/m² 8,0 °C 11,5 °C 0,0 km/h (0 Bft)
05.11.2018 09:35 11,4 °C 80 % 1008,9 hPa 0,0 mm 0,0 km/h (0 Bft) N 360 ° 0 min 0,000 mm 0,5 UV-I 84 W/m² 8,1 °C 11,4 °C 0,0 km/h (0 Bft)
05.11.2018 09:36 11,4 °C 79 % 1008,9 hPa 0,0 mm 0,0 km/h (0 Bft) N 360 ° 0 min 0,000 mm 0,5 UV-I 88 W/m² 7,9 °C 11,4 °C 0,0 km/h (0 Bft)
05.11.2018 09:37 11,4 °C 78 % 1008,9 hPa 0,0 mm 0,0 km/h (0 Bft) N 360 ° 0 min 0,000 mm 0,5 UV-I 86 W/m² 7,7 °C 11,4 °C 0,0 km/h (0 Bft)
05.11.2018 09:38 11,4 °C 78 % 1008,9 hPa 0,0 mm 0,0 km/h (0 Bft) N 360 ° 0 min 0,000 mm 0,5 UV-I 88 W/m² 7,7 °C 11,4 °C 0,0 km/h (0 Bft)
05.11.2018 09:39 11,4 °C 78 % 1009,0 hPa 0,0 mm 0,0 km/h (0 Bft) N 360 ° 0 min 0,000 mm 0,5 UV-I 90 W/m² 7,7 °C 11,4 °C 0,0 km/h (0 Bft)
05.11.2018 09:40 11,4 °C 78 % 1009,0 hPa 0,0 mm 0,0 km/h (0 Bft) N 360 ° 0 min 0,000 mm 0,6 UV-I 93 W/m² 7,7 °C 11,4 °C 0,0 km/h (0 Bft)
05.11.2018 09:41 11,4 °C 77 % 1009,0 hPa 0,0 mm 0,4 km/h (0 Bft) N 360 ° 0 min 0,000 mm 0,6 UV-I 98 W/m² 7,5 °C 11,4 °C 1,6 km/h (1 Bft)
05.11.2018 09:42 11,5 °C 76 % 1008,9 hPa 0,0 mm 0,8 km/h (0 Bft) N 360 ° 0 min 0,000 mm 0,6 UV-I 107 W/m² 7,4 °C 11,5 °C 1,6 km/h (1 Bft)
05.11.2018 09:43 11,6 °C 75 % 1009,0 hPa 0,0 mm 0,0 km/h (0 Bft) N 360 ° 0 min 0,000 mm 0,6 UV-I 111 W/m² 7,3 °C 11,6 °C 0,0 km/h (0 Bft)
05.11.2018 09:44 11,6 °C 76 % 1008,9 hPa 0,0 mm 0,0 km/h (0 Bft) N 360 ° 0 min 0,000 mm 0,7 UV-I 116 W/m² 7,5 °C 11,6 °C 0,0 km/h (0 Bft)
05.11.2018 09:45 11,6 °C 77 % 1008,9 hPa 0,0 mm 0,0 km/h (0 Bft) N 360 ° 0 min 0,000 mm 0,7 UV-I 123 W/m² 7,7 °C 11,6 °C 0,0 km/h (0 Bft)
05.11.2018 09:46 11,6 °C 78 % 1008,9 hPa 0,0 mm 0,0 km/h (0 Bft) N 360 ° 0 min 0,000 mm 0,7 UV-I 132 W/m² 7,9 °C 11,6 °C 0,0 km/h (0 Bft)
05.11.2018 09:47 11,6 °C 79 % 1008,9 hPa 0,0 mm 0,0 km/h (0 Bft) N 360 ° 0 min 0,000 mm 0,8 UV-I 139 W/m² 8,1 °C 11,6 °C 0,0 km/h (0 Bft)
05.11.2018 09:48 11,6 °C 78 % 1008,8 hPa 0,0 mm 0,0 km/h (0 Bft) N 360 ° 0 min 0,000 mm 0,8 UV-I 151 W/m² 7,9 °C 11,6 °C 0,0 km/h (0 Bft)
05.11.2018 09:49 11,6 °C 78 % 1008,9 hPa 0,0 mm 0,0 km/h (0 Bft) N 360 ° 0 min 0,000 mm 0,9 UV-I 151 W/m² 7,9 °C 11,6 °C 0,0 km/h (0 Bft)
05.11.2018 09:50 11,6 °C 78 % 1008,8 hPa 0,0 mm 0,0 km/h (0 Bft) N 360 ° 0 min 0,000 mm 0,9 UV-I 151 W/m² 7,9 °C 11,6 °C 0,0 km/h (0 Bft)
05.11.2018 09:51 11,7 °C 79 % 1008,8 hPa 0,0 mm 0,0 km/h (0 Bft) N 360 ° 0 min 0,000 mm 0,9 UV-I 151 W/m² 8,2 °C 11,7 °C 0,0 km/h (0 Bft)
05.11.2018 09:52 11,7 °C 76 % 1008,8 hPa 0,0 mm 0,0 km/h (0 Bft) N 360 ° 0 min 0,000 mm 0,9 UV-I 151 W/m² 7,6 °C 11,7 °C 0,0 km/h (0 Bft)
05.11.2018 09:53 11,8 °C 79 % 1008,8 hPa 0,0 mm 0,0 km/h (0 Bft) N 360 ° 0 min 0,000 mm 0,9 UV-I 153 W/m² 8,3 °C 11,8 °C 0,0 km/h (0 Bft)
05.11.2018 09:54 11,8 °C 78 % 1008,8 hPa 0,0 mm 0,2 km/h (0 Bft) N 360 ° 0 min 0,000 mm 0,9 UV-I 156 W/m² 8,1 °C 11,8 °C 1,6 km/h (1 Bft)
05.11.2018 09:55 11,8 °C 75 % 1008,8 hPa 0,0 mm 0,0 km/h (0 Bft) N 360 ° 0 min 0,000 mm 1,0 UV-I 158 W/m² 7,5 °C 11,8 °C 0,0 km/h (0 Bft)
05.11.2018 09:56 11,9 °C 75 % 1008,7 hPa 0,0 mm 0,0 km/h (0 Bft) N 360 ° 0 min 0,000 mm 1,0 UV-I 160 W/m² 7,6 °C 11,9 °C 0,0 km/h (0 Bft)
05.11.2018 09:57 12,1 °C 75 % 1008,7 hPa 0,0 mm 0,0 km/h (0 Bft) N 360 ° 0 min 0,000 mm 1,0 UV-I 162 W/m² 7,8 °C 12,1 °C 0,0 km/h (0 Bft)
05.11.2018 09:58 12,2 °C 75 % 1008,7 hPa 0,0 mm 0,0 km/h (0 Bft) N 360 ° 0 min 0,000 mm 1,0 UV-I 163 W/m² 7,9 °C 12,2 °C 0,0 km/h (0 Bft)
05.11.2018 09:59 12,3 °C 74 % 1008,8 hPa 0,0 mm 0,0 km/h (0 Bft) N 360 ° 0 min 0,000 mm 1,1 UV-I 165 W/m² 7,8 °C 12,3 °C 0,0 km/h (0 Bft)
05.11.2018 10:00 12,3 °C 74 % 1008,8 hPa 0,0 mm 0,0 km/h (0 Bft) N 360 ° 0 min 0,000 mm 1,1 UV-I 167 W/m² 7,8 °C 12,3 °C 0,0 km/h (0 Bft)
05.11.2018 10:01 12,4 °C 75 % 1008,8 hPa 0,0 mm 0,0 km/h (0 Bft) N 360 ° 0 min 0,051 mm 1,1 UV-I 165 W/m² 8,1 °C 12,4 °C 0,0 km/h (0 Bft)
05.11.2018 10:02 12,4 °C 73 % 1008,8 hPa 0,0 mm 0,0 km/h (0 Bft) N 360 ° 0 min 0,000 mm 1,1 UV-I 163 W/m² 7,7 °C 12,4 °C 0,0 km/h (0 Bft)
05.11.2018 10:03 12,5 °C 78 % 1008,8 hPa 0,0 mm 0,0 km/h (0 Bft) N 360 ° 0 min 0,000 mm 1,1 UV-I 162 W/m² 8,8 °C 12,5 °C 0,0 km/h (0 Bft)
05.11.2018 10:04 12,5 °C 77 % 1008,8 hPa 0,0 mm 0,0 km/h (0 Bft) N 360 ° 0 min 0,000 mm 1,1 UV-I 158 W/m² 8,6 °C 12,5 °C 0,0 km/h (0 Bft)
05.11.2018 10:05 12,5 °C 77 % 1008,8 hPa 0,0 mm 0,0 km/h (0 Bft) N 360 ° 0 min 0,000 mm 1,1 UV-I 160 W/m² 8,6 °C 12,5 °C 0,0 km/h (0 Bft)
05.11.2018 10:06 12,6 °C 76 % 1008,8 hPa 0,0 mm 0,0 km/h (0 Bft) N 360 ° 0 min 0,000 mm 1,1 UV-I 162 W/m² 8,5 °C 12,6 °C 0,0 km/h (0 Bft)
05.11.2018 10:07 12,7 °C 74 % 1008,8 hPa 0,0 mm 0,0 km/h (0 Bft) N 360 ° 0 min 0,000 mm 1,1 UV-I 160 W/m² 8,2 °C 12,7 °C 0,0 km/h (0 Bft)
05.11.2018 10:08 12,8 °C 75 % 1008,8 hPa 0,0 mm 0,0 km/h (0 Bft) N 360 ° 0 min 0,000 mm 1,1 UV-I 158 W/m² 8,5 °C 12,8 °C 0,0 km/h (0 Bft)
05.11.2018 10:09 12,8 °C 73 % 1008,7 hPa 0,0 mm 0,0 km/h (0 Bft) N 360 ° 0 min 0,000 mm 1,1 UV-I 158 W/m² 8,1 °C 12,8 °C 0,0 km/h (0 Bft)
05.11.2018 10:10 12,9 °C 73 % 1008,7 hPa 0,0 mm 0,0 km/h (0 Bft) N 360 ° 0 min 0,000 mm 1,1 UV-I 158 W/m² 8,2 °C 12,9 °C 0,0 km/h (0 Bft)
05.11.2018 10:11 12,9 °C 72 % 1008,7 hPa 0,0 mm 0,0 km/h (0 Bft) N 360 ° 0 min 0,000 mm 1,1 UV-I 158 W/m² 8,0 °C 12,9 °C 0,0 km/h (0 Bft)
05.11.2018 10:12 13,1 °C 73 % 1008,7 hPa 0,0 mm 0,0 km/h (0 Bft) N 360 ° 0 min 0,000 mm 1,1 UV-I 156 W/m² 8,4 °C 13,1 °C 0,0 km/h (0 Bft)
05.11.2018 10:13 13,2 °C 74 % 1008,7 hPa 0,0 mm 0,0 km/h (0 Bft) N 360 ° 0 min 0,000 mm 1,1 UV-I 155 W/m² 8,7 °C 13,2 °C 0,0 km/h (0 Bft)
05.11.2018 10:14 13,3 °C 77 % 1008,7 hPa 0,0 mm 0,0 km/h (0 Bft) N 360 ° 0 min 0,000 mm 1,1 UV-I 153 W/m² 9,4 °C 13,3 °C 0,0 km/h (0 Bft)
05.11.2018 10:15 13,4 °C 75 % 1008,7 hPa 0,0 mm 0,0 km/h (0 Bft) N 360 ° 0 min 0,000 mm 1,1 UV-I 151 W/m² 9,1 °C 13,4 °C 0,0 km/h (0 Bft)
05.11.2018 10:16 13,5 °C 73 % 1008,7 hPa 0,0 mm 0,0 km/h (0 Bft) N 360 ° 0 min 0,000 mm 1,1 UV-I 151 W/m² 8,8 °C 13,5 °C 0,0 km/h (0 Bft)
05.11.2018 10:17 13,6 °C 75 % 1008,7 hPa 0,0 mm 0,0 km/h (0 Bft) N 360 ° 0 min 0,000 mm 1,1 UV-I 156 W/m² 9,3 °C 13,6 °C 0,0 km/h (0 Bft)
05.11.2018 10:18 13,7 °C 74 % 1008,6 hPa 0,0 mm 0,0 km/h (0 Bft) N 360 ° 0 min 0,000 mm 1,2 UV-I 156 W/m² 9,2 °C 13,7 °C 0,0 km/h (0 Bft)
05.11.2018 10:19 13,8 °C 73 % 1008,6 hPa 0,0 mm 0,0 km/h (0 Bft) N 360 ° 0 min 0,000 mm 1,2 UV-I 160 W/m² 9,0 °C 13,8 °C 0,0 km/h (0 Bft)
05.11.2018 10:20 13,8 °C 72 % 1008,6 hPa 0,0 mm 0,0 km/h (0 Bft) N 360 ° 0 min 0,000 mm 1,2 UV-I 162 W/m² 8,8 °C 13,8 °C 0,0 km/h (0 Bft)
05.11.2018 10:21 13,9 °C 73 % 1008,7 hPa 0,0 mm 0,0 km/h (0 Bft) N 360 ° 0 min 0,000 mm 1,2 UV-I 163 W/m² 9,1 °C 13,9 °C 0,0 km/h (0 Bft)
05.11.2018 10:22 14,0 °C 71 % 1008,7 hPa 0,0 mm 0,0 km/h (0 Bft) N 360 ° 0 min 0,000 mm 1,3 UV-I 167 W/m² 8,8 °C 14,0 °C 0,0 km/h (0 Bft)
05.11.2018 10:23 14,1 °C 72 % 1008,7 hPa 0,0 mm 0,0 km/h (0 Bft) N 360 ° 0 min 0,000 mm 1,3 UV-I 172 W/m² 9,1 °C 14,1 °C 0,0 km/h (0 Bft)
05.11.2018 10:24 14,2 °C 73 % 1008,7 hPa 0,0 mm 0,0 km/h (0 Bft) N 360 ° 0 min 0,000 mm 1,3 UV-I 174 W/m² 9,4 °C 14,2 °C 0,0 km/h (0 Bft)
05.11.2018 10:25 14,3 °C 73 % 1008,5 hPa 0,0 mm 0,0 km/h (0 Bft) N 360 ° 0 min 0,000 mm 1,3 UV-I 174 W/m² 9,5 °C 14,3 °C 0,0 km/h (0 Bft)
05.11.2018 10:26 14,3 °C 73 % 1008,5 hPa 0,0 mm 0,0 km/h (0 Bft) N 360 ° 0 min 0,000 mm 1,3 UV-I 174 W/m² 9,5 °C 14,3 °C 0,0 km/h (0 Bft)
05.11.2018 10:27 14,4 °C 72 % 1008,6 hPa 0,0 mm 0,0 km/h (0 Bft) N 360 ° 0 min 0,000 mm 1,4 UV-I 174 W/m² 9,4 °C 14,4 °C 0,0 km/h (0 Bft)
05.11.2018 10:28 14,5 °C 71 % 1008,6 hPa 0,0 mm 0,0 km/h (0 Bft) N 360 ° 0 min 0,000 mm 1,4 UV-I 174 W/m² 9,3 °C 14,5 °C 0,0 km/h (0 Bft)
05.11.2018 10:29 14,6 °C 70 % 1008,5 hPa 0,0 mm 0,0 km/h (0 Bft) N 360 ° 0 min 0,000 mm 1,4 UV-I 174 W/m² 9,2 °C 14,6 °C 0,0 km/h (0 Bft)
05.11.2018 10:30 14,7 °C 72 % 1008,5 hPa 0,0 mm 0,0 km/h (0 Bft) N 360 ° 0 min 0,000 mm 1,4 UV-I 174 W/m² 9,7 °C 14,7 °C 0,0 km/h (0 Bft)
05.11.2018 10:31 14,8 °C 71 % 1008,5 hPa 0,0 mm 0,0 km/h (0 Bft) N 360 ° 0 min 0,000 mm 1,4 UV-I 174 W/m² 9,6 °C 14,8 °C 0,0 km/h (0 Bft)
05.11.2018 10:32 14,8 °C 72 % 1008,5 hPa 0,0 mm 0,0 km/h (0 Bft) N 360 ° 0 min 0,000 mm 1,4 UV-I 171 W/m² 9,8 °C 14,8 °C 0,0 km/h (0 Bft)
05.11.2018 10:33 14,9 °C 71 % 1008,5 hPa 0,0 mm 0,0 km/h (0 Bft) N 360 ° 0 min 0,000 mm 1,4 UV-I 167 W/m² 9,7 °C 14,9 °C 0,0 km/h (0 Bft)
05.11.2018 10:34 15,0 °C 71 % 1008,4 hPa 0,0 mm 0,0 km/h (0 Bft) N 360 ° 0 min 0,000 mm 1,4 UV-I 156 W/m² 9,8 °C 15,0 °C 0,0 km/h (0 Bft)
05.11.2018 10:35 15,1 °C 72 % 1008,4 hPa 0,0 mm 0,0 km/h (0 Bft) N 360 ° 0 min 0,000 mm 1,4 UV-I 151 W/m² 10,1 °C 15,1 °C 0,0 km/h (0 Bft)
05.11.2018 10:36 15,2 °C 71 % 1008,4 hPa 0,0 mm 2,2 km/h (1 Bft) N 360 ° 0 min 0,000 mm 1,4 UV-I 144 W/m² 10,0 °C 15,2 °C 4,8 km/h (1 Bft)
05.11.2018 10:37 15,3 °C 69 % 1008,5 hPa 0,0 mm 0,2 km/h (0 Bft) N 360 ° 0 min 0,000 mm 1,4 UV-I 139 W/m² 9,6 °C 15,3 °C 1,6 km/h (1 Bft)
05.11.2018 10:38 15,3 °C 68 % 1008,4 hPa 0,0 mm 3,1 km/h (1 Bft) NO 40 ° 0 min 0,000 mm 1,3 UV-I 134 W/m² 9,4 °C 15,3 °C 6,4 km/h (2 Bft)
05.11.2018 10:39 15,3 °C 72 % 1008,5 hPa 0,0 mm 5,2 km/h (1 Bft) O-NO 73 ° 0 min 0,000 mm 1,3 UV-I 130 W/m² 10,3 °C 15,3 °C 6,4 km/h (2 Bft)
05.11.2018 10:40 15,3 °C 68 % 1008,4 hPa 0,0 mm 2,9 km/h (1 Bft) SO 136 ° 0 min 0,000 mm 1,3 UV-I 127 W/m² 9,4 °C 15,3 °C 4,8 km/h (1 Bft)
05.11.2018 10:41 15,4 °C 71 % 1008,4 hPa 0,0 mm 1,1 km/h (1 Bft) SO 130 ° 0 min 0,000 mm 1,3 UV-I 130 W/m² 10,2 °C 15,4 °C 4,8 km/h (1 Bft)
05.11.2018 10:42 15,5 °C 68 % 1008,4 hPa 0,0 mm 0,8 km/h (0 Bft) SO 130 ° 0 min 0,000 mm 1,3 UV-I 135 W/m² 9,6 °C 15,5 °C 3,2 km/h (1 Bft)
05.11.2018 10:43 15,7 °C 67 % 1008,3 hPa 0,0 mm 1,1 km/h (1 Bft) SO 130 ° 0 min 0,000 mm 1,4 UV-I 144 W/m² 9,6 °C 15,7 °C 3,2 km/h (1 Bft)
05.11.2018 10:44 15,8 °C 69 % 1008,3 hPa 0,0 mm 0,0 km/h (0 Bft) SO 130 ° 0 min 0,000 mm 1,4 UV-I 156 W/m² 10,1 °C 15,8 °C 0,0 km/h (0 Bft)
05.11.2018 10:45 15,8 °C 70 % 1008,3 hPa 0,0 mm 1,1 km/h (1 Bft) O-SO 108 ° 0 min 0,000 mm 1,4 UV-I 162 W/m² 10,3 °C 15,8 °C 3,2 km/h (1 Bft)
05.11.2018 10:46 15,7 °C 68 % 1008,3 hPa 0,0 mm 1,4 km/h (1 Bft) O-SO 108 ° 0 min 0,000 mm 1,4 UV-I 165 W/m² 9,8 °C 15,7 °C 3,2 km/h (1 Bft)
05.11.2018 10:47 15,8 °C 70 % 1008,3 hPa 0,0 mm 2,1 km/h (1 Bft) O-SO 104 ° 0 min 0,000 mm 1,5 UV-I 172 W/m² 10,3 °C 15,8 °C 3,2 km/h (1 Bft)
05.11.2018 10:48 15,9 °C 66 % 1008,3 hPa 0,0 mm 4,6 km/h (1 Bft) O 82 ° 0 min 0,000 mm 1,5 UV-I 179 W/m² 9,6 °C 15,9 °C 8,0 km/h (2 Bft)
05.11.2018 10:49 15,9 °C 68 % 1008,3 hPa 0,0 mm 1,6 km/h (1 Bft) O 82 ° 0 min 0,000 mm 1,5 UV-I 183 W/m² 10,0 °C 15,9 °C 3,2 km/h (1 Bft)
05.11.2018 10:50 16,2 °C 65 % 1008,3 hPa 0,0 mm 0,9 km/h (0 Bft) O 83 ° 0 min 0,000 mm 1,5 UV-I 183 W/m² 9,6 °C 16,2 °C 3,2 km/h (1 Bft)
05.11.2018 10:51 16,4 °C 61 % 1008,2 hPa 0,0 mm 0,2 km/h (0 Bft) O 83 ° 0 min 0,000 mm 1,5 UV-I 181 W/m² 8,9 °C 16,4 °C 1,6 km/h (1 Bft)
05.11.2018 10:52 16,8 °C 61 % 1008,2 hPa 0,0 mm 0,0 km/h (0 Bft) O 83 ° 0 min 0,000 mm 1,5 UV-I 176 W/m² 9,2 °C 16,8 °C 0,0 km/h (0 Bft)
05.11.2018 10:53 17,0 °C 60 % 1008,3 hPa 0,0 mm 1,1 km/h (1 Bft) O 85 ° 0 min 0,000 mm 1,5 UV-I 174 W/m² 9,2 °C 17,0 °C 3,2 km/h (1 Bft)
05.11.2018 10:54 17,2 °C 59 % 1008,2 hPa 0,0 mm 2,0 km/h (1 Bft) O 92 ° 0 min 0,000 mm 1,5 UV-I 172 W/m² 9,1 °C 17,2 °C 4,8 km/h (1 Bft)
05.11.2018 10:55 17,3 °C 59 % 1008,2 hPa 0,0 mm 0,8 km/h (0 Bft) O 92 ° 0 min 0,000 mm 1,5 UV-I 171 W/m² 9,2 °C 17,3 °C 3,2 km/h (1 Bft)
05.11.2018 10:56 17,3 °C 61 % 1008,3 hPa 0,0 mm 1,2 km/h (1 Bft) O 92 ° 0 min 0,000 mm 1,5 UV-I 169 W/m² 9,7 °C 17,3 °C 3,2 km/h (1 Bft)
05.11.2018 10:57 17,3 °C 61 % 1008,3 hPa 0,0 mm 4,9 km/h (1 Bft) O-SO 111 ° 0 min 0,000 mm 1,5 UV-I 167 W/m² 9,7 °C 17,3 °C 8,0 km/h (2 Bft)
05.11.2018 10:58 17,2 °C 61 % 1008,3 hPa 0,0 mm 4,5 km/h (1 Bft) O-NO 74 ° 0 min 0,000 mm 1,5 UV-I 167 W/m² 9,6 °C 17,2 °C 8,0 km/h (2 Bft)
05.11.2018 10:59 17,2 °C 66 % 1008,3 hPa 0,0 mm 3,6 km/h (1 Bft) O-NO 70 ° 0 min 0,000 mm 1,5 UV-I 162 W/m² 10,8 °C 17,2 °C 4,8 km/h (1 Bft)
05.11.2018 11:00 17,2 °C 62 % 1008,3 hPa 0,0 mm 7,3 km/h (2 Bft) O-NO 63 ° 0 min 0,101 mm 1,5 UV-I 153 W/m² 9,9 °C 17,2 °C 11,3 km/h (2 Bft)
05.11.2018 11:01 17,3 °C 61 % 1008,3 hPa 0,0 mm 2,5 km/h (1 Bft) O-NO 63 ° 0 min 0,000 mm 1,4 UV-I 146 W/m² 9,7 °C 17,3 °C 4,8 km/h (1 Bft)
05.11.2018 11:02 17,4 °C 58 % 1008,2 hPa 0,0 mm 2,8 km/h (1 Bft) O-NO 63 ° 0 min 0,000 mm 1,4 UV-I 142 W/m² 9,1 °C 17,4 °C 4,8 km/h (1 Bft)
05.11.2018 11:03 17,7 °C 59 % 1008,2 hPa 0,0 mm 2,0 km/h (1 Bft) O-NO 63 ° 0 min 0,000 mm 1,4 UV-I 135 W/m² 9,6 °C 17,7 °C 4,8 km/h (1 Bft)
05.11.2018 11:04 17,7 °C 58 % 1008,2 hPa 0,0 mm 6,3 km/h (2 Bft) O-NO 70 ° 0 min 0,000 mm 1,4 UV-I 123 W/m² 9,3 °C 17,7 °C 9,7 km/h (2 Bft)
05.11.2018 11:05 17,7 °C 61 % 1008,2 hPa 0,0 mm 5,6 km/h (1 Bft) NO 51 ° 0 min 0,000 mm 1,4 UV-I 120 W/m² 10,1 °C 17,7 °C 9,7 km/h (2 Bft)
05.11.2018 11:06 17,7 °C 58 % 1008,2 hPa 0,0 mm 7,3 km/h (2 Bft) O-NO 67 ° 0 min 0,000 mm 1,4 UV-I 116 W/m² 9,3 °C 17,7 °C 11,3 km/h (2 Bft)
05.11.2018 11:07 17,7 °C 58 % 1008,2 hPa 0,0 mm 2,0 km/h (1 Bft) O-NO 67 ° 0 min 0,000 mm 1,4 UV-I 109 W/m² 9,3 °C 17,7 °C 4,8 km/h (1 Bft)
05.11.2018 11:08 17,7 °C 57 % 1008,2 hPa 0,0 mm 0,0 km/h (0 Bft) O-NO 67 ° 0 min 0,000 mm 1,4 UV-I 100 W/m² 9,1 °C 17,7 °C 0,0 km/h (0 Bft)
05.11.2018 11:09 17,8 °C 60 % 1008,1 hPa 0,0 mm 3,7 km/h (1 Bft) O-NO 73 ° 0 min 0,000 mm 1,4 UV-I 84 W/m² 9,9 °C 17,8 °C 8,0 km/h (2 Bft)
05.11.2018 11:10 17,7 °C 59 % 1008,1 hPa 0,0 mm 2,3 km/h (1 Bft) O 98 ° 0 min 0,000 mm 1,3 UV-I 81 W/m² 9,6 °C 17,7 °C 4,8 km/h (1 Bft)
05.11.2018 11:11 17,6 °C 62 % 1008,1 hPa 0,0 mm 3,3 km/h (1 Bft) O-NO 61 ° 0 min 0,000 mm 1,3 UV-I 76 W/m² 10,2 °C 17,6 °C 6,4 km/h (2 Bft)
05.11.2018 11:12 17,4 °C 61 % 1008,1 hPa 0,0 mm 4,7 km/h (1 Bft) O 85 ° 0 min 0,000 mm 1,3 UV-I 69 W/m² 9,8 °C 17,4 °C 6,4 km/h (2 Bft)
05.11.2018 11:13 17,4 °C 59 % 1008,1 hPa 0,0 mm 2,1 km/h (1 Bft) O-NO 78 ° 0 min 0,000 mm 1,3 UV-I 63 W/m² 9,3 °C 17,4 °C 4,8 km/h (1 Bft)
05.11.2018 11:14 17,4 °C 62 % 1008,1 hPa 0,0 mm 3,3 km/h (1 Bft) O 90 ° 0 min 0,000 mm 1,3 UV-I 56 W/m² 10,0 °C 17,4 °C 4,8 km/h (1 Bft)
05.11.2018 11:15 17,3 °C 58 % 1008,1 hPa 0,0 mm 1,9 km/h (1 Bft) O-NO 67 ° 0 min 0,000 mm 0,0 UV-I 49 W/m² 9,0 °C 17,3 °C 4,8 km/h (1 Bft)
05.11.2018 11:16 17,3 °C 58 % 1008,0 hPa 0,0 mm 1,8 km/h (1 Bft) N 360 ° 0 min 0,000 mm 0,0 UV-I 49 W/m² 9,0 °C 17,3 °C 3,2 km/h (1 Bft)
05.11.2018 11:17 17,4 °C 57 % 1008,1 hPa 0,0 mm 1,1 km/h (1 Bft) NO 55 ° 0 min 0,000 mm 0,0 UV-I 47 W/m² 8,8 °C 17,4 °C 3,2 km/h (1 Bft)
05.11.2018 11:18 17,2 °C 61 % 1008,1 hPa 0,0 mm 2,7 km/h (1 Bft) NO 45 ° 0 min 0,000 mm 0,0 UV-I 46 W/m² 9,6 °C 17,2 °C 6,4 km/h (2 Bft)
05.11.2018 11:19 17,1 °C 60 % 1008,1 hPa 0,0 mm 4,6 km/h (1 Bft) O-NO 71 ° 0 min 0,000 mm 0,0 UV-I 44 W/m² 9,3 °C 17,1 °C 8,0 km/h (2 Bft)
05.11.2018 11:20 17,1 °C 55 % 1008,1 hPa 0,0 mm 4,7 km/h (1 Bft) O 87 ° 0 min 0,000 mm 0,0 UV-I 44 W/m² 8,0 °C 17,1 °C 9,7 km/h (2 Bft)
05.11.2018 11:21 17,2 °C 58 % 1008,0 hPa 0,0 mm 1,0 km/h (0 Bft) O 88 ° 0 min 0,000 mm 0,0 UV-I 46 W/m² 8,9 °C 17,2 °C 4,8 km/h (1 Bft)
05.11.2018 11:22 17,2 °C 56 % 1007,9 hPa 0,0 mm 1,6 km/h (1 Bft) O-NO 71 ° 0 min 0,000 mm 0,0 UV-I 46 W/m² 8,3 °C 17,2 °C 4,8 km/h (1 Bft)
05.11.2018 11:23 17,3 °C 60 % 1008,0 hPa 0,0 mm 5,2 km/h (1 Bft) NO 41 ° 0 min 0,000 mm 0,0 UV-I 49 W/m² 9,5 °C 17,3 °C 9,7 km/h (2 Bft)
05.11.2018 11:24 17,3 °C 57 % 1007,9 hPa 0,0 mm 4,0 km/h (1 Bft) NO 43 ° 0 min 0,000 mm 0,0 UV-I 53 W/m² 8,7 °C 17,3 °C 6,4 km/h (2 Bft)
05.11.2018 11:25 17,2 °C 57 % 1007,9 hPa 0,0 mm 6,8 km/h (2 Bft) O-SO 114 ° 0 min 0,000 mm 0,0 UV-I 53 W/m² 8,6 °C 17,2 °C 12,9 km/h (3 Bft)
05.11.2018 11:26 17,2 °C 53 % 1007,8 hPa 0,0 mm 4,7 km/h (1 Bft) O 96 ° 0 min 0,000 mm 0,0 UV-I 54 W/m² 7,5 °C 17,2 °C 6,4 km/h (2 Bft)
05.11.2018 11:27 17,3 °C 54 % 1007,9 hPa 0,0 mm 0,4 km/h (0 Bft) O 96 ° 0 min 0,000 mm 1,3 UV-I 62 W/m² 7,9 °C 17,3 °C 1,6 km/h (1 Bft)
05.11.2018 11:28 17,2 °C 58 % 1007,9 hPa 0,0 mm 3,5 km/h (1 Bft) SO 128 ° 0 min 0,000 mm 1,3 UV-I 67 W/m² 8,9 °C 17,2 °C 6,4 km/h (2 Bft)
05.11.2018 11:29 17,1 °C 57 % 1007,9 hPa 0,0 mm 4,7 km/h (1 Bft) O-NO 68 ° 0 min 0,000 mm 1,3 UV-I 70 W/m² 8,5 °C 17,1 °C 6,4 km/h (2 Bft)
05.11.2018 11:30 17,1 °C 57 % 1007,9 hPa 0,0 mm 6,8 km/h (2 Bft) N-NO 24 ° 0 min 0,000 mm 1,3 UV-I 72 W/m² 8,5 °C 17,1 °C 11,3 km/h (2 Bft)
05.11.2018 11:31 17,2 °C 57 % 1007,9 hPa 0,0 mm 3,7 km/h (1 Bft) O-SO 103 ° 0 min 0,000 mm 1,3 UV-I 72 W/m² 8,6 °C 17,2 °C 9,7 km/h (2 Bft)
05.11.2018 11:32 17,2 °C 57 % 1007,9 hPa 0,0 mm 2,3 km/h (1 Bft) O 90 ° 0 min 0,000 mm 1,3 UV-I 74 W/m² 8,6 °C 17,2 °C 4,8 km/h (1 Bft)
05.11.2018 11:33 17,2 °C 57 % 1007,9 hPa 0,0 mm 2,9 km/h (1 Bft) O 82 ° 0 min 0,000 mm 1,3 UV-I 77 W/m² 8,6 °C 17,2 °C 4,8 km/h (1 Bft)
05.11.2018 11:34 17,1 °C 57 % 1008,0 hPa 0,0 mm 2,5 km/h (1 Bft) O-NO 67 ° 0 min 0,000 mm 1,4 UV-I 81 W/m² 8,5 °C 17,1 °C 4,8 km/h (1 Bft)
05.11.2018 11:35 17,3 °C 54 % 1008,0 hPa 0,0 mm 1,5 km/h (1 Bft) O-NO 61 ° 0 min 0,000 mm 1,4 UV-I 84 W/m² 7,9 °C 17,3 °C 4,8 km/h (1 Bft)
05.11.2018 11:36 17,4 °C 56 % 1007,9 hPa 0,0 mm 1,9 km/h (1 Bft) O-NO 62 ° 0 min 0,000 mm 1,4 UV-I 86 W/m² 8,5 °C 17,4 °C 3,2 km/h (1 Bft)
05.11.2018 11:37 17,3 °C 57 % 1007,9 hPa 0,0 mm 3,2 km/h (1 Bft) O-SO 121 ° 0 min 0,000 mm 1,4 UV-I 90 W/m² 8,7 °C 17,3 °C 4,8 km/h (1 Bft)
05.11.2018 11:38 17,5 °C 54 % 1007,9 hPa 0,0 mm 1,7 km/h (1 Bft) O 98 ° 0 min 0,000 mm 1,4 UV-I 90 W/m² 8,1 °C 17,5 °C 3,2 km/h (1 Bft)
05.11.2018 11:39 17,6 °C 55 % 1007,9 hPa 0,0 mm 1,0 km/h (0 Bft) O 101 ° 0 min 0,000 mm 1,4 UV-I 86 W/m² 8,5 °C 17,6 °C 3,2 km/h (1 Bft)
05.11.2018 11:40 17,6 °C 55 % 1007,8 hPa 0,0 mm 0,7 km/h (0 Bft) O 101 ° 0 min 0,000 mm 1,4 UV-I 81 W/m² 8,5 °C 17,6 °C 3,2 km/h (1 Bft)
05.11.2018 11:41 17,7 °C 54 % 1007,8 hPa 0,0 mm 1,4 km/h (1 Bft) O-SO 102 ° 0 min 0,000 mm 1,3 UV-I 72 W/m² 8,3 °C 17,7 °C 3,2 km/h (1 Bft)
05.11.2018 11:42 17,8 °C 54 % 1007,9 hPa 0,0 mm 2,6 km/h (1 Bft) O-NO 73 ° 0 min 0,000 mm 1,3 UV-I 62 W/m² 8,4 °C 17,8 °C 4,8 km/h (1 Bft)
05.11.2018 11:43 17,8 °C 52 % 1007,8 hPa 0,0 mm 2,8 km/h (1 Bft) O-NO 73 ° 0 min 0,000 mm 1,3 UV-I 58 W/m² 7,8 °C 17,8 °C 4,8 km/h (1 Bft)
05.11.2018 11:44 17,7 °C 56 % 1007,8 hPa 0,0 mm 4,5 km/h (1 Bft) O 80 ° 0 min 0,000 mm 0,0 UV-I 54 W/m² 8,8 °C 17,7 °C 11,3 km/h (2 Bft)
05.11.2018 11:45 17,6 °C 57 % 1007,8 hPa 0,0 mm 4,3 km/h (1 Bft) O 89 ° 0 min 0,000 mm 0,0 UV-I 49 W/m² 9,0 °C 17,6 °C 11,3 km/h (2 Bft)
05.11.2018 11:46 17,6 °C 54 % 1007,8 hPa 0,0 mm 1,4 km/h (1 Bft) O 88 ° 0 min 0,000 mm 0,0 UV-I 53 W/m² 8,2 °C 17,6 °C 3,2 km/h (1 Bft)
05.11.2018 11:47 17,6 °C 54 % 1007,8 hPa 0,0 mm 0,2 km/h (0 Bft) O 89 ° 0 min 0,000 mm 0,0 UV-I 54 W/m² 8,2 °C 17,6 °C 1,6 km/h (1 Bft)
05.11.2018 11:48 17,7 °C 56 % 1007,9 hPa 0,0 mm 1,4 km/h (1 Bft) O-NO 70 ° 0 min 0,000 mm 0,0 UV-I 54 W/m² 8,8 °C 17,7 °C 4,8 km/h (1 Bft)
05.11.2018 11:49 17,7 °C 55 % 1007,8 hPa 0,0 mm 2,9 km/h (1 Bft) O-SO 105 ° 0 min 0,000 mm 0,0 UV-I 53 W/m² 8,5 °C 17,7 °C 4,8 km/h (1 Bft)
05.11.2018 11:50 17,6 °C 55 % 1007,8 hPa 0,0 mm 0,8 km/h (0 Bft) O-SO 105 ° 0 min 0,000 mm 0,0 UV-I 51 W/m² 8,5 °C 17,6 °C 1,6 km/h (1 Bft)
05.11.2018 11:51 17,6 °C 55 % 1007,8 hPa 0,0 mm 0,6 km/h (0 Bft) O-SO 104 ° 0 min 0,000 mm 0,0 UV-I 46 W/m² 8,5 °C 17,6 °C 1,6 km/h (1 Bft)
05.11.2018 11:52 17,6 °C 55 % 1007,8 hPa 0,0 mm 0,3 km/h (0 Bft) O-SO 104 ° 0 min 0,000 mm 0,0 UV-I 40 W/m² 8,5 °C 17,6 °C 1,6 km/h (1 Bft)
05.11.2018 11:53 17,4 °C 58 % 1007,8 hPa 0,0 mm 4,0 km/h (1 Bft) O-SO 105 ° 0 min 0,000 mm 0,0 UV-I 39 W/m² 9,1 °C 17,4 °C 6,4 km/h (2 Bft)
05.11.2018 11:54 17,3 °C 56 % 1007,8 hPa 0,0 mm 3,4 km/h (1 Bft) O-NO 57 ° 0 min 0,000 mm 0,0 UV-I 37 W/m² 8,4 °C 17,3 °C 4,8 km/h (1 Bft)
05.11.2018 11:55 17,2 °C 58 % 1007,7 hPa 0,0 mm 6,5 km/h (2 Bft) O-SO 109 ° 0 min 0,000 mm 0,0 UV-I 37 W/m² 8,9 °C 17,2 °C 12,9 km/h (3 Bft)
05.11.2018 11:56 17,2 °C 58 % 1007,7 hPa 0,0 mm 3,5 km/h (1 Bft) O-SO 118 ° 0 min 0,000 mm 0,0 UV-I 37 W/m² 8,9 °C 17,2 °C 6,4 km/h (2 Bft)
05.11.2018 11:57 17,2 °C 54 % 1007,7 hPa 0,0 mm 1,0 km/h (0 Bft) SO 145 ° 0 min 0,000 mm 0,0 UV-I 35 W/m² 7,8 °C 17,2 °C 4,8 km/h (1 Bft)
05.11.2018 11:58 17,3 °C 54 % 1007,8 hPa 0,0 mm 2,5 km/h (1 Bft) O-NO 62 ° 0 min 0,000 mm 0,0 UV-I 39 W/m² 7,9 °C 17,3 °C 4,8 km/h (1 Bft)
05.11.2018 11:59 17,3 °C 55 % 1007,8 hPa 0,0 mm 1,8 km/h (1 Bft) N 5 ° 0 min 0,000 mm 0,0 UV-I 37 W/m² 8,2 °C 17,3 °C 3,2 km/h (1 Bft)
05.11.2018 12:00 17,3 °C 54 % 1007,8 hPa 0,0 mm 3,4 km/h (1 Bft) N-NW 343 ° 0 min 0,051 mm 0,0 UV-I 37 W/m² 7,9 °C 17,3 °C 6,4 km/h (2 Bft)
05.11.2018 12:01 17,3 °C 54 % 1007,7 hPa 0,0 mm 2,0 km/h (1 Bft) N-NO 21 ° 0 min 0,000 mm 0,0 UV-I 35 W/m² 7,9 °C 17,3 °C 4,8 km/h (1 Bft)
05.11.2018 12:02 17,4 °C 55 % 1007,8 hPa 0,0 mm 5,8 km/h (2 Bft) O-NO 65 ° 0 min 0,000 mm 0,0 UV-I 32 W/m² 8,3 °C 17,4 °C 9,7 km/h (2 Bft)
05.11.2018 12:03 17,4 °C 56 % 1007,8 hPa 0,0 mm 4,8 km/h (1 Bft) O-NO 59 ° 0 min 0,000 mm 0,0 UV-I 32 W/m² 8,5 °C 17,4 °C 6,4 km/h (2 Bft)
05.11.2018 12:04 17,4 °C 54 % 1007,8 hPa 0,0 mm 2,7 km/h (1 Bft) O-NO 60 ° 0 min 0,000 mm 0,0 UV-I 32 W/m² 8,0 °C 17,4 °C 4,8 km/h (1 Bft)
05.11.2018 12:05 17,3 °C 55 % 1007,8 hPa 0,0 mm 1,4 km/h (1 Bft) O-NO 60 ° 0 min 0,000 mm 0,0 UV-I 30 W/m² 8,2 °C 17,3 °C 4,8 km/h (1 Bft)
05.11.2018 12:06 17,2 °C 57 % 1007,7 hPa 0,0 mm 2,9 km/h (1 Bft) NO 55 ° 0 min 0,000 mm 0,0 UV-I 30 W/m² 8,6 °C 17,2 °C 6,4 km/h (2 Bft)
05.11.2018 12:07 17,1 °C 56 % 1007,7 hPa 0,0 mm 0,7 km/h (0 Bft) NO 56 ° 0 min 0,000 mm 0,0 UV-I 30 W/m² 8,3 °C 17,1 °C 3,2 km/h (1 Bft)
05.11.2018 12:08 17,1 °C 56 % 1007,6 hPa 0,0 mm 0,6 km/h (0 Bft) NO 56 ° 0 min 0,000 mm 0,0 UV-I 30 W/m² 8,3 °C 17,1 °C 4,8 km/h (1 Bft)
05.11.2018 12:09 17,1 °C 57 % 1007,6 hPa 0,0 mm 3,6 km/h (1 Bft) O 86 ° 0 min 0,000 mm 0,0 UV-I 28 W/m² 8,5 °C 17,1 °C 6,4 km/h (2 Bft)
05.11.2018 12:10 17,0 °C 58 % 1007,7 hPa 0,0 mm 7,4 km/h (2 Bft) O-NO 67 ° 0 min 0,000 mm 0,0 UV-I 28 W/m² 8,7 °C 17,0 °C 12,9 km/h (3 Bft)
05.11.2018 12:11 17,1 °C 54 % 1007,6 hPa 0,0 mm 8,0 km/h (2 Bft) O-SO 102 ° 0 min 0,000 mm 0,0 UV-I 28 W/m² 7,7 °C 17,1 °C 12,9 km/h (3 Bft)
05.11.2018 12:12 17,4 °C 51 % 1007,6 hPa 0,0 mm 4,4 km/h (1 Bft) N-NO 31 ° 0 min 0,000 mm 0,0 UV-I 28 W/m² 7,2 °C 17,4 °C 6,4 km/h (2 Bft)
05.11.2018 12:13 17,7 °C 51 % 1007,6 hPa 0,0 mm 8,5 km/h (2 Bft) O-NO 78 ° 0 min 0,000 mm 0,0 UV-I 28 W/m² 7,4 °C 17,7 °C 20,9 km/h (4 Bft)
05.11.2018 12:14 17,7 °C 54 % 1007,6 hPa 0,0 mm 8,9 km/h (2 Bft) O-NO 62 ° 0 min 0,000 mm 0,0 UV-I 28 W/m² 8,3 °C 17,7 °C 17,7 km/h (3 Bft)
05.11.2018 12:15 17,8 °C 51 % 1007,6 hPa 0,0 mm 6,4 km/h (2 Bft) O-NO 78 ° 0 min 0,000 mm 0,0 UV-I 28 W/m² 7,5 °C 17,8 °C 8,0 km/h (2 Bft)
05.11.2018 12:16 17,9 °C 52 % 1007,6 hPa 0,0 mm 4,6 km/h (1 Bft) O 92 ° 0 min 0,000 mm 0,0 UV-I 28 W/m² 7,9 °C 17,9 °C 9,7 km/h (2 Bft)
05.11.2018 12:17 17,9 °C 52 % 1007,6 hPa 0,0 mm 5,6 km/h (1 Bft) O 94 ° 0 min 0,000 mm 0,0 UV-I 28 W/m² 7,9 °C 17,9 °C 8,0 km/h (2 Bft)
05.11.2018 12:18 17,9 °C 52 % 1007,6 hPa 0,0 mm 3,9 km/h (1 Bft) NO 47 ° 0 min 0,000 mm 0,0 UV-I 28 W/m² 7,9 °C 17,9 °C 6,4 km/h (2 Bft)
05.11.2018 12:19 18,0 °C 52 % 1007,5 hPa 0,0 mm 3,7 km/h (1 Bft) NO 42 ° 0 min 0,000 mm 0,0 UV-I 28 W/m² 8,0 °C 18,0 °C 6,4 km/h (2 Bft)
05.11.2018 12:20 18,1 °C 51 % 1007,5 hPa 0,0 mm 2,7 km/h (1 Bft) O-SO 104 ° 0 min 0,000 mm 0,0 UV-I 28 W/m² 7,8 °C 18,1 °C 4,8 km/h (1 Bft)
05.11.2018 12:21 18,1 °C 51 % 1007,5 hPa 0,0 mm 0,3 km/h (0 Bft) O 91 ° 0 min 0,000 mm 0,0 UV-I 28 W/m² 7,8 °C 18,1 °C 1,6 km/h (1 Bft)
05.11.2018 12:22 18,1 °C 51 % 1007,6 hPa 0,0 mm 1,7 km/h (1 Bft) O-NO 73 ° 0 min 0,000 mm 0,0 UV-I 26 W/m² 7,8 °C 18,1 °C 4,8 km/h (1 Bft)
05.11.2018 12:23 18,1 °C 51 % 1007,5 hPa 0,0 mm 1,3 km/h (1 Bft) SO 135 ° 0 min 0,000 mm 0,0 UV-I 26 W/m² 7,8 °C 18,1 °C 3,2 km/h (1 Bft)
05.11.2018 12:24 18,0 °C 53 % 1007,5 hPa 0,0 mm 3,7 km/h (1 Bft) N-NO 31 ° 0 min 0,000 mm 0,0 UV-I 26 W/m² 8,3 °C 18,0 °C 6,4 km/h (2 Bft)
05.11.2018 12:25 17,8 °C 53 % 1007,5 hPa 0,0 mm 3,6 km/h (1 Bft) O 84 ° 0 min 0,000 mm 0,0 UV-I 26 W/m² 8,1 °C 17,8 °C 6,4 km/h (2 Bft)
05.11.2018 12:26 17,6 °C 53 % 1007,5 hPa 0,0 mm 0,7 km/h (0 Bft) O 84 ° 0 min 0,000 mm 0,0 UV-I 26 W/m² 7,9 °C 17,6 °C 1,6 km/h (1 Bft)
05.11.2018 12:27 17,6 °C 52 % 1007,5 hPa 0,0 mm 0,0 km/h (0 Bft) O 84 ° 0 min 0,000 mm 0,0 UV-I 26 W/m² 7,6 °C 17,6 °C 0,0 km/h (0 Bft)
05.11.2018 12:28 17,7 °C 53 % 1007,5 hPa 0,0 mm 0,2 km/h (0 Bft) O 84 ° 0 min 0,000 mm 0,0 UV-I 28 W/m² 8,0 °C 17,7 °C 1,6 km/h (1 Bft)
05.11.2018 12:29 17,7 °C 53 % 1007,5 hPa 0,0 mm 2,2 km/h (1 Bft) N-NW 336 ° 0 min 0,000 mm 0,0 UV-I 28 W/m² 8,0 °C 17,7 °C 4,8 km/h (1 Bft)
05.11.2018 12:30 17,7 °C 53 % 1007,5 hPa 0,0 mm 2,6 km/h (1 Bft) NW 313 ° 0 min 0,000 mm 0,0 UV-I 28 W/m² 8,0 °C 17,7 °C 3,2 km/h (1 Bft)
05.11.2018 12:31 17,6 °C 53 % 1007,5 hPa 0,0 mm 2,9 km/h (1 Bft) S-SW 202 ° 0 min 0,000 mm 0,0 UV-I 28 W/m² 7,9 °C 17,6 °C 4,8 km/h (1 Bft)
05.11.2018 12:32 17,6 °C 52 % 1007,5 hPa 0,0 mm 1,8 km/h (1 Bft) S-SW 202 ° 0 min 0,000 mm 0,0 UV-I 28 W/m² 7,6 °C 17,6 °C 4,8 km/h (1 Bft)
05.11.2018 12:33 17,8 °C 51 % 1007,4 hPa 0,0 mm 0,9 km/h (0 Bft) W-SW 242 ° 0 min 0,000 mm 0,0 UV-I 30 W/m² 7,5 °C 17,8 °C 4,8 km/h (1 Bft)
05.11.2018 12:34 18,0 °C 48 % 1007,4 hPa 0,0 mm 0,7 km/h (0 Bft) W-SW 242 ° 0 min 0,000 mm 0,0 UV-I 30 W/m² 6,8 °C 18,0 °C 4,8 km/h (1 Bft)
05.11.2018 12:35 18,1 °C 50 % 1007,5 hPa 0,0 mm 1,3 km/h (1 Bft) W 265 ° 0 min 0,000 mm 0,0 UV-I 30 W/m² 7,5 °C 18,1 °C 3,2 km/h (1 Bft)
05.11.2018 12:36 18,1 °C 48 % 1007,6 hPa 0,0 mm 4,9 km/h (1 Bft) W 281 ° 0 min 0,000 mm 0,0 UV-I 32 W/m² 6,9 °C 18,1 °C 6,4 km/h (2 Bft)
05.11.2018 12:37 18,3 °C 49 % 1007,5 hPa 0,0 mm 2,8 km/h (1 Bft) W-NW 288 ° 0 min 0,000 mm 0,0 UV-I 33 W/m² 7,4 °C 18,3 °C 4,8 km/h (1 Bft)
05.11.2018 12:38 18,5 °C 48 % 1007,5 hPa 0,0 mm 5,8 km/h (2 Bft) W-NW 299 ° 0 min 0,000 mm 0,0 UV-I 32 W/m² 7,3 °C 18,5 °C 11,3 km/h (2 Bft)
05.11.2018 12:39 18,6 °C 49 % 1007,5 hPa 0,0 mm 0,7 km/h (0 Bft) W-NW 298 ° 0 min 0,000 mm 0,0 UV-I 32 W/m² 7,7 °C 18,6 °C 4,8 km/h (1 Bft)
05.11.2018 12:40 18,6 °C 49 % 1007,5 hPa 0,0 mm 0,4 km/h (0 Bft) W-NW 298 ° 0 min 0,000 mm 0,0 UV-I 32 W/m² 7,7 °C 18,6 °C 1,6 km/h (1 Bft)
05.11.2018 12:41 18,4 °C 52 % 1007,5 hPa 0,0 mm 0,3 km/h (0 Bft) NW 321 ° 0 min 0,000 mm 0,0 UV-I 30 W/m² 8,4 °C 18,4 °C 1,6 km/h (1 Bft)
05.11.2018 12:42 18,2 °C 51 % 1007,5 hPa 0,0 mm 1,7 km/h (1 Bft) N 355 ° 0 min 0,000 mm 0,0 UV-I 30 W/m² 7,9 °C 18,2 °C 3,2 km/h (1 Bft)
05.11.2018 12:43 18,2 °C 50 % 1007,5 hPa 0,0 mm 0,5 km/h (0 Bft) N 355 ° 0 min 0,000 mm 0,0 UV-I 37 W/m² 7,6 °C 18,2 °C 1,6 km/h (1 Bft)
05.11.2018 12:44 18,2 °C 50 % 1007,5 hPa 0,0 mm 1,4 km/h (1 Bft) N 360 ° 0 min 0,000 mm 0,0 UV-I 46 W/m² 7,6 °C 18,2 °C 3,2 km/h (1 Bft)
05.11.2018 12:45 18,2 °C 51 % 1007,3 hPa 0,0 mm 1,1 km/h (1 Bft) N 360 ° 0 min 0,000 mm 1,2 UV-I 56 W/m² 7,9 °C 18,2 °C 1,6 km/h (1 Bft)
05.11.2018 12:46 18,3 °C 52 % 1007,3 hPa 0,0 mm 0,1 km/h (0 Bft) N 360 ° 0 min 0,000 mm 1,3 UV-I 69 W/m² 8,3 °C 18,3 °C 1,6 km/h (1 Bft)
05.11.2018 12:47 18,3 °C 51 % 1007,4 hPa 0,0 mm 2,0 km/h (1 Bft) W-SW 252 ° 0 min 0,000 mm 1,3 UV-I 81 W/m² 8,0 °C 18,3 °C 3,2 km/h (1 Bft)
05.11.2018 12:48 18,5 °C 44 % 1007,3 hPa 0,0 mm 2,5 km/h (1 Bft) W-NW 296 ° 0 min 0,000 mm 1,3 UV-I 93 W/m² 6,0 °C 18,5 °C 6,4 km/h (2 Bft)
05.11.2018 12:49 18,6 °C 46 % 1007,3 hPa 0,0 mm 6,3 km/h (2 Bft) SW 221 ° 0 min 0,000 mm 1,3 UV-I 100 W/m² 6,8 °C 18,6 °C 12,9 km/h (3 Bft)
05.11.2018 12:50 18,9 °C 44 % 1007,3 hPa 0,0 mm 4,6 km/h (1 Bft) W-SW 242 ° 0 min 0,000 mm 1,3 UV-I 98 W/m² 6,4 °C 18,9 °C 8,0 km/h (2 Bft)
05.11.2018 12:51 19,1 °C 42 % 1007,3 hPa 0,0 mm 5,0 km/h (1 Bft) W-SW 249 ° 0 min 0,000 mm 1,3 UV-I 93 W/m² 5,9 °C 19,1 °C 9,7 km/h (2 Bft)
05.11.2018 12:52 19,2 °C 44 % 1007,2 hPa 0,0 mm 4,3 km/h (1 Bft) S-SW 207 ° 0 min 0,000 mm 1,3 UV-I 86 W/m² 6,7 °C 19,2 °C 6,4 km/h (2 Bft)
05.11.2018 12:53 19,2 °C 46 % 1007,2 hPa 0,0 mm 0,2 km/h (0 Bft) S-SW 209 ° 0 min 0,000 mm 1,3 UV-I 83 W/m² 7,3 °C 19,2 °C 1,6 km/h (1 Bft)
05.11.2018 12:54 19,2 °C 47 % 1007,2 hPa 0,0 mm 1,1 km/h (1 Bft) W-SW 240 ° 0 min 0,000 mm 1,3 UV-I 77 W/m² 7,6 °C 19,2 °C 3,2 km/h (1 Bft)
05.11.2018 12:55 19,1 °C 47 % 1007,2 hPa 0,0 mm 0,1 km/h (0 Bft) W-SW 240 ° 0 min 0,000 mm 1,3 UV-I 67 W/m² 7,5 °C 19,1 °C 1,6 km/h (1 Bft)
05.11.2018 12:56 18,7 °C 50 % 1007,2 hPa 0,0 mm 1,3 km/h (1 Bft) N-NW 333 ° 0 min 0,000 mm 1,3 UV-I 63 W/m² 8,1 °C 18,7 °C 4,8 km/h (1 Bft)
05.11.2018 12:57 18,6 °C 47 % 1007,1 hPa 0,0 mm 4,0 km/h (1 Bft) W-SW 247 ° 0 min 0,000 mm 1,2 UV-I 63 W/m² 7,1 °C 18,6 °C 12,9 km/h (3 Bft)
05.11.2018 12:58 18,5 °C 48 % 1007,1 hPa 0,0 mm 6,4 km/h (2 Bft) O-SO 105 ° 0 min 0,000 mm 1,3 UV-I 67 W/m² 7,3 °C 18,5 °C 11,3 km/h (2 Bft)
05.11.2018 12:59 18,6 °C 44 % 1007,1 hPa 0,0 mm 5,5 km/h (1 Bft) SW 224 ° 0 min 0,000 mm 1,3 UV-I 72 W/m² 6,1 °C 18,6 °C 9,7 km/h (2 Bft)
05.11.2018 13:00 18,7 °C 47 % 1007,1 hPa 0,0 mm 0,9 km/h (0 Bft) O-NO 64 ° 0 min 0,000 mm 1,3 UV-I 74 W/m² 7,2 °C 18,7 °C 3,2 km/h (1 Bft)
05.11.2018 13:01 18,7 °C 46 % 1007,1 hPa 0,0 mm 0,6 km/h (0 Bft) W 269 ° 0 min 0,051 mm 1,3 UV-I 65 W/m² 6,8 °C 18,7 °C 3,2 km/h (1 Bft)
05.11.2018 13:02 18,8 °C 43 % 1007,1 hPa 0,0 mm 1,7 km/h (1 Bft) W-SW 252 ° 0 min 0,000 mm 0,0 UV-I 53 W/m² 6,0 °C 18,8 °C 4,8 km/h (1 Bft)
05.11.2018 13:03 18,9 °C 46 % 1007,0 hPa 0,0 mm 5,0 km/h (1 Bft) W 269 ° 0 min 0,000 mm 0,0 UV-I 40 W/m² 7,0 °C 18,9 °C 9,7 km/h (2 Bft)
05.11.2018 13:04 19,1 °C 41 % 1007,1 hPa 0,0 mm 4,4 km/h (1 Bft) S-SW 208 ° 0 min 0,000 mm 0,0 UV-I 35 W/m² 5,5 °C 19,1 °C 9,7 km/h (2 Bft)
05.11.2018 13:05 19,2 °C 45 % 1007,0 hPa 0,0 mm 2,0 km/h (1 Bft) S-SW 210 ° 0 min 0,000 mm 0,0 UV-I 32 W/m² 7,0 °C 19,2 °C 4,8 km/h (1 Bft)
05.11.2018 13:06 19,2 °C 43 % 1007,0 hPa 0,0 mm 1,5 km/h (1 Bft) S-SW 213 ° 0 min 0,000 mm 0,0 UV-I 30 W/m² 6,3 °C 19,2 °C 3,2 km/h (1 Bft)
05.11.2018 13:07 19,2 °C 46 % 1007,0 hPa 0,0 mm 1,5 km/h (1 Bft) S-SW 213 ° 0 min 0,000 mm 0,0 UV-I 30 W/m² 7,3 °C 19,2 °C 3,2 km/h (1 Bft)
05.11.2018 13:08 18,9 °C 49 % 1007,0 hPa 0,0 mm 1,8 km/h (1 Bft) NO 55 ° 0 min 0,000 mm 0,0 UV-I 32 W/m² 7,9 °C 18,9 °C 4,8 km/h (1 Bft)
05.11.2018 13:09 18,7 °C 46 % 1007,1 hPa 0,0 mm 1,0 km/h (0 Bft) O 94 ° 0 min 0,000 mm 0,0 UV-I 33 W/m² 6,8 °C 18,7 °C 4,8 km/h (1 Bft)
05.11.2018 13:10 18,7 °C 45 % 1007,1 hPa 0,0 mm 4,0 km/h (1 Bft) N-NO 29 ° 0 min 0,000 mm 0,0 UV-I 35 W/m² 6,5 °C 18,7 °C 6,4 km/h (2 Bft)
05.11.2018 13:11 18,7 °C 46 % 1007,1 hPa 0,0 mm 1,0 km/h (0 Bft) N-NO 29 ° 0 min 0,000 mm 0,0 UV-I 39 W/m² 6,8 °C 18,7 °C 3,2 km/h (1 Bft)
05.11.2018 13:12 18,6 °C 48 % 1007,1 hPa 0,0 mm 1,0 km/h (0 Bft) N-NO 29 ° 0 min 0,000 mm 1,2 UV-I 65 W/m² 7,4 °C 18,6 °C 3,2 km/h (1 Bft)
05.11.2018 13:13 18,6 °C 46 % 1007,0 hPa 0,0 mm 2,1 km/h (1 Bft) N-NO 27 ° 0 min 0,000 mm 1,2 UV-I 49 W/m² 6,8 °C 18,6 °C 4,8 km/h (1 Bft)
05.11.2018 13:14 18,6 °C 48 % 1007,1 hPa 0,0 mm 1,4 km/h (1 Bft) O-SO 122 ° 0 min 0,000 mm 0,0 UV-I 44 W/m² 7,4 °C 18,6 °C 4,8 km/h (1 Bft)
05.11.2018 13:15 18,6 °C 47 % 1007,1 hPa 0,0 mm 2,8 km/h (1 Bft) S 190 ° 0 min 0,000 mm 0,0 UV-I 47 W/m² 7,1 °C 18,6 °C 4,8 km/h (1 Bft)
05.11.2018 13:16 18,6 °C 48 % 1007,1 hPa 0,0 mm 4,1 km/h (1 Bft) O-NO 78 ° 0 min 0,000 mm 1,2 UV-I 83 W/m² 7,4 °C 18,6 °C 8,0 km/h (2 Bft)
05.11.2018 13:17 18,8 °C 46 % 1007,0 hPa 0,0 mm 1,8 km/h (1 Bft) O-NO 78 ° 0 min 0,000 mm 1,3 UV-I 127 W/m² 6,9 °C 18,8 °C 4,8 km/h (1 Bft)
05.11.2018 13:18 18,8 °C 46 % 1007,0 hPa 0,0 mm 0,1 km/h (0 Bft) O-NO 78 ° 0 min 0,000 mm 1,5 UV-I 127 W/m² 6,9 °C 18,8 °C 1,6 km/h (1 Bft)
05.11.2018 13:19 18,9 °C 44 % 1007,0 hPa 0,0 mm 0,0 km/h (0 Bft) O-NO 78 ° 0 min 0,000 mm 1,8 UV-I 462 W/m² 6,4 °C 18,9 °C 0,0 km/h (0 Bft)
05.11.2018 13:20 19,1 °C 42 % 1007,0 hPa 0,0 mm 1,4 km/h (1 Bft) S-SW 196 ° 0 min 0,000 mm 2,0 UV-I 469 W/m² 5,9 °C 19,1 °C 3,2 km/h (1 Bft)
05.11.2018 13:21 19,1 °C 48 % 1007,0 hPa 0,0 mm 2,2 km/h (1 Bft) S 179 ° 0 min 0,000 mm 2,0 UV-I 475 W/m² 7,8 °C 19,1 °C 3,2 km/h (1 Bft)
05.11.2018 13:22 18,9 °C 43 % 1007,0 hPa 0,0 mm 0,0 km/h (0 Bft) SO 135 ° 0 min 0,000 mm 2,1 UV-I 478 W/m² 6,0 °C 18,9 °C 0,0 km/h (0 Bft)
05.11.2018 13:23 18,9 °C 46 % 1007,0 hPa 0,0 mm 1,1 km/h (1 Bft) SO 134 ° 0 min 0,000 mm 2,1 UV-I 468 W/m² 7,0 °C 18,9 °C 3,2 km/h (1 Bft)
05.11.2018 13:24 18,8 °C 47 % 1007,0 hPa 0,0 mm 1,5 km/h (1 Bft) O 92 ° 0 min 0,000 mm 2,1 UV-I 485 W/m² 7,2 °C 18,8 °C 3,2 km/h (1 Bft)
05.11.2018 13:25 18,7 °C 50 % 1007,0 hPa 0,0 mm 4,8 km/h (1 Bft) O-NO 69 ° 0 min 0,000 mm 2,1 UV-I 492 W/m² 8,1 °C 18,7 °C 14,5 km/h (3 Bft)
05.11.2018 13:26 18,8 °C 45 % 1007,0 hPa 0,0 mm 3,4 km/h (1 Bft) S-SO 161 ° 0 min 0,000 mm 2,1 UV-I 487 W/m² 6,6 °C 18,8 °C 8,0 km/h (2 Bft)
05.11.2018 13:27 19,0 °C 44 % 1006,9 hPa 0,0 mm 0,9 km/h (0 Bft) S-SO 160 ° 0 min 0,000 mm 2,1 UV-I 482 W/m² 6,5 °C 19,0 °C 3,2 km/h (1 Bft)
05.11.2018 13:28 19,3 °C 44 % 1006,9 hPa 0,0 mm 1,7 km/h (1 Bft) NO 47 ° 0 min 0,000 mm 2,1 UV-I 480 W/m² 6,7 °C 19,3 °C 4,8 km/h (1 Bft)
05.11.2018 13:29 19,3 °C 48 % 1007,0 hPa 0,0 mm 1,1 km/h (1 Bft) O-NO 67 ° 0 min 0,000 mm 2,1 UV-I 483 W/m² 8,0 °C 19,3 °C 3,2 km/h (1 Bft)
05.11.2018 13:30 19,2 °C 49 % 1006,9 hPa 0,0 mm 2,1 km/h (1 Bft) O 82 ° 0 min 0,000 mm 2,1 UV-I 483 W/m² 8,2 °C 19,2 °C 4,8 km/h (1 Bft)
05.11.2018 13:31 19,2 °C 47 % 1007,0 hPa 0,0 mm 1,0 km/h (0 Bft) O 82 ° 0 min 0,000 mm 2,1 UV-I 480 W/m² 7,6 °C 19,2 °C 1,6 km/h (1 Bft)
05.11.2018 13:32 19,1 °C 47 % 1007,0 hPa 0,0 mm 2,0 km/h (1 Bft) O-SO 121 ° 0 min 0,000 mm 2,1 UV-I 478 W/m² 7,5 °C 19,1 °C 4,8 km/h (1 Bft)
05.11.2018 13:33 19,2 °C 46 % 1007,0 hPa 0,0 mm 1,7 km/h (1 Bft) O-SO 114 ° 0 min 0,000 mm 2,1 UV-I 478 W/m² 7,3 °C 19,2 °C 3,2 km/h (1 Bft)
05.11.2018 13:34 19,1 °C 47 % 1007,0 hPa 0,0 mm 4,3 km/h (1 Bft) O 94 ° 0 min 0,000 mm 2,1 UV-I 478 W/m² 7,5 °C 19,1 °C 9,7 km/h (2 Bft)
05.11.2018 13:35 19,2 °C 45 % 1007,0 hPa 0,0 mm 8,0 km/h (2 Bft) O-NO 65 ° 0 min 0,000 mm 2,1 UV-I 476 W/m² 7,0 °C 19,2 °C 16,1 km/h (3 Bft)
05.11.2018 13:36 19,2 °C 47 % 1006,9 hPa 0,0 mm 7,3 km/h (2 Bft) O-NO 61 ° 0 min 0,000 mm 2,1 UV-I 473 W/m² 7,6 °C 19,2 °C 14,5 km/h (3 Bft)
05.11.2018 13:37 19,4 °C 43 % 1006,9 hPa 0,0 mm 7,4 km/h (2 Bft) O 87 ° 0 min 0,000 mm 2,0 UV-I 469 W/m² 6,5 °C 19,4 °C 12,9 km/h (3 Bft)
05.11.2018 13:38 19,3 °C 46 % 1006,9 hPa 0,0 mm 3,8 km/h (1 Bft) O-NO 71 ° 0 min 0,000 mm 2,0 UV-I 466 W/m² 7,4 °C 19,3 °C 9,7 km/h (2 Bft)
05.11.2018 13:39 19,6 °C 44 % 1006,9 hPa 0,0 mm 6,2 km/h (2 Bft) O-NO 57 ° 0 min 0,000 mm 2,0 UV-I 462 W/m² 7,0 °C 19,6 °C 8,0 km/h (2 Bft)
05.11.2018 13:40 19,8 °C 47 % 1006,9 hPa 0,0 mm 4,0 km/h (1 Bft) N 360 ° 0 min 0,000 mm 2,0 UV-I 459 W/m² 8,2 °C 19,8 °C 6,4 km/h (2 Bft)
05.11.2018 13:41 19,7 °C 48 % 1006,9 hPa 0,0 mm 2,9 km/h (1 Bft) O 80 ° 0 min 0,000 mm 2,0 UV-I 459 W/m² 8,4 °C 19,7 °C 4,8 km/h (1 Bft)
05.11.2018 13:42 19,7 °C 42 % 1007,0 hPa 0,0 mm 1,7 km/h (1 Bft) O 80 ° 0 min 0,000 mm 2,0 UV-I 457 W/m² 6,4 °C 19,7 °C 3,2 km/h (1 Bft)
05.11.2018 13:43 19,7 °C 42 % 1006,9 hPa 0,0 mm 2,1 km/h (1 Bft) O 80 ° 0 min 0,000 mm 2,0 UV-I 454 W/m² 6,4 °C 19,7 °C 3,2 km/h (1 Bft)
05.11.2018 13:44 19,7 °C 44 % 1007,0 hPa 0,0 mm 4,8 km/h (1 Bft) N 5 ° 0 min 0,000 mm 1,9 UV-I 448 W/m² 7,1 °C 19,7 °C 9,7 km/h (2 Bft)
05.11.2018 13:45 19,7 °C 45 % 1006,9 hPa 0,0 mm 3,3 km/h (1 Bft) O 94 ° 0 min 0,000 mm 1,9 UV-I 439 W/m² 7,4 °C 19,7 °C 6,4 km/h (2 Bft)
05.11.2018 13:46 19,6 °C 44 % 1006,9 hPa 0,0 mm 4,7 km/h (1 Bft) NO 44 ° 0 min 0,000 mm 1,9 UV-I 431 W/m² 7,0 °C 19,6 °C 8,0 km/h (2 Bft)
05.11.2018 13:47 19,6 °C 45 % 1007,0 hPa 0,0 mm 5,4 km/h (1 Bft) S 179 ° 0 min 0,000 mm 1,8 UV-I 424 W/m² 7,3 °C 19,6 °C 8,0 km/h (2 Bft)
05.11.2018 13:48 19,7 °C 44 % 1007,1 hPa 0,0 mm 1,5 km/h (1 Bft) NO 45 ° 0 min 0,000 mm 1,8 UV-I 397 W/m² 7,1 °C 19,7 °C 3,2 km/h (1 Bft)
05.11.2018 13:49 19,7 °C 46 % 1007,0 hPa 0,0 mm 3,5 km/h (1 Bft) NO 53 ° 0 min 0,000 mm 1,8 UV-I 403 W/m² 7,8 °C 19,7 °C 4,8 km/h (1 Bft)
05.11.2018 13:50 19,6 °C 46 % 1007,0 hPa 0,0 mm 1,4 km/h (1 Bft) NO 44 ° 0 min 0,000 mm 1,8 UV-I 396 W/m² 7,7 °C 19,6 °C 4,8 km/h (1 Bft)
05.11.2018 13:51 19,6 °C 45 % 1007,0 hPa 0,0 mm 1,3 km/h (1 Bft) NO 34 ° 0 min 0,000 mm 1,8 UV-I 369 W/m² 7,3 °C 19,6 °C 3,2 km/h (1 Bft)
05.11.2018 13:52 19,7 °C 47 % 1007,0 hPa 0,0 mm 0,2 km/h (0 Bft) NO 34 ° 0 min 0,000 mm 1,7 UV-I 334 W/m² 8,1 °C 19,7 °C 1,6 km/h (1 Bft)
05.11.2018 13:53 19,5 °C 51 % 1006,9 hPa 0,0 mm 0,2 km/h (0 Bft) NO 34 ° 0 min 0,000 mm 1,7 UV-I 338 W/m² 9,1 °C 19,5 °C 3,2 km/h (1 Bft)
05.11.2018 13:54 19,4 °C 49 % 1006,9 hPa 0,0 mm 1,9 km/h (1 Bft) NO 49 ° 0 min 0,000 mm 1,7 UV-I 390 W/m² 8,4 °C 19,4 °C 3,2 km/h (1 Bft)
05.11.2018 13:55 19,3 °C 48 % 1006,9 hPa 0,0 mm 2,5 km/h (1 Bft) O-NO 67 ° 0 min 0,000 mm 1,7 UV-I 396 W/m² 8,0 °C 19,3 °C 4,8 km/h (1 Bft)
05.11.2018 13:56 19,3 °C 50 % 1006,9 hPa 0,0 mm 2,4 km/h (1 Bft) NO 55 ° 0 min 0,000 mm 1,7 UV-I 390 W/m² 8,6 °C 19,3 °C 3,2 km/h (1 Bft)
05.11.2018 13:57 19,4 °C 44 % 1006,9 hPa 0,0 mm 3,0 km/h (1 Bft) N 355 ° 0 min 0,000 mm 1,7 UV-I 394 W/m² 6,8 °C 19,4 °C 6,4 km/h (2 Bft)
05.11.2018 13:58 19,5 °C 48 % 1006,9 hPa 0,0 mm 1,3 km/h (1 Bft) N 355 ° 0 min 0,000 mm 1,7 UV-I 380 W/m² 8,2 °C 19,5 °C 3,2 km/h (1 Bft)
05.11.2018 13:59 19,4 °C 47 % 1006,9 hPa 0,0 mm 0,1 km/h (0 Bft) O-NO 57 ° 0 min 0,000 mm 1,6 UV-I 360 W/m² 7,8 °C 19,4 °C 1,6 km/h (1 Bft)
05.11.2018 14:00 19,3 °C 46 % 1006,9 hPa 0,0 mm 2,0 km/h (1 Bft) O-SO 113 ° 0 min 0,203 mm 1,6 UV-I 352 W/m² 7,4 °C 19,3 °C 4,8 km/h (1 Bft)
05.11.2018 14:01 19,4 °C 45 % 1006,8 hPa 0,0 mm 2,6 km/h (1 Bft) N-NW 333 ° 0 min 0,000 mm 1,6 UV-I 338 W/m² 7,2 °C 19,4 °C 4,8 km/h (1 Bft)
05.11.2018 14:02 19,5 °C 43 % 1006,8 hPa 0,0 mm 3,6 km/h (1 Bft) NO 51 ° 0 min 0,000 mm 1,5 UV-I 315 W/m² 6,6 °C 19,5 °C 6,4 km/h (2 Bft)
05.11.2018 14:03 19,5 °C 46 % 1006,8 hPa 0,0 mm 2,1 km/h (1 Bft) NO 54 ° 0 min 0,000 mm 1,5 UV-I 323 W/m² 7,6 °C 19,5 °C 3,2 km/h (1 Bft)
05.11.2018 14:04 19,4 °C 47 % 1006,8 hPa 0,0 mm 0,1 km/h (0 Bft) NO 54 ° 0 min 0,000 mm 1,5 UV-I 330 W/m² 7,8 °C 19,4 °C 1,6 km/h (1 Bft)
05.11.2018 14:05 19,2 °C 49 % 1006,8 hPa 0,0 mm 2,5 km/h (1 Bft) NO 53 ° 0 min 0,000 mm 1,5 UV-I 362 W/m² 8,2 °C 19,2 °C 4,8 km/h (1 Bft)
05.11.2018 14:06 18,8 °C 50 % 1006,7 hPa 0,0 mm 2,4 km/h (1 Bft) NO 53 ° 0 min 0,000 mm 1,5 UV-I 350 W/m² 8,2 °C 18,8 °C 6,4 km/h (2 Bft)
05.11.2018 14:07 18,8 °C 46 % 1006,7 hPa 0,0 mm 1,6 km/h (1 Bft) W 259 ° 0 min 0,000 mm 1,5 UV-I 323 W/m² 6,9 °C 18,8 °C 6,4 km/h (2 Bft)
05.11.2018 14:08 19,0 °C 44 % 1006,8 hPa 0,0 mm 4,9 km/h (1 Bft) W-NW 289 ° 0 min 0,000 mm 1,5 UV-I 327 W/m² 6,5 °C 19,0 °C 8,0 km/h (2 Bft)
05.11.2018 14:09 19,1 °C 45 % 1006,7 hPa 0,0 mm 2,2 km/h (1 Bft) W-NW 302 ° 0 min 0,000 mm 1,5 UV-I 334 W/m² 6,9 °C 19,1 °C 4,8 km/h (1 Bft)
05.11.2018 14:10 19,2 °C 44 % 1006,7 hPa 0,0 mm 4,1 km/h (1 Bft) W-NW 288 ° 0 min 0,000 mm 1,5 UV-I 352 W/m² 6,7 °C 19,2 °C 8,0 km/h (2 Bft)
05.11.2018 14:11 19,3 °C 44 % 1006,7 hPa 0,0 mm 2,6 km/h (1 Bft) S 188 ° 0 min 0,000 mm 1,5 UV-I 302 W/m² 6,7 °C 19,3 °C 4,8 km/h (1 Bft)
05.11.2018 14:12 19,3 °C 45 % 1006,7 hPa 0,0 mm 1,1 km/h (1 Bft) S 187 ° 0 min 0,000 mm 1,4 UV-I 288 W/m² 7,1 °C 19,3 °C 4,8 km/h (1 Bft)
05.11.2018 14:13 19,1 °C 47 % 1006,7 hPa 0,0 mm 3,0 km/h (1 Bft) O 85 ° 0 min 0,000 mm 1,4 UV-I 295 W/m² 7,5 °C 19,1 °C 6,4 km/h (2 Bft)
05.11.2018 14:14 18,9 °C 46 % 1006,6 hPa 0,0 mm 0,3 km/h (0 Bft) O 82 ° 0 min 0,000 mm 1,4 UV-I 306 W/m² 7,0 °C 18,9 °C 1,6 km/h (1 Bft)
05.11.2018 14:15 19,0 °C 46 % 1006,6 hPa 0,0 mm 0,0 km/h (0 Bft) O 82 ° 0 min 0,000 mm 1,4 UV-I 269 W/m² 7,1 °C 19,0 °C 0,0 km/h (0 Bft)
05.11.2018 14:16 19,1 °C 47 % 1006,6 hPa 0,0 mm 0,3 km/h (0 Bft) O 83 ° 0 min 0,000 mm 1,3 UV-I 260 W/m² 7,5 °C 19,1 °C 1,6 km/h (1 Bft)
05.11.2018 14:17 18,9 °C 48 % 1006,6 hPa 0,0 mm 8,0 km/h (2 Bft) O 82 ° 0 min 0,000 mm 1,3 UV-I 262 W/m² 7,6 °C 18,9 °C 14,5 km/h (3 Bft)
05.11.2018 14:18 18,9 °C 47 % 1006,6 hPa 0,0 mm 3,2 km/h (1 Bft) NO 49 ° 0 min 0,000 mm 1,3 UV-I 309 W/m² 7,3 °C 18,9 °C 4,8 km/h (1 Bft)
05.11.2018 14:19 19,0 °C 43 % 1006,5 hPa 0,0 mm 3,9 km/h (1 Bft) N-NO 27 ° 0 min 0,000 mm 1,4 UV-I 315 W/m² 6,1 °C 19,0 °C 6,4 km/h (2 Bft)
05.11.2018 14:20 19,1 °C 44 % 1006,7 hPa 0,0 mm 4,0 km/h (1 Bft) NO 55 ° 0 min 0,000 mm 1,4 UV-I 313 W/m² 6,6 °C 19,1 °C 8,0 km/h (2 Bft)
05.11.2018 14:22 19,2 °C 44 % 1006,6 hPa 0,0 mm 3,2 km/h (1 Bft) S 184 ° 0 min 0,000 mm 1,3 UV-I 304 W/m² 6,7 °C 19,2 °C 9,7 km/h (2 Bft)
05.11.2018 14:23 19,1 °C 44 % 1006,6 hPa 0,0 mm 0,5 km/h (0 Bft) SW 229 ° 0 min 0,000 mm 1,3 UV-I 301 W/m² 6,6 °C 19,1 °C 3,2 km/h (1 Bft)
05.11.2018 14:24 18,9 °C 50 % 1006,6 hPa 0,0 mm 0,6 km/h (0 Bft) S-SO 154 ° 0 min 0,000 mm 1,3 UV-I 301 W/m² 8,2 °C 18,9 °C 3,2 km/h (1 Bft)
05.11.2018 14:25 18,8 °C 46 % 1006,6 hPa 0,0 mm 2,0 km/h (1 Bft) W 259 ° 0 min 0,000 mm 1,3 UV-I 297 W/m² 6,9 °C 18,8 °C 6,4 km/h (2 Bft)
05.11.2018 14:26 18,6 °C 47 % 1006,6 hPa 0,0 mm 1,5 km/h (1 Bft) W-SW 257 ° 0 min 0,000 mm 1,3 UV-I 299 W/m² 7,1 °C 18,6 °C 4,8 km/h (1 Bft)
05.11.2018 14:27 18,4 °C 48 % 1006,6 hPa 0,0 mm 0,7 km/h (0 Bft) O-NO 57 ° 0 min 0,000 mm 1,3 UV-I 299 W/m² 7,2 °C 18,4 °C 3,2 km/h (1 Bft)
05.11.2018 14:28 18,2 °C 50 % 1006,6 hPa 0,0 mm 1,3 km/h (1 Bft) O-NO 57 ° 0 min 0,000 mm 1,3 UV-I 297 W/m² 7,6 °C 18,2 °C 3,2 km/h (1 Bft)
05.11.2018 14:29 18,1 °C 49 % 1006,6 hPa 0,0 mm 2,3 km/h (1 Bft) W-NW 286 ° 0 min 0,000 mm 1,3 UV-I 294 W/m² 7,2 °C 18,1 °C 6,4 km/h (2 Bft)
05.11.2018 14:30 17,8 °C 49 % 1006,6 hPa 0,0 mm 4,8 km/h (1 Bft) NO 56 ° 0 min 0,000 mm 1,2 UV-I 292 W/m² 6,9 °C 17,8 °C 6,4 km/h (2 Bft)
05.11.2018 14:31 17,7 °C 52 % 1006,6 hPa 0,0 mm 3,8 km/h (1 Bft) N-NO 33 ° 0 min 0,000 mm 1,2 UV-I 290 W/m² 7,7 °C 17,7 °C 8,0 km/h (2 Bft)
05.11.2018 14:32 17,6 °C 49 % 1006,5 hPa 0,0 mm 2,4 km/h (1 Bft) O 83 ° 0 min 0,000 mm 1,2 UV-I 290 W/m² 6,8 °C 17,6 °C 4,8 km/h (1 Bft)
05.11.2018 14:33 17,6 °C 50 % 1006,5 hPa 0,0 mm 2,5 km/h (1 Bft) O-SO 119 ° 0 min 0,000 mm 1,2 UV-I 288 W/m² 7,1 °C 17,6 °C 4,8 km/h (1 Bft)
05.11.2018 14:34 17,7 °C 49 % 1006,5 hPa 0,0 mm 4,2 km/h (1 Bft) S-SW 201 ° 0 min 0,000 mm 1,2 UV-I 287 W/m² 6,9 °C 17,7 °C 8,0 km/h (2 Bft)
05.11.2018 14:35 17,8 °C 51 % 1006,5 hPa 0,0 mm 2,8 km/h (1 Bft) O-NO 67 ° 0 min 0,000 mm 1,2 UV-I 281 W/m² 7,5 °C 17,8 °C 8,0 km/h (2 Bft)
05.11.2018 14:36 17,8 °C 50 % 1006,5 hPa 0,0 mm 2,2 km/h (1 Bft) W-SW 254 ° 0 min 0,000 mm 1,2 UV-I 279 W/m² 7,2 °C 17,8 °C 4,8 km/h (1 Bft)
05.11.2018 14:37 17,9 °C 49 % 1006,6 hPa 0,0 mm 4,0 km/h (1 Bft) N-NW 329 ° 0 min 0,000 mm 1,2 UV-I 278 W/m² 7,0 °C 17,9 °C 6,4 km/h (2 Bft)
05.11.2018 14:38 18,1 °C 48 % 1006,7 hPa 0,0 mm 4,2 km/h (1 Bft) W 281 ° 0 min 0,000 mm 1,1 UV-I 274 W/m² 6,9 °C 18,1 °C 4,8 km/h (1 Bft)
05.11.2018 14:39 18,1 °C 49 % 1006,7 hPa 0,0 mm 1,5 km/h (1 Bft) W 281 ° 0 min 0,000 mm 1,1 UV-I 274 W/m² 7,2 °C 18,1 °C 3,2 km/h (1 Bft)
05.11.2018 14:40 18,1 °C 49 % 1006,8 hPa 0,0 mm 2,9 km/h (1 Bft) NW 315 ° 0 min 0,000 mm 1,1 UV-I 265 W/m² 7,2 °C 18,1 °C 6,4 km/h (2 Bft)
05.11.2018 14:41 17,9 °C 50 % 1006,8 hPa 0,0 mm 3,0 km/h (1 Bft) O 90 ° 0 min 0,000 mm 1,1 UV-I 267 W/m² 7,3 °C 17,9 °C 4,8 km/h (1 Bft)
05.11.2018 14:42 17,7 °C 52 % 1006,9 hPa 0,0 mm 3,8 km/h (1 Bft) NO 47 ° 0 min 0,000 mm 1,1 UV-I 265 W/m² 7,7 °C 17,7 °C 6,4 km/h (2 Bft)
05.11.2018 14:43 17,7 °C 51 % 1006,8 hPa 0,0 mm 1,3 km/h (1 Bft) NO 44 ° 0 min 0,000 mm 1,1 UV-I 262 W/m² 7,4 °C 17,7 °C 3,2 km/h (1 Bft)
05.11.2018 14:44 17,7 °C 51 % 1006,9 hPa 0,0 mm 2,6 km/h (1 Bft) W 262 ° 0 min 0,000 mm 1,1 UV-I 262 W/m² 7,4 °C 17,7 °C 4,8 km/h (1 Bft)
05.11.2018 14:45 17,8 °C 48 % 1006,9 hPa 0,0 mm 3,5 km/h (1 Bft) N 5 ° 0 min 0,000 mm 1,1 UV-I 260 W/m² 6,6 °C 17,8 °C 4,8 km/h (1 Bft)
05.11.2018 14:46 17,9 °C 50 % 1006,9 hPa 0,0 mm 1,9 km/h (1 Bft) O-NO 72 ° 0 min 0,000 mm 1,1 UV-I 255 W/m² 7,3 °C 17,9 °C 4,8 km/h (1 Bft)
05.11.2018 14:47 17,8 °C 52 % 1006,8 hPa 0,0 mm 0,7 km/h (0 Bft) N-NW 344 ° 0 min 0,000 mm 1,0 UV-I 253 W/m² 7,8 °C 17,8 °C 1,6 km/h (1 Bft)
05.11.2018 14:48 17,7 °C 50 % 1006,9 hPa 0,0 mm 1,3 km/h (1 Bft) NO 55 ° 0 min 0,000 mm 1,0 UV-I 251 W/m² 7,1 °C 17,7 °C 4,8 km/h (1 Bft)
05.11.2018 14:49 17,5 °C 51 % 1006,9 hPa 0,0 mm 3,1 km/h (1 Bft) N 5 ° 0 min 0,000 mm 1,0 UV-I 248 W/m² 7,3 °C 17,5 °C 4,8 km/h (1 Bft)
05.11.2018 14:50 17,3 °C 53 % 1006,8 hPa 0,0 mm 2,6 km/h (1 Bft) O-NO 74 ° 0 min 0,000 mm 1,0 UV-I 246 W/m² 7,6 °C 17,3 °C 4,8 km/h (1 Bft)
05.11.2018 14:51 17,2 °C 52 % 1006,8 hPa 0,0 mm 0,2 km/h (0 Bft) O-NO 76 ° 0 min 0,000 mm 1,0 UV-I 244 W/m² 7,3 °C 17,2 °C 1,6 km/h (1 Bft)
05.11.2018 14:52 17,2 °C 52 % 1006,8 hPa 0,0 mm 3,1 km/h (1 Bft) O 93 ° 0 min 0,000 mm 0,9 UV-I 244 W/m² 7,3 °C 17,2 °C 4,8 km/h (1 Bft)
05.11.2018 14:53 17,2 °C 53 % 1006,8 hPa 0,0 mm 1,9 km/h (1 Bft) O-SO 123 ° 0 min 0,000 mm 1,0 UV-I 239 W/m² 7,5 °C 17,2 °C 4,8 km/h (1 Bft)
05.11.2018 14:54 16,9 °C 54 % 1006,8 hPa 0,0 mm 0,7 km/h (0 Bft) O-SO 122 ° 0 min 0,000 mm 1,0 UV-I 237 W/m² 7,5 °C 16,9 °C 1,6 km/h (1 Bft)
05.11.2018 14:55 16,8 °C 53 % 1006,8 hPa 0,0 mm 2,6 km/h (1 Bft) O-SO 107 ° 0 min 0,000 mm 0,9 UV-I 234 W/m² 7,2 °C 16,8 °C 4,8 km/h (1 Bft)
05.11.2018 14:56 16,8 °C 53 % 1006,8 hPa 0,0 mm 2,2 km/h (1 Bft) O-SO 108 ° 0 min 0,000 mm 0,9 UV-I 232 W/m² 7,2 °C 16,8 °C 4,8 km/h (1 Bft)
05.11.2018 14:57 16,9 °C 53 % 1006,8 hPa 0,0 mm 2,0 km/h (1 Bft) O 98 ° 0 min 0,000 mm 0,9 UV-I 223 W/m² 7,3 °C 16,9 °C 3,2 km/h (1 Bft)
05.11.2018 14:58 16,8 °C 54 % 1006,7 hPa 0,0 mm 3,7 km/h (1 Bft) NO 36 ° 0 min 0,000 mm 0,9 UV-I 167 W/m² 7,4 °C 16,8 °C 6,4 km/h (2 Bft)
05.11.2018 14:59 16,7 °C 55 % 1006,7 hPa 0,0 mm 3,1 km/h (1 Bft) NO 43 ° 0 min 0,000 mm 0,8 UV-I 113 W/m² 7,6 °C 16,7 °C 6,4 km/h (2 Bft)
05.11.2018 15:00 16,7 °C 54 % 1006,8 hPa 0,0 mm 2,5 km/h (1 Bft) O-NO 62 ° 0 min 0,000 mm 0,8 UV-I 97 W/m² 7,3 °C 16,7 °C 4,8 km/h (1 Bft)
05.11.2018 15:01 16,6 °C 55 % 1006,8 hPa 0,0 mm 2,6 km/h (1 Bft) O 98 ° 0 min 0,178 mm 0,8 UV-I 113 W/m² 7,5 °C 16,6 °C 4,8 km/h (1 Bft)
05.11.2018 15:02 16,7 °C 54 % 1006,8 hPa 0,0 mm 0,2 km/h (0 Bft) O 98 ° 0 min 0,000 mm 0,7 UV-I 84 W/m² 7,3 °C 16,7 °C 1,6 km/h (1 Bft)
05.11.2018 15:03 16,7 °C 54 % 1006,9 hPa 0,0 mm 0,0 km/h (0 Bft) O 98 ° 0 min 0,000 mm 0,7 UV-I 56 W/m² 7,3 °C 16,7 °C 0,0 km/h (0 Bft)
05.11.2018 15:04 16,6 °C 54 % 1006,8 hPa 0,0 mm 0,0 km/h (0 Bft) O 98 ° 0 min 0,000 mm 0,0 UV-I 63 W/m² 7,3 °C 16,6 °C 0,0 km/h (0 Bft)
05.11.2018 15:05 16,7 °C 52 % 1006,9 hPa 0,0 mm 1,7 km/h (1 Bft) N 11 ° 0 min 0,000 mm 0,7 UV-I 79 W/m² 6,8 °C 16,7 °C 4,8 km/h (1 Bft)
05.11.2018 15:06 16,8 °C 52 % 1006,9 hPa 0,0 mm 2,0 km/h (1 Bft) O 85 ° 0 min 0,000 mm 0,0 UV-I 49 W/m² 6,9 °C 16,8 °C 4,8 km/h (1 Bft)
05.11.2018 15:07 16,8 °C 52 % 1006,9 hPa 0,0 mm 5,3 km/h (1 Bft) O 100 ° 0 min 0,000 mm 0,0 UV-I 30 W/m² 6,9 °C 16,8 °C 6,4 km/h (2 Bft)
05.11.2018 15:08 16,9 °C 52 % 1006,9 hPa 0,0 mm 3,0 km/h (1 Bft) O 99 ° 0 min 0,000 mm 0,0 UV-I 30 W/m² 7,0 °C 16,9 °C 4,8 km/h (1 Bft)
05.11.2018 15:09 16,9 °C 53 % 1006,9 hPa 0,0 mm 2,7 km/h (1 Bft) O 99 ° 0 min 0,000 mm 0,0 UV-I 26 W/m² 7,3 °C 16,9 °C 3,2 km/h (1 Bft)
05.11.2018 15:10 16,8 °C 52 % 1006,9 hPa 0,0 mm 1,4 km/h (1 Bft) O 99 ° 0 min 0,000 mm 0,0 UV-I 26 W/m² 6,9 °C 16,8 °C 3,2 km/h (1 Bft)
05.11.2018 15:11 16,8 °C 51 % 1006,9 hPa 0,0 mm 0,0 km/h (0 Bft) O 99 ° 0 min 0,000 mm 0,0 UV-I 30 W/m² 6,6 °C 16,8 °C 0,0 km/h (0 Bft)
05.11.2018 15:12 17,0 °C 50 % 1006,9 hPa 0,0 mm 0,2 km/h (0 Bft) O 99 ° 0 min 0,000 mm 0,0 UV-I 32 W/m² 6,5 °C 17,0 °C 1,6 km/h (1 Bft)
05.11.2018 15:13 17,0 °C 51 % 1006,9 hPa 0,0 mm 1,1 km/h (1 Bft) O-SO 115 ° 0 min 0,000 mm 0,0 UV-I 32 W/m² 6,8 °C 17,0 °C 3,2 km/h (1 Bft)
05.11.2018 15:14 17,0 °C 51 % 1006,9 hPa 0,0 mm 0,2 km/h (0 Bft) O-SO 115 ° 0 min 0,000 mm 0,0 UV-I 30 W/m² 6,8 °C 17,0 °C 1,6 km/h (1 Bft)
05.11.2018 15:15 17,0 °C 50 % 1006,9 hPa 0,0 mm 0,5 km/h (0 Bft) O-NO 58 ° 0 min 0,000 mm 0,0 UV-I 28 W/m² 6,5 °C 17,0 °C 3,2 km/h (1 Bft)
05.11.2018 15:16 17,0 °C 52 % 1006,9 hPa 0,0 mm 2,2 km/h (1 Bft) S-SW 193 ° 0 min 0,000 mm 0,0 UV-I 32 W/m² 7,1 °C 17,0 °C 3,2 km/h (1 Bft)
05.11.2018 15:17 16,9 °C 52 % 1007,0 hPa 0,0 mm 0,5 km/h (0 Bft) S-SW 193 ° 0 min 0,000 mm 0,0 UV-I 33 W/m² 7,0 °C 16,9 °C 3,2 km/h (1 Bft)
05.11.2018 15:18 16,9 °C 51 % 1006,9 hPa 0,0 mm 0,1 km/h (0 Bft) S-SW 194 ° 0 min 0,000 mm 0,0 UV-I 30 W/m² 6,7 °C 16,9 °C 1,6 km/h (1 Bft)
05.11.2018 15:19 16,8 °C 52 % 1007,0 hPa 0,0 mm 1,3 km/h (1 Bft) N-NW 334 ° 0 min 0,000 mm 0,0 UV-I 26 W/m² 6,9 °C 16,8 °C 4,8 km/h (1 Bft)
05.11.2018 15:20 16,7 °C 51 % 1007,0 hPa 0,0 mm 0,7 km/h (0 Bft) N-NW 333 ° 0 min 0,000 mm 0,0 UV-I 25 W/m² 6,5 °C 16,7 °C 1,6 km/h (1 Bft)
05.11.2018 15:21 16,7 °C 49 % 1007,0 hPa 0,0 mm 0,4 km/h (0 Bft) N-NW 333 ° 0 min 0,000 mm 0,0 UV-I 25 W/m² 5,9 °C 16,7 °C 1,6 km/h (1 Bft)
05.11.2018 15:22 16,8 °C 48 % 1007,0 hPa 0,0 mm 2,6 km/h (1 Bft) W-SW 256 ° 0 min 0,000 mm 0,0 UV-I 25 W/m² 5,7 °C 16,8 °C 4,8 km/h (1 Bft)
05.11.2018 15:23 17,1 °C 47 % 1007,0 hPa 0,0 mm 3,0 km/h (1 Bft) SW 233 ° 0 min 0,000 mm 0,0 UV-I 25 W/m² 5,7 °C 17,1 °C 4,8 km/h (1 Bft)
05.11.2018 15:24 17,1 °C 50 % 1007,1 hPa 0,0 mm 1,9 km/h (1 Bft) S 189 ° 0 min 0,000 mm 0,0 UV-I 25 W/m² 6,6 °C 17,1 °C 4,8 km/h (1 Bft)
05.11.2018 15:25 17,0 °C 50 % 1007,0 hPa 0,0 mm 0,9 km/h (0 Bft) S 189 ° 0 min 0,000 mm 0,0 UV-I 26 W/m² 6,5 °C 17,0 °C 3,2 km/h (1 Bft)
05.11.2018 15:26 17,0 °C 50 % 1006,9 hPa 0,0 mm 3,4 km/h (1 Bft) S 189 ° 0 min 0,000 mm 0,0 UV-I 26 W/m² 6,5 °C 17,0 °C 4,8 km/h (1 Bft)
05.11.2018 15:27 16,9 °C 50 % 1006,9 hPa 0,0 mm 2,5 km/h (1 Bft) S 189 ° 0 min 0,000 mm 0,0 UV-I 28 W/m² 6,4 °C 16,9 °C 3,2 km/h (1 Bft)
05.11.2018 15:28 16,9 °C 50 % 1007,0 hPa 0,0 mm 1,6 km/h (1 Bft) S 189 ° 0 min 0,000 mm 0,0 UV-I 30 W/m² 6,4 °C 16,9 °C 3,2 km/h (1 Bft)
05.11.2018 15:29 17,0 °C 49 % 1007,0 hPa 0,0 mm 0,3 km/h (0 Bft) S 189 ° 0 min 0,000 mm 0,0 UV-I 32 W/m² 6,2 °C 17,0 °C 1,6 km/h (1 Bft)
05.11.2018 15:30 17,1 °C 49 % 1007,0 hPa 0,0 mm 0,5 km/h (0 Bft) S 189 ° 0 min 0,000 mm 0,0 UV-I 32 W/m² 6,3 °C 17,1 °C 1,6 km/h (1 Bft)
05.11.2018 15:31 17,2 °C 49 % 1007,0 hPa 0,0 mm 1,0 km/h (0 Bft) S 189 ° 0 min 0,000 mm 0,0 UV-I 33 W/m² 6,4 °C 17,2 °C 3,2 km/h (1 Bft)
05.11.2018 15:32 17,2 °C 50 % 1007,0 hPa 0,0 mm 2,1 km/h (1 Bft) S 189 ° 0 min 0,000 mm 0,0 UV-I 33 W/m² 6,7 °C 17,2 °C 4,8 km/h (1 Bft)
05.11.2018 15:33 17,2 °C 48 % 1007,0 hPa 0,0 mm 2,4 km/h (1 Bft) S 189 ° 0 min 0,000 mm 0,0 UV-I 35 W/m² 6,1 °C 17,2 °C 4,8 km/h (1 Bft)
05.11.2018 15:34 16,9 °C 53 % 1007,0 hPa 0,0 mm 2,6 km/h (1 Bft) O-SO 105 ° 0 min 0,000 mm 0,0 UV-I 35 W/m² 7,3 °C 16,9 °C 4,8 km/h (1 Bft)
05.11.2018 15:35 16,9 °C 52 % 1007,0 hPa 0,0 mm 1,5 km/h (1 Bft) O-SO 105 ° 0 min 0,000 mm 0,0 UV-I 37 W/m² 7,0 °C 16,9 °C 3,2 km/h (1 Bft)
05.11.2018 15:36 16,7 °C 54 % 1007,0 hPa 0,0 mm 1,1 km/h (1 Bft) O-SO 105 ° 0 min 0,000 mm 0,0 UV-I 37 W/m² 7,3 °C 16,7 °C 3,2 km/h (1 Bft)
05.11.2018 15:37 16,6 °C 54 % 1006,9 hPa 0,0 mm 4,3 km/h (1 Bft) S-SO 147 ° 0 min 0,000 mm 0,0 UV-I 37 W/m² 7,3 °C 16,6 °C 9,7 km/h (2 Bft)
05.11.2018 15:38 16,5 °C 53 % 1006,9 hPa 0,0 mm 1,8 km/h (1 Bft) S-SO 147 ° 0 min 0,000 mm 0,0 UV-I 37 W/m² 6,9 °C 16,5 °C 3,2 km/h (1 Bft)
05.11.2018 15:39 16,4 °C 55 % 1006,9 hPa 0,0 mm 2,4 km/h (1 Bft) NO 42 ° 0 min 0,000 mm 0,0 UV-I 39 W/m² 7,3 °C 16,4 °C 3,2 km/h (1 Bft)
05.11.2018 15:40 16,4 °C 53 % 1006,9 hPa 0,0 mm 2,6 km/h (1 Bft) NO 50 ° 0 min 0,000 mm 0,0 UV-I 39 W/m² 6,8 °C 16,4 °C 4,8 km/h (1 Bft)
05.11.2018 15:41 16,4 °C 55 % 1006,9 hPa 0,0 mm 1,5 km/h (1 Bft) NO 51 ° 0 min 0,000 mm 0,0 UV-I 39 W/m² 7,3 °C 16,4 °C 4,8 km/h (1 Bft)
05.11.2018 15:42 16,3 °C 54 % 1006,9 hPa 0,0 mm 1,3 km/h (1 Bft) NO 53 ° 0 min 0,000 mm 0,0 UV-I 39 W/m² 7,0 °C 16,3 °C 4,8 km/h (1 Bft)
05.11.2018 15:43 16,2 °C 55 % 1006,9 hPa 0,0 mm 0,0 km/h (0 Bft) NO 53 ° 0 min 0,000 mm 0,0 UV-I 39 W/m² 7,2 °C 16,2 °C 0,0 km/h (0 Bft)
05.11.2018 15:44 16,1 °C 55 % 1007,0 hPa 0,0 mm 0,0 km/h (0 Bft) NO 53 ° 0 min 0,000 mm 0,0 UV-I 39 W/m² 7,1 °C 16,1 °C 0,0 km/h (0 Bft)
05.11.2018 15:45 16,0 °C 54 % 1007,0 hPa 0,0 mm 0,0 km/h (0 Bft) NO 53 ° 0 min 0,000 mm 0,0 UV-I 39 W/m² 6,7 °C 16,0 °C 0,0 km/h (0 Bft)
05.11.2018 15:46 15,9 °C 54 % 1007,0 hPa 0,0 mm 0,0 km/h (0 Bft) NO 53 ° 0 min 0,000 mm 0,0 UV-I 39 W/m² 6,6 °C 15,9 °C 0,0 km/h (0 Bft)
05.11.2018 15:47 15,9 °C 55 % 1006,9 hPa 0,0 mm 0,1 km/h (0 Bft) NO 53 ° 0 min 0,000 mm 0,0 UV-I 37 W/m² 6,9 °C 15,9 °C 1,6 km/h (1 Bft)
05.11.2018 15:48 15,9 °C 55 % 1007,0 hPa 0,0 mm 2,9 km/h (1 Bft) O-SO 110 ° 0 min 0,000 mm 0,0 UV-I 37 W/m² 6,9 °C 15,9 °C 6,4 km/h (2 Bft)
05.11.2018 15:49 16,0 °C 56 % 1007,0 hPa 0,0 mm 1,2 km/h (1 Bft) O-SO 110 ° 0 min 0,000 mm 0,0 UV-I 37 W/m² 7,2 °C 16,0 °C 3,2 km/h (1 Bft)
05.11.2018 15:50 15,9 °C 55 % 1007,0 hPa 0,0 mm 1,5 km/h (1 Bft) O-SO 110 ° 0 min 0,000 mm 0,0 UV-I 37 W/m² 6,9 °C 15,9 °C 3,2 km/h (1 Bft)
05.11.2018 15:51 15,9 °C 55 % 1006,9 hPa 0,0 mm 0,7 km/h (0 Bft) O-SO 110 ° 0 min 0,000 mm 0,0 UV-I 35 W/m² 6,9 °C 15,9 °C 1,6 km/h (1 Bft)
05.11.2018 15:52 15,9 °C 55 % 1007,0 hPa 0,0 mm 1,0 km/h (0 Bft) O-SO 110 ° 0 min 0,000 mm 0,0 UV-I 35 W/m² 6,9 °C 15,9 °C 3,2 km/h (1 Bft)
05.11.2018 15:53 15,9 °C 55 % 1007,0 hPa 0,0 mm 0,0 km/h (0 Bft) O-SO 110 ° 0 min 0,000 mm 0,0 UV-I 35 W/m² 6,9 °C 15,9 °C 0,0 km/h (0 Bft)
05.11.2018 15:54 15,9 °C 55 % 1007,0 hPa 0,0 mm 0,0 km/h (0 Bft) O-SO 110 ° 0 min 0,000 mm 0,0 UV-I 35 W/m² 6,9 °C 15,9 °C 0,0 km/h (0 Bft)
05.11.2018 15:55 15,9 °C 54 % 1007,0 hPa 0,0 mm 0,0 km/h (0 Bft) O-SO 110 ° 0 min 0,000 mm 0,0 UV-I 33 W/m² 6,6 °C 15,9 °C 0,0 km/h (0 Bft)
05.11.2018 15:56 16,0 °C 55 % 1007,0 hPa 0,0 mm 0,0 km/h (0 Bft) O-SO 110 ° 0 min 0,000 mm 0,0 UV-I 33 W/m² 7,0 °C 16,0 °C 0,0 km/h (0 Bft)
05.11.2018 15:57 16,1 °C 54 % 1007,0 hPa 0,0 mm 0,0 km/h (0 Bft) O-SO 110 ° 0 min 0,000 mm 0,0 UV-I 33 W/m² 6,8 °C 16,1 °C 0,0 km/h (0 Bft)
05.11.2018 15:58 16,0 °C 56 % 1007,0 hPa 0,0 mm 0,0 km/h (0 Bft) O-SO 110 ° 0 min 0,000 mm 0,0 UV-I 33 W/m² 7,2 °C 16,0 °C 0,0 km/h (0 Bft)
05.11.2018 15:59 15,9 °C 56 % 1007,0 hPa 0,0 mm 1,2 km/h (1 Bft) O-SO 110 ° 0 min 0,000 mm 0,0 UV-I 33 W/m² 7,1 °C 15,9 °C 3,2 km/h (1 Bft)
05.11.2018 16:00 15,7 °C 56 % 1007,0 hPa 0,0 mm 0,3 km/h (0 Bft) O-SO 110 ° 0 min 0,000 mm 0,0 UV-I 33 W/m² 6,9 °C 15,7 °C 1,6 km/h (1 Bft)
05.11.2018 16:01 15,7 °C 56 % 1007,0 hPa 0,0 mm 0,0 km/h (0 Bft) O-SO 110 ° 0 min 0,025 mm 0,0 UV-I 33 W/m² 6,9 °C 15,7 °C 0,0 km/h (0 Bft)
05.11.2018 16:02 15,7 °C 55 % 1007,0 hPa 0,0 mm 0,0 km/h (0 Bft) O-SO 110 ° 0 min 0,000 mm 0,0 UV-I 32 W/m² 6,7 °C 15,7 °C 0,0 km/h (0 Bft)
05.11.2018 16:03 15,7 °C 56 % 1007,0 hPa 0,0 mm 0,4 km/h (0 Bft) O-SO 110 ° 0 min 0,000 mm 0,0 UV-I 32 W/m² 6,9 °C 15,7 °C 3,2 km/h (1 Bft)
05.11.2018 16:04 15,7 °C 57 % 1007,0 hPa 0,0 mm 0,5 km/h (0 Bft) O-SO 110 ° 0 min 0,000 mm 0,0 UV-I 32 W/m² 7,2 °C 15,7 °C 1,6 km/h (1 Bft)
05.11.2018 16:05 15,7 °C 55 % 1007,0 hPa 0,0 mm 0,0 km/h (0 Bft) O-SO 110 ° 0 min 0,000 mm 0,0 UV-I 30 W/m² 6,7 °C 15,7 °C 0,0 km/h (0 Bft)
05.11.2018 16:06 15,7 °C 55 % 1007,1 hPa 0,0 mm 0,0 km/h (0 Bft) O-SO 110 ° 0 min 0,000 mm 0,0 UV-I 30 W/m² 6,7 °C 15,7 °C 0,0 km/h (0 Bft)
05.11.2018 16:07 15,7 °C 54 % 1007,1 hPa 0,0 mm 0,0 km/h (0 Bft) O-SO 110 ° 0 min 0,000 mm 0,0 UV-I 30 W/m² 6,4 °C 15,7 °C 0,0 km/h (0 Bft)
05.11.2018 16:08 15,7 °C 55 % 1007,1 hPa 0,0 mm 0,0 km/h (0 Bft) O-SO 110 ° 0 min 0,000 mm 0,0 UV-I 28 W/m² 6,7 °C 15,7 °C 0,0 km/h (0 Bft)
05.11.2018 16:09 15,7 °C 54 % 1007,1 hPa 0,0 mm 0,0 km/h (0 Bft) O-SO 110 ° 0 min 0,000 mm 0,0 UV-I 26 W/m² 6,4 °C 15,7 °C 0,0 km/h (0 Bft)
05.11.2018 16:10 15,8 °C 54 % 1007,1 hPa 0,0 mm 0,0 km/h (0 Bft) O-SO 110 ° 0 min 0,000 mm 0,0 UV-I 26 W/m² 6,5 °C 15,8 °C 0,0 km/h (0 Bft)
05.11.2018 16:11 15,8 °C 55 % 1007,1 hPa 0,0 mm 0,0 km/h (0 Bft) O-SO 110 ° 0 min 0,000 mm 0,0 UV-I 26 W/m² 6,8 °C 15,8 °C 0,0 km/h (0 Bft)
05.11.2018 16:12 15,8 °C 54 % 1007,1 hPa 0,0 mm 0,0 km/h (0 Bft) O-SO 110 ° 0 min 0,000 mm 0,0 UV-I 26 W/m² 6,5 °C 15,8 °C 0,0 km/h (0 Bft)
05.11.2018 16:13 15,8 °C 54 % 1007,1 hPa 0,0 mm 0,0 km/h (0 Bft) O-SO 110 ° 0 min 0,000 mm 0,0 UV-I 25 W/m² 6,5 °C 15,8 °C 0,0 km/h (0 Bft)
05.11.2018 16:14 15,8 °C 55 % 1007,1 hPa 0,0 mm 0,1 km/h (0 Bft) O-SO 110 ° 0 min 0,000 mm 0,0 UV-I 25 W/m² 6,8 °C 15,8 °C 1,6 km/h (1 Bft)
05.11.2018 16:15 15,8 °C 55 % 1007,2 hPa 0,0 mm 0,7 km/h (0 Bft) O-SO 110 ° 0 min 0,000 mm 0,0 UV-I 23 W/m² 6,8 °C 15,8 °C 1,6 km/h (1 Bft)
05.11.2018 16:16 15,5 °C 58 % 1007,2 hPa 0,0 mm 0,9 km/h (0 Bft) O-SO 110 ° 0 min 0,000 mm 0,0 UV-I 23 W/m² 7,3 °C 15,5 °C 1,6 km/h (1 Bft)
05.11.2018 16:17 15,3 °C 57 % 1007,2 hPa 0,0 mm 0,0 km/h (0 Bft) O-SO 110 ° 0 min 0,000 mm 0,0 UV-I 23 W/m² 6,8 °C 15,3 °C 0,0 km/h (0 Bft)
05.11.2018 16:18 15,1 °C 57 % 1007,2 hPa 0,0 mm 0,1 km/h (0 Bft) O-SO 110 ° 0 min 0,000 mm 0,0 UV-I 23 W/m² 6,6 °C 15,1 °C 1,6 km/h (1 Bft)
05.11.2018 16:19 15,1 °C 57 % 1007,2 hPa 0,0 mm 0,1 km/h (0 Bft) O-SO 110 ° 0 min 0,000 mm 0,0 UV-I 21 W/m² 6,6 °C 15,1 °C 1,6 km/h (1 Bft)
05.11.2018 16:20 15,0 °C 57 % 1007,2 hPa 0,0 mm 0,4 km/h (0 Bft) O-SO 110 ° 0 min 0,000 mm 0,0 UV-I 21 W/m² 6,6 °C 15,0 °C 1,6 km/h (1 Bft)
05.11.2018 16:21 15,1 °C 57 % 1007,3 hPa 0,0 mm 0,0 km/h (0 Bft) O-SO 110 ° 0 min 0,000 mm 0,0 UV-I 19 W/m² 6,6 °C 15,1 °C 0,0 km/h (0 Bft)
05.11.2018 16:22 15,2 °C 56 % 1007,3 hPa 0,0 mm 0,0 km/h (0 Bft) O-SO 110 ° 0 min 0,000 mm 0,0 UV-I 19 W/m² 6,5 °C 15,2 °C 0,0 km/h (0 Bft)
05.11.2018 16:23 15,2 °C 56 % 1007,3 hPa 0,0 mm 0,0 km/h (0 Bft) O-SO 110 ° 0 min 0,000 mm 0,0 UV-I 19 W/m² 6,5 °C 15,2 °C 0,0 km/h (0 Bft)
05.11.2018 16:24 15,2 °C 57 % 1007,2 hPa 0,0 mm 0,7 km/h (0 Bft) O-SO 119 ° 0 min 0,000 mm 0,0 UV-I 19 W/m² 6,7 °C 15,2 °C 3,2 km/h (1 Bft)
05.11.2018 16:25 15,2 °C 56 % 1007,2 hPa 0,0 mm 0,1 km/h (0 Bft) O-SO 119 ° 0 min 0,000 mm 0,0 UV-I 18 W/m² 6,5 °C 15,2 °C 1,6 km/h (1 Bft)
05.11.2018 16:26 15,1 °C 57 % 1007,3 hPa 0,0 mm 0,2 km/h (0 Bft) O-SO 119 ° 0 min 0,000 mm 0,0 UV-I 18 W/m² 6,6 °C 15,1 °C 1,6 km/h (1 Bft)
05.11.2018 16:27 14,9 °C 60 % 1007,3 hPa 0,0 mm 3,1 km/h (1 Bft) NO 50 ° 0 min 0,000 mm 0,0 UV-I 18 W/m² 7,2 °C 14,9 °C 4,8 km/h (1 Bft)
05.11.2018 16:28 14,7 °C 60 % 1007,3 hPa 0,0 mm 2,9 km/h (1 Bft) O-NO 78 ° 0 min 0,000 mm 0,0 UV-I 16 W/m² 7,0 °C 14,7 °C 4,8 km/h (1 Bft)
05.11.2018 16:29 14,7 °C 59 % 1007,3 hPa 0,0 mm 2,9 km/h (1 Bft) O-NO 78 ° 0 min 0,000 mm 0,0 UV-I 16 W/m² 6,8 °C 14,7 °C 3,2 km/h (1 Bft)
05.11.2018 16:30 14,7 °C 58 % 1007,2 hPa 0,0 mm 2,1 km/h (1 Bft) O-NO 78 ° 0 min 0,000 mm 0,0 UV-I 16 W/m² 6,5 °C 14,7 °C 3,2 km/h (1 Bft)
05.11.2018 16:31 14,8 °C 57 % 1007,3 hPa 0,0 mm 1,2 km/h (1 Bft) O-NO 78 ° 0 min 0,000 mm 0,0 UV-I 16 W/m² 6,4 °C 14,8 °C 1,6 km/h (1 Bft)
05.11.2018 16:32 14,9 °C 58 % 1007,2 hPa 0,0 mm 0,1 km/h (0 Bft) O-NO 78 ° 0 min 0,000 mm 0,0 UV-I 14 W/m² 6,7 °C 14,9 °C 1,6 km/h (1 Bft)
05.11.2018 16:33 15,0 °C 57 % 1007,3 hPa 0,0 mm 0,4 km/h (0 Bft) O-NO 78 ° 0 min 0,000 mm 0,0 UV-I 14 W/m² 6,6 °C 15,0 °C 1,6 km/h (1 Bft)
05.11.2018 16:34 15,0 °C 56 % 1007,3 hPa 0,0 mm 0,1 km/h (0 Bft) O-NO 78 ° 0 min 0,000 mm 0,0 UV-I 12 W/m² 6,3 °C 15,0 °C 1,6 km/h (1 Bft)
05.11.2018 16:35 15,0 °C 57 % 1007,2 hPa 0,0 mm 1,2 km/h (1 Bft) O-NO 78 ° 0 min 0,000 mm 0,0 UV-I 12 W/m² 6,6 °C 15,0 °C 3,2 km/h (1 Bft)
05.11.2018 16:36 14,9 °C 57 % 1007,2 hPa 0,0 mm 0,3 km/h (0 Bft) O-NO 78 ° 0 min 0,000 mm 0,0 UV-I 12 W/m² 6,5 °C 14,9 °C 1,6 km/h (1 Bft)
05.11.2018 16:37 14,8 °C 58 % 1007,2 hPa 0,0 mm 0,0 km/h (0 Bft) O-NO 78 ° 0 min 0,000 mm 0,0 UV-I 12 W/m² 6,6 °C 14,8 °C 0,0 km/h (0 Bft)
05.11.2018 16:38 14,7 °C 59 % 1007,2 hPa 0,0 mm 0,2 km/h (0 Bft) O-NO 78 ° 0 min 0,000 mm 0,0 UV-I 11 W/m² 6,8 °C 14,7 °C 1,6 km/h (1 Bft)
05.11.2018 16:39 14,6 °C 59 % 1007,3 hPa 0,0 mm 0,0 km/h (0 Bft) O-NO 78 ° 0 min 0,000 mm 0,0 UV-I 11 W/m² 6,7 °C 14,6 °C 0,0 km/h (0 Bft)
05.11.2018 16:40 14,4 °C 59 % 1007,3 hPa 0,0 mm 0,0 km/h (0 Bft) O-NO 78 ° 0 min 0,000 mm 0,0 UV-I 11 W/m² 6,5 °C 14,4 °C 0,0 km/h (0 Bft)
05.11.2018 16:41 14,2 °C 62 % 1007,3 hPa 0,0 mm 0,0 km/h (0 Bft) O-NO 78 ° 0 min 0,000 mm 0,0 UV-I 11 W/m² 7,0 °C 14,2 °C 0,0 km/h (0 Bft)
05.11.2018 16:42 13,8 °C 62 % 1007,3 hPa 0,0 mm 0,0 km/h (0 Bft) O-NO 78 ° 0 min 0,000 mm 0,0 UV-I 11 W/m² 6,6 °C 13,8 °C 0,0 km/h (0 Bft)
05.11.2018 16:43 13,7 °C 62 % 1007,3 hPa 0,0 mm 0,0 km/h (0 Bft) O-NO 78 ° 0 min 0,000 mm 0,0 UV-I 11 W/m² 6,6 °C 13,7 °C 0,0 km/h (0 Bft)
05.11.2018 16:44 13,5 °C 63 % 1007,2 hPa 0,0 mm 0,0 km/h (0 Bft) O-NO 78 ° 0 min 0,000 mm 0,0 UV-I 9 W/m² 6,6 °C 13,5 °C 0,0 km/h (0 Bft)
05.11.2018 16:45 13,5 °C 62 % 1007,3 hPa 0,0 mm 0,0 km/h (0 Bft) O-NO 78 ° 0 min 0,000 mm 0,0 UV-I 9 W/m² 6,4 °C 13,5 °C 0,0 km/h (0 Bft)
05.11.2018 16:46 13,6 °C 62 % 1007,2 hPa 0,0 mm 0,0 km/h (0 Bft) O-NO 78 ° 0 min 0,000 mm 0,0 UV-I 9 W/m² 6,5 °C 13,6 °C 0,0 km/h (0 Bft)
05.11.2018 16:47 13,6 °C 62 % 1007,2 hPa 0,0 mm 0,0 km/h (0 Bft) O-NO 78 ° 0 min 0,000 mm 0,0 UV-I 9 W/m² 6,5 °C 13,6 °C 0,0 km/h (0 Bft)
05.11.2018 16:48 13,7 °C 61 % 1007,2 hPa 0,0 mm 0,0 km/h (0 Bft) O-NO 78 ° 0 min 0,000 mm 0,0 UV-I 9 W/m² 6,3 °C 13,7 °C 0,0 km/h (0 Bft)
05.11.2018 16:49 13,7 °C 61 % 1007,2 hPa 0,0 mm 0,0 km/h (0 Bft) O-NO 78 ° 0 min 0,000 mm 0,0 UV-I 9 W/m² 6,3 °C 13,7 °C 0,0 km/h (0 Bft)
05.11.2018 16:50 13,7 °C 61 % 1007,3 hPa 0,0 mm 0,0 km/h (0 Bft) O-NO 78 ° 0 min 0,000 mm 0,0 UV-I 7 W/m² 6,3 °C 13,7 °C 0,0 km/h (0 Bft)
05.11.2018 16:51 13,7 °C 62 % 1007,3 hPa 0,0 mm 0,0 km/h (0 Bft) O-NO 78 ° 0 min 0,000 mm 0,0 UV-I 7 W/m² 6,6 °C 13,7 °C 0,0 km/h (0 Bft)
05.11.2018 16:52 13,6 °C 63 % 1007,2 hPa 0,0 mm 0,0 km/h (0 Bft) O-NO 78 ° 0 min 0,000 mm 0,0 UV-I 7 W/m² 6,7 °C 13,6 °C 0,0 km/h (0 Bft)
05.11.2018 16:53 13,5 °C 62 % 1007,3 hPa 0,0 mm 0,0 km/h (0 Bft) O-NO 78 ° 0 min 0,000 mm 0,0 UV-I 7 W/m² 6,4 °C 13,5 °C 0,0 km/h (0 Bft)
05.11.2018 16:54 13,5 °C 62 % 1007,3 hPa 0,0 mm 0,0 km/h (0 Bft) O-NO 78 ° 0 min 0,000 mm 0,0 UV-I 7 W/m² 6,4 °C 13,5 °C 0,0 km/h (0 Bft)
05.11.2018 16:55 13,6 °C 61 % 1007,3 hPa 0,0 mm 0,0 km/h (0 Bft) O-NO 78 ° 0 min 0,000 mm 0,0 UV-I 7 W/m² 6,2 °C 13,6 °C 0,0 km/h (0 Bft)
05.11.2018 16:56 13,7 °C 61 % 1007,3 hPa 0,0 mm 0,0 km/h (0 Bft) O-NO 78 ° 0 min 0,000 mm 0,0 UV-I 5 W/m² 6,3 °C 13,7 °C 0,0 km/h (0 Bft)
05.11.2018 16:57 13,7 °C 61 % 1007,3 hPa 0,0 mm 0,0 km/h (0 Bft) O-NO 78 ° 0 min 0,000 mm 0,0 UV-I 5 W/m² 6,3 °C 13,7 °C 0,0 km/h (0 Bft)
05.11.2018 16:58 13,9 °C 60 % 1007,3 hPa 0,0 mm 0,0 km/h (0 Bft) O-NO 78 ° 0 min 0,000 mm 0,0 UV-I 0 W/m² 6,3 °C 13,9 °C 0,0 km/h (0 Bft)
05.11.2018 16:59 13,9 °C 60 % 1007,3 hPa 0,0 mm 0,7 km/h (0 Bft) O-NO 78 ° 0 min 0,000 mm 0,0 UV-I 0 W/m² 6,3 °C 13,9 °C 3,2 km/h (1 Bft)
05.11.2018 17:00 13,9 °C 61 % 1007,3 hPa 0,0 mm 2,2 km/h (1 Bft) O-NO 78 ° 0 min 0,000 mm 0,0 UV-I 0 W/m² 6,5 °C 13,9 °C 4,8 km/h (1 Bft)
05.11.2018 17:01 13,7 °C 61 % 1007,3 hPa 0,0 mm 1,1 km/h (1 Bft) O-NO 78 ° 0 min 0,026 mm 0,0 UV-I 0 W/m² 6,3 °C 13,7 °C 4,8 km/h (1 Bft)
05.11.2018 17:02 13,5 °C 62 % 1007,3 hPa 0,0 mm 0,0 km/h (0 Bft) O-NO 78 ° 0 min 0,000 mm 0,0 UV-I 0 W/m² 6,4 °C 13,5 °C 0,0 km/h (0 Bft)
05.11.2018 17:03 13,4 °C 61 % 1007,3 hPa 0,0 mm 0,0 km/h (0 Bft) O-NO 78 ° 0 min 0,000 mm 0,0 UV-I 0 W/m² 6,0 °C 13,4 °C 0,0 km/h (0 Bft)
05.11.2018 17:04 13,5 °C 60 % 1007,3 hPa 0,0 mm 0,0 km/h (0 Bft) O-NO 78 ° 0 min 0,000 mm 0,0 UV-I 0 W/m² 5,9 °C 13,5 °C 0,0 km/h (0 Bft)
05.11.2018 17:05 13,5 °C 61 % 1007,3 hPa 0,0 mm 0,6 km/h (0 Bft) O-NO 77 ° 0 min 0,000 mm 0,0 UV-I 0 W/m² 6,1 °C 13,5 °C 3,2 km/h (1 Bft)
05.11.2018 17:06 13,5 °C 61 % 1007,3 hPa 0,0 mm 0,0 km/h (0 Bft) O-NO 77 ° 0 min 0,000 mm 0,0 UV-I 0 W/m² 6,1 °C 13,5 °C 0,0 km/h (0 Bft)
05.11.2018 17:07 13,6 °C 63 % 1007,4 hPa 0,0 mm 2,2 km/h (1 Bft) O-NO 77 ° 0 min 0,000 mm 0,0 UV-I 0 W/m² 6,7 °C 13,6 °C 4,8 km/h (1 Bft)
05.11.2018 17:08 13,4 °C 63 % 1007,4 hPa 0,0 mm 1,9 km/h (1 Bft) O-NO 77 ° 0 min 0,000 mm 0,0 UV-I 0 W/m² 6,5 °C 13,4 °C 3,2 km/h (1 Bft)
05.11.2018 17:09 13,3 °C 63 % 1007,4 hPa 0,0 mm 0,0 km/h (0 Bft) O-NO 77 ° 0 min 0,000 mm 0,0 UV-I 0 W/m² 6,4 °C 13,3 °C 0,0 km/h (0 Bft)
05.11.2018 17:10 13,2 °C 63 % 1007,4 hPa 0,0 mm 0,0 km/h (0 Bft) O-NO 77 ° 0 min 0,000 mm 0,0 UV-I 0 W/m² 6,3 °C 13,2 °C 0,0 km/h (0 Bft)
05.11.2018 17:11 13,1 °C 62 % 1007,4 hPa 0,0 mm 0,0 km/h (0 Bft) O-NO 77 ° 0 min 0,000 mm 0,0 UV-I 0 W/m² 6,0 °C 13,1 °C 0,0 km/h (0 Bft)
05.11.2018 17:12 13,2 °C 62 % 1007,4 hPa 0,0 mm 0,0 km/h (0 Bft) O-NO 77 ° 0 min 0,000 mm 0,0 UV-I 0 W/m² 6,1 °C 13,2 °C 0,0 km/h (0 Bft)
05.11.2018 17:13 13,2 °C 62 % 1007,4 hPa 0,0 mm 0,0 km/h (0 Bft) O-NO 77 ° 0 min 0,000 mm 0,0 UV-I 0 W/m² 6,1 °C 13,2 °C 0,0 km/h (0 Bft)
05.11.2018 17:14 13,3 °C 61 % 1007,4 hPa 0,0 mm 0,0 km/h (0 Bft) O-NO 77 ° 0 min 0,000 mm 0,0 UV-I 0 W/m² 5,9 °C 13,3 °C 0,0 km/h (0 Bft)
05.11.2018 17:15 13,3 °C 61 % 1007,5 hPa 0,0 mm 0,0 km/h (0 Bft) O-NO 77 ° 0 min 0,000 mm 0,0 UV-I 0 W/m² 5,9 °C 13,3 °C 0,0 km/h (0 Bft)
05.11.2018 17:16 13,4 °C 60 % 1007,6 hPa 0,0 mm 1,3 km/h (1 Bft) O-NO 78 ° 0 min 0,000 mm 0,0 UV-I 0 W/m² 5,8 °C 13,4 °C 3,2 km/h (1 Bft)
05.11.2018 17:17 13,5 °C 61 % 1007,5 hPa 0,0 mm 1,8 km/h (1 Bft) O-NO 78 ° 0 min 0,000 mm 0,0 UV-I 0 W/m² 6,1 °C 13,5 °C 3,2 km/h (1 Bft)
05.11.2018 17:18 13,4 °C 61 % 1007,5 hPa 0,0 mm 2,0 km/h (1 Bft) O-NO 78 ° 0 min 0,000 mm 0,0 UV-I 0 W/m² 6,0 °C 13,4 °C 3,2 km/h (1 Bft)
05.11.2018 17:19 13,4 °C 61 % 1007,5 hPa 0,0 mm 0,5 km/h (0 Bft) O-NO 78 ° 0 min 0,000 mm 0,0 UV-I 0 W/m² 6,0 °C 13,4 °C 1,6 km/h (1 Bft)
05.11.2018 17:20 13,4 °C 61 % 1007,5 hPa 0,0 mm 0,8 km/h (0 Bft) O-NO 78 ° 0 min 0,000 mm 0,0 UV-I 0 W/m² 6,0 °C 13,4 °C 3,2 km/h (1 Bft)
05.11.2018 17:21 13,3 °C 61 % 1007,5 hPa 0,0 mm 0,7 km/h (0 Bft) O-NO 78 ° 0 min 0,000 mm 0,0 UV-I 0 W/m² 5,9 °C 13,3 °C 1,6 km/h (1 Bft)
05.11.2018 17:22 13,3 °C 62 % 1007,5 hPa 0,0 mm 0,3 km/h (0 Bft) O-NO 78 ° 0 min 0,000 mm 0,0 UV-I 0 W/m² 6,2 °C 13,3 °C 1,6 km/h (1 Bft)
05.11.2018 17:23 13,3 °C 61 % 1007,5 hPa 0,0 mm 0,0 km/h (0 Bft) O-NO 78 ° 0 min 0,000 mm 0,0 UV-I 0 W/m² 5,9 °C 13,3 °C 0,0 km/h (0 Bft)
05.11.2018 17:24 13,4 °C 61 % 1007,5 hPa 0,0 mm 0,0 km/h (0 Bft) O-NO 78 ° 0 min 0,000 mm 0,0 UV-I 0 W/m² 6,0 °C 13,4 °C 0,0 km/h (0 Bft)
05.11.2018 17:25 13,4 °C 61 % 1007,6 hPa 0,0 mm 0,0 km/h (0 Bft) O-NO 78 ° 0 min 0,000 mm 0,0 UV-I 0 W/m² 6,0 °C 13,4 °C 0,0 km/h (0 Bft)
05.11.2018 17:26 13,4 °C 61 % 1007,6 hPa 0,0 mm 0,0 km/h (0 Bft) O-NO 78 ° 0 min 0,000 mm 0,0 UV-I 0 W/m² 6,0 °C 13,4 °C 0,0 km/h (0 Bft)
05.11.2018 17:27 13,4 °C 61 % 1007,6 hPa 0,0 mm 0,0 km/h (0 Bft) O-NO 78 ° 0 min 0,000 mm 0,0 UV-I 0 W/m² 6,0 °C 13,4 °C 0,0 km/h (0 Bft)
05.11.2018 17:28 13,3 °C 62 % 1007,6 hPa 0,0 mm 0,0 km/h (0 Bft) O-NO 78 ° 0 min 0,000 mm 0,0 UV-I 0 W/m² 6,2 °C 13,3 °C 0,0 km/h (0 Bft)
05.11.2018 17:29 13,2 °C 62 % 1007,6 hPa 0,0 mm 0,0 km/h (0 Bft) O-NO 78 ° 0 min 0,000 mm 0,0 UV-I 0 W/m² 6,1 °C 13,2 °C 0,0 km/h (0 Bft)
05.11.2018 17:30 13,1 °C 62 % 1007,6 hPa 0,0 mm 0,0 km/h (0 Bft) O-NO 78 ° 0 min 0,000 mm 0,0 UV-I 0 W/m² 6,0 °C 13,1 °C 0,0 km/h (0 Bft)
05.11.2018 17:31 13,0 °C 63 % 1007,5 hPa 0,0 mm 0,0 km/h (0 Bft) O-NO 78 ° 0 min 0,000 mm 0,0 UV-I 0 W/m² 6,1 °C 13,0 °C 0,0 km/h (0 Bft)
05.11.2018 17:32 12,9 °C 63 % 1007,5 hPa 0,0 mm 0,0 km/h (0 Bft) O-NO 78 ° 0 min 0,000 mm 0,0 UV-I 0 W/m² 6,0 °C 12,9 °C 0,0 km/h (0 Bft)
05.11.2018 17:33 12,9 °C 63 % 1007,6 hPa 0,0 mm 0,0 km/h (0 Bft) O-NO 78 ° 0 min 0,000 mm 0,0 UV-I 0 W/m² 6,0 °C 12,9 °C 0,0 km/h (0 Bft)
05.11.2018 17:34 12,9 °C 64 % 1007,5 hPa 0,0 mm 0,0 km/h (0 Bft) O-NO 78 ° 0 min 0,000 mm 0,0 UV-I 0 W/m² 6,3 °C 12,9 °C 0,0 km/h (0 Bft)
05.11.2018 17:35 12,8 °C 64 % 1007,6 hPa 0,0 mm 0,0 km/h (0 Bft) O-NO 78 ° 0 min 0,000 mm 0,0 UV-I 0 W/m² 6,2 °C 12,8 °C 0,0 km/h (0 Bft)
05.11.2018 17:36 12,8 °C 64 % 1007,6 hPa 0,0 mm 0,0 km/h (0 Bft) O-NO 78 ° 0 min 0,000 mm 0,0 UV-I 0 W/m² 6,2 °C 12,8 °C 0,0 km/h (0 Bft)
05.11.2018 17:37 12,7 °C 65 % 1007,6 hPa 0,0 mm 0,0 km/h (0 Bft) O-NO 78 ° 0 min 0,000 mm 0,0 UV-I 0 W/m² 6,3 °C 12,7 °C 0,0 km/h (0 Bft)
05.11.2018 17:38 12,6 °C 65 % 1007,6 hPa 0,0 mm 0,0 km/h (0 Bft) O-NO 78 ° 0 min 0,000 mm 0,0 UV-I 0 W/m² 6,2 °C 12,6 °C 0,0 km/h (0 Bft)
05.11.2018 17:39 12,6 °C 66 % 1007,6 hPa 0,0 mm 0,0 km/h (0 Bft) O-NO 78 ° 0 min 0,000 mm 0,0 UV-I 0 W/m² 6,4 °C 12,6 °C 0,0 km/h (0 Bft)
05.11.2018 17:40 12,4 °C 65 % 1007,6 hPa 0,0 mm 0,0 km/h (0 Bft) O-NO 78 ° 0 min 0,000 mm 0,0 UV-I 0 W/m² 6,0 °C 12,4 °C 0,0 km/h (0 Bft)
05.11.2018 17:41 12,4 °C 65 % 1007,7 hPa 0,0 mm 0,0 km/h (0 Bft) O-NO 78 ° 0 min 0,000 mm 0,0 UV-I 0 W/m² 6,0 °C 12,4 °C 0,0 km/h (0 Bft)
05.11.2018 17:42 12,4 °C 65 % 1007,6 hPa 0,0 mm 0,0 km/h (0 Bft) O-NO 78 ° 0 min 0,000 mm 0,0 UV-I 0 W/m² 6,0 °C 12,4 °C 0,0 km/h (0 Bft)
05.11.2018 17:43 12,4 °C 66 % 1007,7 hPa 0,0 mm 0,0 km/h (0 Bft) O-NO 78 ° 0 min 0,000 mm 0,0 UV-I 0 W/m² 6,2 °C 12,4 °C 0,0 km/h (0 Bft)
05.11.2018 17:44 12,4 °C 65 % 1007,7 hPa 0,0 mm 0,0 km/h (0 Bft) O-NO 78 ° 0 min 0,000 mm 0,0 UV-I 0 W/m² 6,0 °C 12,4 °C 0,0 km/h (0 Bft)
05.11.2018 17:45 12,4 °C 66 % 1007,7 hPa 0,0 mm 0,0 km/h (0 Bft) O-NO 78 ° 0 min 0,000 mm 0,0 UV-I 0 W/m² 6,2 °C 12,4 °C 0,0 km/h (0 Bft)
05.11.2018 17:46 12,4 °C 66 % 1007,8 hPa 0,0 mm 0,0 km/h (0 Bft) O-NO 78 ° 0 min 0,000 mm 0,0 UV-I 0 W/m² 6,2 °C 12,4 °C 0,0 km/h (0 Bft)
05.11.2018 17:47 12,4 °C 66 % 1007,7 hPa 0,0 mm 0,4 km/h (0 Bft) O-NO 78 ° 0 min 0,000 mm 0,0 UV-I 0 W/m² 6,2 °C 12,4 °C 3,2 km/h (1 Bft)
05.11.2018 17:48 12,4 °C 66 % 1007,8 hPa 0,0 mm 0,7 km/h (0 Bft) O-NO 78 ° 0 min 0,000 mm 0,0 UV-I 0 W/m² 6,2 °C 12,4 °C 3,2 km/h (1 Bft)
05.11.2018 17:49 12,4 °C 66 % 1007,7 hPa 0,0 mm 1,0 km/h (0 Bft) O-NO 78 ° 0 min 0,000 mm 0,0 UV-I 0 W/m² 6,2 °C 12,4 °C 3,2 km/h (1 Bft)
05.11.2018 17:50 12,3 °C 66 % 1007,7 hPa 0,0 mm 0,0 km/h (0 Bft) O-NO 78 ° 0 min 0,000 mm 0,0 UV-I 0 W/m² 6,1 °C 12,3 °C 0,0 km/h (0 Bft)
05.11.2018 17:51 12,3 °C 66 % 1007,7 hPa 0,0 mm 0,0 km/h (0 Bft) O-NO 78 ° 0 min 0,000 mm 0,0 UV-I 0 W/m² 6,1 °C 12,3 °C 0,0 km/h (0 Bft)
05.11.2018 17:52 12,3 °C 66 % 1007,8 hPa 0,0 mm 0,0 km/h (0 Bft) O-NO 78 ° 0 min 0,000 mm 0,0 UV-I 0 W/m² 6,1 °C 12,3 °C 0,0 km/h (0 Bft)
05.11.2018 17:53 12,3 °C 66 % 1007,7 hPa 0,0 mm 0,0 km/h (0 Bft) O-NO 78 ° 0 min 0,000 mm 0,0 UV-I 0 W/m² 6,1 °C 12,3 °C 0,0 km/h (0 Bft)
05.11.2018 17:54 12,2 °C 66 % 1007,8 hPa 0,0 mm 0,1 km/h (0 Bft) O-NO 78 ° 0 min 0,000 mm 0,0 UV-I 0 W/m² 6,0 °C 12,2 °C 1,6 km/h (1 Bft)
05.11.2018 17:55 12,2 °C 66 % 1007,8 hPa 0,0 mm 0,3 km/h (0 Bft) O-NO 78 ° 0 min 0,000 mm 0,0 UV-I 0 W/m² 6,0 °C 12,2 °C 1,6 km/h (1 Bft)
05.11.2018 17:56 12,2 °C 66 % 1007,7 hPa 0,0 mm 0,0 km/h (0 Bft) O-NO 78 ° 0 min 0,000 mm 0,0 UV-I 0 W/m² 6,0 °C 12,2 °C 0,0 km/h (0 Bft)
05.11.2018 17:57 12,2 °C 66 % 1007,8 hPa 0,0 mm 0,0 km/h (0 Bft) O-NO 78 ° 0 min 0,000 mm 0,0 UV-I 0 W/m² 6,0 °C 12,2 °C 0,0 km/h (0 Bft)
05.11.2018 17:58 12,2 °C 66 % 1007,8 hPa 0,0 mm 0,0 km/h (0 Bft) O-NO 78 ° 0 min 0,000 mm 0,0 UV-I 0 W/m² 6,0 °C 12,2 °C 0,0 km/h (0 Bft)
05.11.2018 17:59 12,3 °C 66 % 1007,7 hPa 0,0 mm 0,0 km/h (0 Bft) O-NO 78 ° 0 min 0,000 mm 0,0 UV-I 0 W/m² 6,1 °C 12,3 °C 0,0 km/h (0 Bft)
05.11.2018 18:00 12,3 °C 65 % 1007,7 hPa 0,0 mm 0,0 km/h (0 Bft) O-NO 78 ° 0 min 0,000 mm 0,0 UV-I 0 W/m² 5,9 °C 12,3 °C 0,0 km/h (0 Bft)
05.11.2018 18:01 12,3 °C 65 % 1007,7 hPa 0,0 mm 0,0 km/h (0 Bft) O-NO 78 ° 0 min 0,000 mm 0,0 UV-I 0 W/m² 5,9 °C 12,3 °C 0,0 km/h (0 Bft)
05.11.2018 18:02 12,4 °C 65 % 1007,7 hPa 0,0 mm 0,0 km/h (0 Bft) O-NO 78 ° 0 min 0,000 mm 0,0 UV-I 0 W/m² 6,0 °C 12,4 °C 0,0 km/h (0 Bft)
05.11.2018 18:03 12,5 °C 65 % 1007,7 hPa 0,0 mm 0,0 km/h (0 Bft) O-NO 78 ° 0 min 0,000 mm 0,0 UV-I 0 W/m² 6,1 °C 12,5 °C 0,0 km/h (0 Bft)
05.11.2018 18:04 12,6 °C 64 % 1007,7 hPa 0,0 mm 0,0 km/h (0 Bft) O-NO 78 ° 0 min 0,000 mm 0,0 UV-I 0 W/m² 6,0 °C 12,6 °C 0,0 km/h (0 Bft)
05.11.2018 18:05 12,6 °C 64 % 1007,7 hPa 0,0 mm 0,0 km/h (0 Bft) O-NO 78 ° 0 min 0,000 mm 0,0 UV-I 0 W/m² 6,0 °C 12,6 °C 0,0 km/h (0 Bft)
05.11.2018 18:06 12,5 °C 64 % 1007,7 hPa 0,0 mm 0,2 km/h (0 Bft) O-NO 78 ° 0 min 0,000 mm 0,0 UV-I 0 W/m² 5,9 °C 12,5 °C 1,6 km/h (1 Bft)
05.11.2018 18:07 12,5 °C 64 % 1007,8 hPa 0,0 mm 0,0 km/h (0 Bft) O-NO 78 ° 0 min 0,000 mm 0,0 UV-I 0 W/m² 5,9 °C 12,5 °C 0,0 km/h (0 Bft)
05.11.2018 18:08 12,4 °C 64 % 1007,7 hPa 0,0 mm 0,0 km/h (0 Bft) O-NO 78 ° 0 min 0,000 mm 0,0 UV-I 0 W/m² 5,8 °C 12,4 °C 0,0 km/h (0 Bft)
05.11.2018 18:09 12,4 °C 65 % 1007,7 hPa 0,0 mm 0,6 km/h (0 Bft) O-NO 78 ° 0 min 0,000 mm 0,0 UV-I 0 W/m² 6,0 °C 12,4 °C 1,6 km/h (1 Bft)
05.11.2018 18:10 12,4 °C 65 % 1007,8 hPa 0,0 mm 0,0 km/h (0 Bft) O-NO 78 ° 0 min 0,000 mm 0,0 UV-I 0 W/m² 6,0 °C 12,4 °C 0,0 km/h (0 Bft)
05.11.2018 18:11 12,4 °C 65 % 1007,8 hPa 0,0 mm 0,0 km/h (0 Bft) O-NO 78 ° 0 min 0,000 mm 0,0 UV-I 0 W/m² 6,0 °C 12,4 °C 0,0 km/h (0 Bft)
05.11.2018 18:12 12,4 °C 64 % 1007,8 hPa 0,0 mm 0,0 km/h (0 Bft) O-NO 78 ° 0 min 0,000 mm 0,0 UV-I 0 W/m² 5,8 °C 12,4 °C 0,0 km/h (0 Bft)
05.11.2018 18:13 12,4 °C 64 % 1007,8 hPa 0,0 mm 0,0 km/h (0 Bft) O-NO 78 ° 0 min 0,000 mm 0,0 UV-I 0 W/m² 5,8 °C 12,4 °C 0,0 km/h (0 Bft)
05.11.2018 18:14 12,4 °C 64 % 1007,8 hPa 0,0 mm 0,7 km/h (0 Bft) O-NO 78 ° 0 min 0,000 mm 0,0 UV-I 0 W/m² 5,8 °C 12,4 °C 3,2 km/h (1 Bft)
05.11.2018 18:15 12,2 °C 65 % 1007,8 hPa 0,0 mm 0,3 km/h (0 Bft) O-NO 78 ° 0 min 0,000 mm 0,0 UV-I 0 W/m² 5,8 °C 12,2 °C 3,2 km/h (1 Bft)
05.11.2018 18:16 12,2 °C 65 % 1007,8 hPa 0,0 mm 1,5 km/h (1 Bft) O-NO 78 ° 0 min 0,000 mm 0,0 UV-I 0 W/m² 5,8 °C 12,2 °C 3,2 km/h (1 Bft)
05.11.2018 18:17 12,2 °C 65 % 1007,8 hPa 0,0 mm 0,5 km/h (0 Bft) O-NO 75 ° 0 min 0,000 mm 0,0 UV-I 0 W/m² 5,8 °C 12,2 °C 1,6 km/h (1 Bft)
05.11.2018 18:18 12,2 °C 64 % 1007,8 hPa 0,0 mm 0,0 km/h (0 Bft) O-NO 75 ° 0 min 0,000 mm 0,0 UV-I 0 W/m² 5,6 °C 12,2 °C 0,0 km/h (0 Bft)
05.11.2018 18:19 12,2 °C 64 % 1007,8 hPa 0,0 mm 0,0 km/h (0 Bft) O-NO 75 ° 0 min 0,000 mm 0,0 UV-I 0 W/m² 5,6 °C 12,2 °C 0,0 km/h (0 Bft)
05.11.2018 18:20 12,3 °C 64 % 1007,8 hPa 0,0 mm 0,0 km/h (0 Bft) O-NO 75 ° 0 min 0,000 mm 0,0 UV-I 0 W/m² 5,7 °C 12,3 °C 0,0 km/h (0 Bft)
05.11.2018 18:21 12,4 °C 63 % 1007,8 hPa 0,0 mm 0,0 km/h (0 Bft) O-NO 75 ° 0 min 0,000 mm 0,0 UV-I 0 W/m² 5,6 °C 12,4 °C 0,0 km/h (0 Bft)
05.11.2018 18:22 12,5 °C 63 % 1007,8 hPa 0,0 mm 0,0 km/h (0 Bft) O-NO 75 ° 0 min 0,000 mm 0,0 UV-I 0 W/m² 5,7 °C 12,5 °C 0,0 km/h (0 Bft)
05.11.2018 18:23 12,6 °C 63 % 1007,8 hPa 0,0 mm 0,0 km/h (0 Bft) O-NO 75 ° 0 min 0,000 mm 0,0 UV-I 0 W/m² 5,7 °C 12,6 °C 0,0 km/h (0 Bft)
05.11.2018 18:24 12,6 °C 63 % 1007,8 hPa 0,0 mm 0,0 km/h (0 Bft) O-NO 75 ° 0 min 0,000 mm 0,0 UV-I 0 W/m² 5,7 °C 12,6 °C 0,0 km/h (0 Bft)
05.11.2018 18:25 12,6 °C 62 % 1007,8 hPa 0,0 mm 0,0 km/h (0 Bft) O-NO 75 ° 0 min 0,000 mm 0,0 UV-I 0 W/m² 5,5 °C 12,6 °C 0,0 km/h (0 Bft)
05.11.2018 18:26 12,6 °C 62 % 1007,8 hPa 0,0 mm 0,0 km/h (0 Bft) O-NO 75 ° 0 min 0,000 mm 0,0 UV-I 0 W/m² 5,5 °C 12,6 °C 0,0 km/h (0 Bft)
05.11.2018 18:27 12,7 °C 64 % 1007,8 hPa 0,0 mm 0,0 km/h (0 Bft) N 0 ° 0 min 0,000 mm 0,0 UV-I 0 W/m² 6,1 °C 12,7 °C 0,0 km/h (0 Bft)
05.11.2018 18:28 12,6 °C 63 % 1007,8 hPa 0,0 mm 0,0 km/h (0 Bft) O-NO 67 ° 0 min 0,000 mm 0,0 UV-I 0 W/m² 5,7 °C 12,6 °C 1,6 km/h (1 Bft)
05.11.2018 18:29 12,6 °C 63 % 1007,9 hPa 0,0 mm 0,0 km/h (0 Bft) N 0 ° 0 min 0,000 mm 0,0 UV-I 0 W/m² 5,7 °C 12,6 °C 0,0 km/h (0 Bft)
05.11.2018 18:30 12,5 °C 63 % 1007,9 hPa 0,0 mm 0,0 km/h (0 Bft) N 0 ° 0 min 0,000 mm 0,0 UV-I 0 W/m² 5,7 °C 12,5 °C 0,0 km/h (0 Bft)
05.11.2018 18:31 12,4 °C 63 % 1007,9 hPa 0,0 mm 0,0 km/h (0 Bft) N 0 ° 0 min 0,000 mm 0,0 UV-I 0 W/m² 5,6 °C 12,4 °C 0,0 km/h (0 Bft)
05.11.2018 18:32 12,4 °C 63 % 1007,9 hPa 0,0 mm 0,0 km/h (0 Bft) N 0 ° 0 min 0,000 mm 0,0 UV-I 0 W/m² 5,6 °C 12,4 °C 0,0 km/h (0 Bft)
05.11.2018 18:33 12,4 °C 63 % 1007,9 hPa 0,0 mm 0,0 km/h (0 Bft) N 0 ° 0 min 0,000 mm 0,0 UV-I 0 W/m² 5,6 °C 12,4 °C 0,0 km/h (0 Bft)
05.11.2018 18:35 12,4 °C 63 % 1007,9 hPa 0,0 mm 0,0 km/h (0 Bft) O-NO 75 ° 0 min 0,000 mm 0,0 UV-I 0 W/m² 5,6 °C 12,4 °C 0,0 km/h (0 Bft)
05.11.2018 18:37 12,4 °C 63 % 1007,8 hPa 0,0 mm 0,0 km/h (0 Bft) O-NO 75 ° 0 min 0,000 mm 0,0 UV-I 0 W/m² 5,6 °C 12,4 °C 1,6 km/h (1 Bft)
05.11.2018 18:38 12,4 °C 64 % 1007,9 hPa 0,0 mm 0,0 km/h (0 Bft) O-NO 75 ° 0 min 0,000 mm 0,0 UV-I 0 W/m² 5,8 °C 12,4 °C 0,0 km/h (0 Bft)
05.11.2018 18:39 12,3 °C 64 % 1007,8 hPa 0,0 mm 0,0 km/h (0 Bft) O-NO 75 ° 0 min 0,000 mm 0,0 UV-I 0 W/m² 5,7 °C 12,3 °C 0,0 km/h (0 Bft)
05.11.2018 18:40 12,3 °C 64 % 1007,8 hPa 0,0 mm 0,0 km/h (0 Bft) N 0 ° 0 min 0,000 mm 0,0 UV-I 0 W/m² 5,7 °C 12,3 °C 0,0 km/h (0 Bft)
05.11.2018 18:42 12,2 °C 64 % 1007,8 hPa 0,0 mm 0,0 km/h (0 Bft) O-NO 75 ° 0 min 0,000 mm 0,0 UV-I 0 W/m² 5,6 °C 12,2 °C 0,0 km/h (0 Bft)
05.11.2018 18:43 12,2 °C 64 % 1007,8 hPa 0,0 mm 0,5 km/h (0 Bft) O-NO 75 ° 0 min 0,000 mm 0,0 UV-I 0 W/m² 5,6 °C 12,2 °C 3,2 km/h (1 Bft)
05.11.2018 18:44 12,2 °C 64 % 1007,8 hPa 0,0 mm 1,1 km/h (1 Bft) O-NO 74 ° 0 min 0,000 mm 0,0 UV-I 0 W/m² 5,6 °C 12,2 °C 3,2 km/h (1 Bft)
05.11.2018 18:45 12,2 °C 64 % 1007,8 hPa 0,0 mm 0,1 km/h (0 Bft) O-NO 74 ° 0 min 0,000 mm 0,0 UV-I 0 W/m² 5,6 °C 12,2 °C 1,6 km/h (1 Bft)
05.11.2018 18:47 12,1 °C 64 % 1007,8 hPa 0,0 mm 1,2 km/h (1 Bft) O-SO 107 ° 0 min 0,000 mm 0,0 UV-I 0 W/m² 5,5 °C 12,1 °C 4,8 km/h (1 Bft)
05.11.2018 18:48 12,1 °C 64 % 1007,8 hPa 0,0 mm 0,0 km/h (0 Bft) O-SO 107 ° 0 min 0,000 mm 0,0 UV-I 0 W/m² 5,5 °C 12,1 °C 0,0 km/h (0 Bft)
05.11.2018 18:49 12,1 °C 64 % 1007,8 hPa 0,0 mm 0,0 km/h (0 Bft) O-SO 107 ° 0 min 0,000 mm 0,0 UV-I 0 W/m² 5,5 °C 12,1 °C 0,0 km/h (0 Bft)
05.11.2018 18:50 12,1 °C 64 % 1007,9 hPa 0,0 mm 0,0 km/h (0 Bft) O-SO 107 ° 0 min 0,000 mm 0,0 UV-I 0 W/m² 5,5 °C 12,1 °C 0,0 km/h (0 Bft)
05.11.2018 18:52 12,2 °C 64 % 1008,0 hPa 0,0 mm 0,0 km/h (0 Bft) O-SO 107 ° 0 min 0,000 mm 0,0 UV-I 0 W/m² 5,6 °C 12,2 °C 1,6 km/h (1 Bft)
05.11.2018 18:53 12,2 °C 64 % 1008,0 hPa 0,0 mm 0,0 km/h (0 Bft) O-SO 107 ° 0 min 0,000 mm 0,0 UV-I 0 W/m² 5,6 °C 12,2 °C 0,0 km/h (0 Bft)
05.11.2018 18:54 12,3 °C 63 % 1007,9 hPa 0,0 mm 0,0 km/h (0 Bft) O-SO 107 ° 0 min 0,000 mm 0,0 UV-I 0 W/m² 5,5 °C 12,3 °C 0,0 km/h (0 Bft)
05.11.2018 18:55 12,4 °C 63 % 1007,9 hPa 0,0 mm 0,0 km/h (0 Bft) O-SO 107 ° 0 min 0,000 mm 0,0 UV-I 0 W/m² 5,6 °C 12,4 °C 0,0 km/h (0 Bft)
05.11.2018 18:57 12,4 °C 63 % 1008,0 hPa 0,0 mm 0,0 km/h (0 Bft) O-SO 107 ° 0 min 0,000 mm 0,0 UV-I 0 W/m² 5,6 °C 12,4 °C 0,0 km/h (0 Bft)
05.11.2018 18:58 12,4 °C 63 % 1008,0 hPa 0,0 mm 0,0 km/h (0 Bft) O-SO 107 ° 0 min 0,000 mm 0,0 UV-I 0 W/m² 5,6 °C 12,4 °C 0,0 km/h (0 Bft)
05.11.2018 18:59 12,3 °C 63 % 1008,0 hPa 0,0 mm 0,2 km/h (0 Bft) O-SO 107 ° 0 min 0,000 mm 0,0 UV-I 0 W/m² 5,5 °C 12,3 °C 1,6 km/h (1 Bft)
05.11.2018 19:00 12,2 °C 63 % 1008,0 hPa 0,0 mm 0,1 km/h (0 Bft) O-SO 107 ° 0 min 0,000 mm 0,0 UV-I 0 W/m² 5,4 °C 12,2 °C 1,6 km/h (1 Bft)
05.11.2018 19:01 12,2 °C 63 % 1008,0 hPa 0,0 mm 0,0 km/h (0 Bft) O-SO 107 ° 0 min 0,025 mm 0,0 UV-I 0 W/m² 5,4 °C 12,2 °C 0,0 km/h (0 Bft)
05.11.2018 19:02 12,2 °C 63 % 1008,0 hPa 0,0 mm 0,0 km/h (0 Bft) O-SO 107 ° 0 min 0,000 mm 0,0 UV-I 0 W/m² 5,4 °C 12,2 °C 0,0 km/h (0 Bft)
05.11.2018 19:03 12,3 °C 63 % 1008,0 hPa 0,0 mm 0,0 km/h (0 Bft) O-SO 107 ° 0 min 0,000 mm 0,0 UV-I 0 W/m² 5,5 °C 12,3 °C 0,0 km/h (0 Bft)
05.11.2018 19:04 12,3 °C 63 % 1008,0 hPa 0,0 mm 0,0 km/h (0 Bft) O-SO 107 ° 0 min 0,000 mm 0,0 UV-I 0 W/m² 5,5 °C 12,3 °C 0,0 km/h (0 Bft)
05.11.2018 19:05 12,4 °C 63 % 1008,0 hPa 0,0 mm 0,1 km/h (0 Bft) O-SO 107 ° 0 min 0,000 mm 0,0 UV-I 0 W/m² 5,6 °C 12,4 °C 1,6 km/h (1 Bft)
05.11.2018 19:06 12,4 °C 63 % 1007,9 hPa 0,0 mm 1,6 km/h (1 Bft) O-SO 107 ° 0 min 0,000 mm 0,0 UV-I 0 W/m² 5,6 °C 12,4 °C 1,6 km/h (1 Bft)
05.11.2018 19:07 12,5 °C 63 % 1007,9 hPa 0,0 mm 0,0 km/h (0 Bft) N 0 ° 0 min 0,000 mm 0,0 UV-I 0 W/m² 5,7 °C 12,5 °C 0,0 km/h (0 Bft)
05.11.2018 19:08 12,4 °C 63 % 1008,0 hPa 0,0 mm 0,0 km/h (0 Bft) N 0 ° 0 min 0,000 mm 0,0 UV-I 0 W/m² 5,6 °C 12,4 °C 0,0 km/h (0 Bft)
05.11.2018 19:09 12,4 °C 63 % 1008,0 hPa 0,0 mm 0,0 km/h (0 Bft) O-SO 112 ° 0 min 0,000 mm 0,0 UV-I 0 W/m² 5,6 °C 12,4 °C 1,6 km/h (1 Bft)
05.11.2018 19:10 12,3 °C 63 % 1008,1 hPa 0,0 mm 0,0 km/h (0 Bft) O-SO 112 ° 0 min 0,000 mm 0,0 UV-I 0 W/m² 5,5 °C 12,3 °C 1,6 km/h (1 Bft)
05.11.2018 19:11 12,3 °C 63 % 1008,0 hPa 0,0 mm 0,0 km/h (0 Bft) O-SO 112 ° 0 min 0,000 mm 0,0 UV-I 0 W/m² 5,5 °C 12,3 °C 1,6 km/h (1 Bft)
05.11.2018 19:12 12,3 °C 63 % 1008,0 hPa 0,0 mm 0,0 km/h (0 Bft) O-SO 112 ° 0 min 0,000 mm 0,0 UV-I 0 W/m² 5,5 °C 12,3 °C 1,6 km/h (1 Bft)
05.11.2018 19:13 12,3 °C 62 % 1008,0 hPa 0,0 mm 0,0 km/h (0 Bft) O-SO 112 ° 0 min 0,000 mm 0,0 UV-I 0 W/m² 5,2 °C 12,3 °C 1,6 km/h (1 Bft)
05.11.2018 19:15 12,2 °C 63 % 1008,1 hPa 0,0 mm 0,0 km/h (0 Bft) O-SO 106 ° 0 min 0,000 mm 0,0 UV-I 0 W/m² 5,4 °C 12,2 °C 0,0 km/h (0 Bft)
05.11.2018 19:17 12,1 °C 63 % 1008,0 hPa 0,0 mm 0,1 km/h (0 Bft) O-SO 106 ° 0 min 0,000 mm 0,0 UV-I 0 W/m² 5,3 °C 12,1 °C 1,6 km/h (1 Bft)
05.11.2018 19:18 12,1 °C 63 % 1008,0 hPa 0,0 mm 0,0 km/h (0 Bft) O-SO 106 ° 0 min 0,000 mm 0,0 UV-I 0 W/m² 5,3 °C 12,1 °C 0,0 km/h (0 Bft)
05.11.2018 19:19 12,1 °C 63 % 1008,0 hPa 0,0 mm 0,0 km/h (0 Bft) O-SO 106 ° 0 min 0,000 mm 0,0 UV-I 0 W/m² 5,3 °C 12,1 °C 0,0 km/h (0 Bft)
05.11.2018 19:20 12,2 °C 63 % 1008,1 hPa 0,0 mm 0,0 km/h (0 Bft) O-SO 106 ° 0 min 0,000 mm 0,0 UV-I 0 W/m² 5,4 °C 12,2 °C 0,0 km/h (0 Bft)
05.11.2018 19:21 12,2 °C 62 % 1008,0 hPa 0,0 mm 0,0 km/h (0 Bft) O-SO 106 ° 0 min 0,000 mm 0,0 UV-I 0 W/m² 5,1 °C 12,2 °C 0,0 km/h (0 Bft)
05.11.2018 19:22 12,2 °C 63 % 1008,0 hPa 0,0 mm 2,1 km/h (1 Bft) O 94 ° 0 min 0,000 mm 0,0 UV-I 0 W/m² 5,4 °C 12,2 °C 6,4 km/h (2 Bft)
05.11.2018 19:23 12,1 °C 64 % 1008,0 hPa 0,0 mm 4,7 km/h (1 Bft) SO 144 ° 0 min 0,000 mm 0,0 UV-I 0 W/m² 5,5 °C 12,1 °C 6,4 km/h (2 Bft)
05.11.2018 19:24 12,0 °C 63 % 1008,0 hPa 0,0 mm 0,1 km/h (0 Bft) SO 144 ° 0 min 0,000 mm 0,0 UV-I 0 W/m² 5,2 °C 12,0 °C 1,6 km/h (1 Bft)
05.11.2018 19:25 12,0 °C 63 % 1008,0 hPa 0,0 mm 0,5 km/h (0 Bft) SO 144 ° 0 min 0,000 mm 0,0 UV-I 0 W/m² 5,2 °C 12,0 °C 1,6 km/h (1 Bft)
05.11.2018 19:26 11,9 °C 63 % 1008,0 hPa 0,0 mm 1,1 km/h (1 Bft) SO 144 ° 0 min 0,000 mm 0,0 UV-I 0 W/m² 5,1 °C 11,9 °C 3,2 km/h (1 Bft)
05.11.2018 19:27 11,9 °C 63 % 1008,0 hPa 0,0 mm 2,0 km/h (1 Bft) SO 144 ° 0 min 0,000 mm 0,0 UV-I 0 W/m² 5,1 °C 11,9 °C 3,2 km/h (1 Bft)
05.11.2018 19:28 11,9 °C 63 % 1008,0 hPa 0,0 mm 2,8 km/h (1 Bft) SO 144 ° 0 min 0,000 mm 0,0 UV-I 0 W/m² 5,1 °C 11,9 °C 4,8 km/h (1 Bft)
05.11.2018 19:29 11,9 °C 63 % 1008,1 hPa 0,0 mm 0,4 km/h (0 Bft) SO 144 ° 0 min 0,000 mm 0,0 UV-I 0 W/m² 5,1 °C 11,9 °C 1,6 km/h (1 Bft)
05.11.2018 19:30 12,0 °C 63 % 1008,1 hPa 0,0 mm 0,8 km/h (0 Bft) SO 144 ° 0 min 0,000 mm 0,0 UV-I 0 W/m² 5,2 °C 12,0 °C 1,6 km/h (1 Bft)
05.11.2018 19:31 12,1 °C 63 % 1008,1 hPa 0,0 mm 3,1 km/h (1 Bft) SO 144 ° 0 min 0,000 mm 0,0 UV-I 0 W/m² 5,3 °C 12,1 °C 4,8 km/h (1 Bft)
05.11.2018 19:32 11,9 °C 63 % 1008,1 hPa 0,0 mm 2,6 km/h (1 Bft) SO 144 ° 0 min 0,000 mm 0,0 UV-I 0 W/m² 5,1 °C 11,9 °C 4,8 km/h (1 Bft)
05.11.2018 19:33 11,8 °C 63 % 1008,1 hPa 0,0 mm 2,5 km/h (1 Bft) SO 144 ° 0 min 0,000 mm 0,0 UV-I 0 W/m² 5,0 °C 11,8 °C 3,2 km/h (1 Bft)
05.11.2018 19:34 11,8 °C 64 % 1008,1 hPa 0,0 mm 0,4 km/h (0 Bft) SO 144 ° 0 min 0,000 mm 0,0 UV-I 0 W/m² 5,2 °C 11,8 °C 1,6 km/h (1 Bft)
05.11.2018 19:35 11,8 °C 64 % 1008,1 hPa 0,0 mm 0,0 km/h (0 Bft) SO 144 ° 0 min 0,000 mm 0,0 UV-I 0 W/m² 5,2 °C 11,8 °C 0,0 km/h (0 Bft)
05.11.2018 19:36 11,8 °C 64 % 1008,1 hPa 0,0 mm 0,0 km/h (0 Bft) SO 144 ° 0 min 0,000 mm 0,0 UV-I 0 W/m² 5,2 °C 11,8 °C 0,0 km/h (0 Bft)
05.11.2018 19:37 11,6 °C 65 % 1008,0 hPa 0,0 mm 4,8 km/h (1 Bft) S-SO 157 ° 0 min 0,000 mm 0,0 UV-I 0 W/m² 5,2 °C 11,6 °C 6,4 km/h (2 Bft)
05.11.2018 19:38 11,3 °C 66 % 1008,1 hPa 0,0 mm 4,8 km/h (1 Bft) S-SO 157 ° 0 min 0,000 mm 0,0 UV-I 0 W/m² 5,2 °C 11,3 °C 6,4 km/h (2 Bft)
05.11.2018 19:39 11,1 °C 66 % 1008,0 hPa 0,0 mm 3,2 km/h (1 Bft) S-SO 157 ° 0 min 0,000 mm 0,0 UV-I 0 W/m² 5,0 °C 11,1 °C 6,4 km/h (2 Bft)
05.11.2018 19:40 11,0 °C 67 % 1008,0 hPa 0,0 mm 3,2 km/h (1 Bft) S 180 ° 0 min 0,000 mm 0,0 UV-I 0 W/m² 5,1 °C 11,0 °C 4,8 km/h (1 Bft)
05.11.2018 19:41 10,9 °C 67 % 1008,0 hPa 0,0 mm 3,2 km/h (1 Bft) S 180 ° 0 min 0,000 mm 0,0 UV-I 0 W/m² 5,0 °C 10,9 °C 4,8 km/h (1 Bft)
05.11.2018 19:42 10,9 °C 67 % 1008,0 hPa 0,0 mm 0,0 km/h (0 Bft) S 180 ° 0 min 0,000 mm 0,0 UV-I 0 W/m² 5,0 °C 10,9 °C 1,6 km/h (1 Bft)
05.11.2018 19:43 10,9 °C 68 % 1007,9 hPa 0,0 mm 3,2 km/h (1 Bft) S 180 ° 0 min 0,000 mm 0,0 UV-I 0 W/m² 5,2 °C 10,9 °C 3,2 km/h (1 Bft)
05.11.2018 19:45 11,0 °C 67 % 1008,0 hPa 0,0 mm 1,1 km/h (1 Bft) S 180 ° 0 min 0,000 mm 0,0 UV-I 0 W/m² 5,1 °C 11,0 °C 1,6 km/h (1 Bft)
05.11.2018 19:47 11,1 °C 67 % 1008,0 hPa 0,0 mm 0,9 km/h (0 Bft) S 180 ° 0 min 0,000 mm 0,0 UV-I 0 W/m² 5,2 °C 11,1 °C 1,6 km/h (1 Bft)
05.11.2018 19:48 11,1 °C 67 % 1008,0 hPa 0,0 mm 2,1 km/h (1 Bft) S 180 ° 0 min 0,000 mm 0,0 UV-I 0 W/m² 5,2 °C 11,1 °C 3,2 km/h (1 Bft)
05.11.2018 19:49 11,1 °C 66 % 1008,0 hPa 0,0 mm 1,9 km/h (1 Bft) S 180 ° 0 min 0,000 mm 0,0 UV-I 0 W/m² 5,0 °C 11,1 °C 3,2 km/h (1 Bft)
05.11.2018 19:50 11,2 °C 67 % 1008,0 hPa 0,0 mm 2,9 km/h (1 Bft) S 180 ° 0 min 0,000 mm 0,0 UV-I 0 W/m² 5,3 °C 11,2 °C 4,8 km/h (1 Bft)
05.11.2018 19:51 11,2 °C 66 % 1008,0 hPa 0,0 mm 0,4 km/h (0 Bft) S 180 ° 0 min 0,000 mm 0,0 UV-I 0 W/m² 5,1 °C 11,2 °C 1,6 km/h (1 Bft)
05.11.2018 19:52 11,3 °C 66 % 1008,0 hPa 0,0 mm 0,1 km/h (0 Bft) S 180 ° 0 min 0,000 mm 0,0 UV-I 0 W/m² 5,2 °C 11,3 °C 1,6 km/h (1 Bft)
05.11.2018 19:53 11,3 °C 65 % 1008,0 hPa 0,0 mm 0,0 km/h (0 Bft) S 180 ° 0 min 0,000 mm 0,0 UV-I 0 W/m² 5,0 °C 11,3 °C 0,0 km/h (0 Bft)
05.11.2018 19:54 11,3 °C 65 % 1008,0 hPa 0,0 mm 0,0 km/h (0 Bft) S 180 ° 0 min 0,000 mm 0,0 UV-I 0 W/m² 5,0 °C 11,3 °C 0,0 km/h (0 Bft)
05.11.2018 19:55 11,3 °C 66 % 1008,0 hPa 0,0 mm 1,2 km/h (1 Bft) S 180 ° 0 min 0,000 mm 0,0 UV-I 0 W/m² 5,2 °C 11,3 °C 3,2 km/h (1 Bft)
05.11.2018 19:56 11,2 °C 65 % 1007,9 hPa 0,0 mm 0,6 km/h (0 Bft) S 180 ° 0 min 0,000 mm 0,0 UV-I 0 W/m² 4,9 °C 11,2 °C 3,2 km/h (1 Bft)
05.11.2018 19:57 11,2 °C 65 % 1007,9 hPa 0,0 mm 0,6 km/h (0 Bft) S 180 ° 0 min 0,000 mm 0,0 UV-I 0 W/m² 4,9 °C 11,2 °C 1,6 km/h (1 Bft)
05.11.2018 19:58 11,2 °C 65 % 1007,9 hPa 0,0 mm 0,1 km/h (0 Bft) S 180 ° 0 min 0,000 mm 0,0 UV-I 0 W/m² 4,9 °C 11,2 °C 1,6 km/h (1 Bft)
05.11.2018 19:59 11,3 °C 65 % 1007,9 hPa 0,0 mm 0,0 km/h (0 Bft) S 180 ° 0 min 0,000 mm 0,0 UV-I 0 W/m² 5,0 °C 11,3 °C 0,0 km/h (0 Bft)
05.11.2018 20:00 11,1 °C 65 % 1007,9 hPa 0,0 mm 0,5 km/h (0 Bft) S 180 ° 0 min 0,000 mm 0,0 UV-I 0 W/m² 4,8 °C 11,1 °C 1,6 km/h (1 Bft)
05.11.2018 20:01 11,0 °C 67 % 1008,0 hPa 0,0 mm 0,1 km/h (0 Bft) S 180 ° 0 min 0,025 mm 0,0 UV-I 0 W/m² 5,1 °C 11,0 °C 1,6 km/h (1 Bft)
05.11.2018 20:02 10,9 °C 66 % 1007,9 hPa 0,0 mm 0,0 km/h (0 Bft) S 180 ° 0 min 0,000 mm 0,0 UV-I 0 W/m² 4,8 °C 10,9 °C 0,0 km/h (0 Bft)
05.11.2018 20:03 10,9 °C 67 % 1007,9 hPa 0,0 mm 0,0 km/h (0 Bft) S 180 ° 0 min 0,000 mm 0,0 UV-I 0 W/m² 5,0 °C 10,9 °C 0,0 km/h (0 Bft)
05.11.2018 20:04 10,9 °C 66 % 1008,0 hPa 0,0 mm 0,1 km/h (0 Bft) S 180 ° 0 min 0,000 mm 0,0 UV-I 0 W/m² 4,8 °C 10,9 °C 1,6 km/h (1 Bft)
05.11.2018 20:05 11,1 °C 66 % 1008,0 hPa 0,0 mm 0,0 km/h (0 Bft) S 180 ° 0 min 0,000 mm 0,0 UV-I 0 W/m² 5,0 °C 11,1 °C 0,0 km/h (0 Bft)
05.11.2018 20:06 11,3 °C 64 % 1008,0 hPa 0,0 mm 0,0 km/h (0 Bft) S 180 ° 0 min 0,000 mm 0,0 UV-I 0 W/m² 4,7 °C 11,3 °C 0,0 km/h (0 Bft)
05.11.2018 20:07 11,4 °C 64 % 1008,0 hPa 0,0 mm 0,0 km/h (0 Bft) S 180 ° 0 min 0,000 mm 0,0 UV-I 0 W/m² 4,8 °C 11,4 °C 0,0 km/h (0 Bft)
05.11.2018 20:08 11,6 °C 63 % 1008,0 hPa 0,0 mm 0,0 km/h (0 Bft) S 180 ° 0 min 0,000 mm 0,0 UV-I 0 W/m² 4,8 °C 11,6 °C 0,0 km/h (0 Bft)
05.11.2018 20:09 11,8 °C 63 % 1008,0 hPa 0,0 mm 0,0 km/h (0 Bft) S 180 ° 0 min 0,000 mm 0,0 UV-I 0 W/m² 5,0 °C 11,8 °C 0,0 km/h (0 Bft)
05.11.2018 20:10 11,9 °C 63 % 1008,0 hPa 0,0 mm 0,0 km/h (0 Bft) S 180 ° 0 min 0,000 mm 0,0 UV-I 0 W/m² 5,1 °C 11,9 °C 0,0 km/h (0 Bft)
05.11.2018 20:11 12,1 °C 62 % 1008,0 hPa 0,0 mm 1,5 km/h (1 Bft) S 180 ° 0 min 0,000 mm 0,0 UV-I 0 W/m² 5,0 °C 12,1 °C 4,8 km/h (1 Bft)
05.11.2018 20:12 12,0 °C 63 % 1008,0 hPa 0,0 mm 2,5 km/h (1 Bft) S 180 ° 0 min 0,000 mm 0,0 UV-I 0 W/m² 5,2 °C 12,0 °C 3,2 km/h (1 Bft)
05.11.2018 20:13 12,0 °C 62 % 1008,0 hPa 0,0 mm 1,1 km/h (1 Bft) S 180 ° 0 min 0,000 mm 0,0 UV-I 0 W/m² 4,9 °C 12,0 °C 3,2 km/h (1 Bft)
05.11.2018 20:14 12,0 °C 62 % 1008,0 hPa 0,0 mm 1,3 km/h (1 Bft) S 180 ° 0 min 0,000 mm 0,0 UV-I 0 W/m² 4,9 °C 12,0 °C 3,2 km/h (1 Bft)
05.11.2018 20:15 11,8 °C 62 % 1008,0 hPa 0,0 mm 2,5 km/h (1 Bft) S 180 ° 0 min 0,000 mm 0,0 UV-I 0 W/m² 4,8 °C 11,8 °C 4,8 km/h (1 Bft)
05.11.2018 20:16 11,6 °C 63 % 1008,0 hPa 0,0 mm 2,9 km/h (1 Bft) S 180 ° 0 min 0,000 mm 0,0 UV-I 0 W/m² 4,8 °C 11,6 °C 4,8 km/h (1 Bft)
05.11.2018 20:17 11,4 °C 65 % 1008,0 hPa 0,0 mm 2,0 km/h (1 Bft) S 180 ° 0 min 0,000 mm 0,0 UV-I 0 W/m² 5,1 °C 11,4 °C 4,8 km/h (1 Bft)
05.11.2018 20:18 11,5 °C 62 % 1008,0 hPa 0,0 mm 2,7 km/h (1 Bft) S 180 ° 0 min 0,000 mm 0,0 UV-I 0 W/m² 4,5 °C 11,5 °C 3,2 km/h (1 Bft)
05.11.2018 20:19 11,6 °C 63 % 1008,0 hPa 0,0 mm 1,9 km/h (1 Bft) S 180 ° 0 min 0,000 mm 0,0 UV-I 0 W/m² 4,8 °C 11,6 °C 3,2 km/h (1 Bft)
05.11.2018 20:20 11,7 °C 62 % 1008,0 hPa 0,0 mm 1,9 km/h (1 Bft) S 180 ° 0 min 0,000 mm 0,0 UV-I 0 W/m² 4,7 °C 11,7 °C 3,2 km/h (1 Bft)
05.11.2018 20:21 11,7 °C 62 % 1008,0 hPa 0,0 mm 2,5 km/h (1 Bft) S 179 ° 0 min 0,000 mm 0,0 UV-I 0 W/m² 4,7 °C 11,7 °C 4,8 km/h (1 Bft)
05.11.2018 20:22 11,7 °C 62 % 1008,0 hPa 0,0 mm 2,9 km/h (1 Bft) S 179 ° 0 min 0,000 mm 0,0 UV-I 0 W/m² 4,7 °C 11,7 °C 3,2 km/h (1 Bft)
05.11.2018 20:23 11,7 °C 62 % 1008,0 hPa 0,0 mm 2,9 km/h (1 Bft) S 179 ° 0 min 0,000 mm 0,0 UV-I 0 W/m² 4,7 °C 11,7 °C 4,8 km/h (1 Bft)
05.11.2018 20:24 11,4 °C 64 % 1007,9 hPa 0,0 mm 3,2 km/h (1 Bft) S 179 ° 0 min 0,000 mm 0,0 UV-I 0 W/m² 4,8 °C 11,4 °C 4,8 km/h (1 Bft)
05.11.2018 20:25 11,3 °C 65 % 1008,0 hPa 0,0 mm 2,7 km/h (1 Bft) S 179 ° 0 min 0,000 mm 0,0 UV-I 0 W/m² 5,0 °C 11,3 °C 4,8 km/h (1 Bft)
05.11.2018 20:26 11,3 °C 63 % 1008,0 hPa 0,0 mm 3,6 km/h (1 Bft) S-SO 158 ° 0 min 0,000 mm 0,0 UV-I 0 W/m² 4,5 °C 11,3 °C 6,4 km/h (2 Bft)
05.11.2018 20:27 11,6 °C 63 % 1008,0 hPa 0,0 mm 3,8 km/h (1 Bft) SO 136 ° 0 min 0,000 mm 0,0 UV-I 0 W/m² 4,8 °C 11,6 °C 4,8 km/h (1 Bft)
05.11.2018 20:28 11,7 °C 62 % 1008,0 hPa 0,0 mm 1,3 km/h (1 Bft) SO 136 ° 0 min 0,000 mm 0,0 UV-I 0 W/m² 4,7 °C 11,7 °C 3,2 km/h (1 Bft)
05.11.2018 20:29 11,8 °C 62 % 1008,0 hPa 0,0 mm 4,3 km/h (1 Bft) SO 127 ° 0 min 0,000 mm 0,0 UV-I 0 W/m² 4,8 °C 11,8 °C 4,8 km/h (1 Bft)
05.11.2018 20:30 11,9 °C 61 % 1008,0 hPa 0,0 mm 3,8 km/h (1 Bft) S-SO 149 ° 0 min 0,000 mm 0,0 UV-I 0 W/m² 4,6 °C 11,9 °C 6,4 km/h (2 Bft)
05.11.2018 20:31 12,1 °C 60 % 1008,1 hPa 0,0 mm 3,2 km/h (1 Bft) S-SO 147 ° 0 min 0,000 mm 0,0 UV-I 0 W/m² 4,6 °C 12,1 °C 6,4 km/h (2 Bft)
05.11.2018 20:32 12,2 °C 60 % 1008,1 hPa 0,0 mm 3,0 km/h (1 Bft) SO 146 ° 0 min 0,000 mm 0,0 UV-I 0 W/m² 4,7 °C 12,2 °C 4,8 km/h (1 Bft)
05.11.2018 20:33 12,3 °C 59 % 1008,0 hPa 0,0 mm 1,0 km/h (0 Bft) S-SO 147 ° 0 min 0,000 mm 0,0 UV-I 0 W/m² 4,5 °C 12,3 °C 3,2 km/h (1 Bft)
05.11.2018 20:34 12,4 °C 59 % 1008,1 hPa 0,0 mm 0,6 km/h (0 Bft) S-SO 147 ° 0 min 0,000 mm 0,0 UV-I 0 W/m² 4,6 °C 12,4 °C 1,6 km/h (1 Bft)
05.11.2018 20:35 12,5 °C 59 % 1008,2 hPa 0,0 mm 1,9 km/h (1 Bft) S-SO 147 ° 0 min 0,000 mm 0,0 UV-I 0 W/m² 4,7 °C 12,5 °C 3,2 km/h (1 Bft)
05.11.2018 20:36 12,4 °C 58 % 1008,1 hPa 0,0 mm 2,0 km/h (1 Bft) S-SO 147 ° 0 min 0,000 mm 0,0 UV-I 0 W/m² 4,4 °C 12,4 °C 3,2 km/h (1 Bft)
05.11.2018 20:37 12,6 °C 57 % 1008,0 hPa 0,0 mm 2,1 km/h (1 Bft) S-SO 147 ° 0 min 0,000 mm 0,0 UV-I 0 W/m² 4,3 °C 12,6 °C 3,2 km/h (1 Bft)
05.11.2018 20:38 12,7 °C 57 % 1008,1 hPa 0,0 mm 1,9 km/h (1 Bft) S-SO 147 ° 0 min 0,000 mm 0,0 UV-I 0 W/m² 4,4 °C 12,7 °C 3,2 km/h (1 Bft)
05.11.2018 20:39 12,8 °C 57 % 1008,0 hPa 0,0 mm 2,6 km/h (1 Bft) S-SO 166 ° 0 min 0,000 mm 0,0 UV-I 0 W/m² 4,5 °C 12,8 °C 8,0 km/h (2 Bft)
05.11.2018 20:40 12,8 °C 57 % 1008,1 hPa 0,0 mm 2,3 km/h (1 Bft) S-SO 166 ° 0 min 0,000 mm 0,0 UV-I 0 W/m² 4,5 °C 12,8 °C 6,4 km/h (2 Bft)
05.11.2018 20:41 12,9 °C 56 % 1008,1 hPa 0,0 mm 3,9 km/h (1 Bft) S-SO 166 ° 0 min 0,000 mm 0,0 UV-I 0 W/m² 4,3 °C 12,9 °C 4,8 km/h (1 Bft)
05.11.2018 20:42 12,9 °C 57 % 1008,1 hPa 0,0 mm 1,3 km/h (1 Bft) S-SO 166 ° 0 min 0,000 mm 0,0 UV-I 0 W/m² 4,6 °C 12,9 °C 3,2 km/h (1 Bft)
05.11.2018 20:43 12,9 °C 56 % 1008,2 hPa 0,0 mm 2,5 km/h (1 Bft) S-SO 166 ° 0 min 0,000 mm 0,0 UV-I 0 W/m² 4,3 °C 12,9 °C 4,8 km/h (1 Bft)
05.11.2018 20:44 12,9 °C 57 % 1008,2 hPa 0,0 mm 2,4 km/h (1 Bft) O-SO 104 ° 0 min 0,000 mm 0,0 UV-I 0 W/m² 4,6 °C 12,9 °C 6,4 km/h (2 Bft)
05.11.2018 20:45 12,7 °C 58 % 1008,2 hPa 0,0 mm 3,0 km/h (1 Bft) O-SO 103 ° 0 min 0,000 mm 0,0 UV-I 0 W/m² 4,7 °C 12,7 °C 4,8 km/h (1 Bft)
05.11.2018 20:46 12,8 °C 57 % 1008,2 hPa 0,0 mm 3,5 km/h (1 Bft) O-SO 107 ° 0 min 0,000 mm 0,0 UV-I 0 W/m² 4,5 °C 12,8 °C 4,8 km/h (1 Bft)
05.11.2018 20:47 12,8 °C 56 % 1008,2 hPa 0,0 mm 2,2 km/h (1 Bft) O-SO 107 ° 0 min 0,000 mm 0,0 UV-I 0 W/m² 4,2 °C 12,8 °C 3,2 km/h (1 Bft)
05.11.2018 20:48 12,8 °C 56 % 1008,2 hPa 0,0 mm 3,0 km/h (1 Bft) O-SO 111 ° 0 min 0,000 mm 0,0 UV-I 0 W/m² 4,2 °C 12,8 °C 4,8 km/h (1 Bft)
05.11.2018 20:49 12,8 °C 56 % 1008,2 hPa 0,0 mm 4,3 km/h (1 Bft) S 179 ° 0 min 0,000 mm 0,0 UV-I 0 W/m² 4,2 °C 12,8 °C 8,0 km/h (2 Bft)
05.11.2018 20:50 12,8 °C 56 % 1008,2 hPa 0,0 mm 4,9 km/h (1 Bft) S-SO 165 ° 0 min 0,000 mm 0,0 UV-I 0 W/m² 4,2 °C 12,8 °C 8,0 km/h (2 Bft)
05.11.2018 20:51 13,1 °C 52 % 1008,2 hPa 0,0 mm 5,6 km/h (1 Bft) S 177 ° 0 min 0,000 mm 0,0 UV-I 0 W/m² 3,5 °C 13,1 °C 8,0 km/h (2 Bft)
05.11.2018 20:52 13,1 °C 56 % 1008,2 hPa 0,0 mm 5,5 km/h (1 Bft) S-SO 167 ° 0 min 0,000 mm 0,0 UV-I 0 W/m² 4,5 °C 13,1 °C 8,0 km/h (2 Bft)
05.11.2018 20:53 13,1 °C 54 % 1008,1 hPa 0,0 mm 5,7 km/h (1 Bft) S-SO 155 ° 0 min 0,000 mm 0,0 UV-I 0 W/m² 4,0 °C 13,1 °C 8,0 km/h (2 Bft)
05.11.2018 20:54 13,2 °C 54 % 1008,1 hPa 0,0 mm 5,0 km/h (1 Bft) S-SO 155 ° 0 min 0,000 mm 0,0 UV-I 0 W/m² 4,1 °C 13,2 °C 6,4 km/h (2 Bft)
05.11.2018 20:55 13,1 °C 54 % 1008,1 hPa 0,0 mm 3,8 km/h (1 Bft) S-SO 155 ° 0 min 0,000 mm 0,0 UV-I 0 W/m² 4,0 °C 13,1 °C 4,8 km/h (1 Bft)
05.11.2018 20:56 13,1 °C 54 % 1008,1 hPa 0,0 mm 2,9 km/h (1 Bft) S-SO 155 ° 0 min 0,000 mm 0,0 UV-I 0 W/m² 4,0 °C 13,1 °C 4,8 km/h (1 Bft)
05.11.2018 20:57 13,1 °C 55 % 1008,1 hPa 0,0 mm 5,5 km/h (1 Bft) S-SO 166 ° 0 min 0,000 mm 0,0 UV-I 0 W/m² 4,3 °C 13,1 °C 8,0 km/h (2 Bft)
05.11.2018 20:58 13,1 °C 55 % 1008,2 hPa 0,0 mm 4,3 km/h (1 Bft) S-SO 165 ° 0 min 0,000 mm 0,0 UV-I 0 W/m² 4,3 °C 13,1 °C 6,4 km/h (2 Bft)
05.11.2018 20:59 13,1 °C 54 % 1008,1 hPa 0,0 mm 5,0 km/h (1 Bft) S-SO 164 ° 0 min 0,000 mm 0,0 UV-I 0 W/m² 4,0 °C 13,1 °C 8,0 km/h (2 Bft)
05.11.2018 21:00 13,1 °C 54 % 1008,1 hPa 0,0 mm 5,4 km/h (1 Bft) S-SO 165 ° 0 min 0,026 mm 0,0 UV-I 0 W/m² 4,0 °C 13,1 °C 8,0 km/h (2 Bft)
05.11.2018 21:01 13,1 °C 54 % 1008,1 hPa 0,0 mm 6,4 km/h (2 Bft) S-SO 165 ° 0 min 0,000 mm 0,0 UV-I 0 W/m² 4,0 °C 13,1 °C 6,4 km/h (2 Bft)
05.11.2018 21:02 13,0 °C 54 % 1008,1 hPa 0,0 mm 4,8 km/h (1 Bft) S 180 ° 0 min 0,000 mm 0,0 UV-I 0 W/m² 3,9 °C 13,0 °C 4,8 km/h (1 Bft)
05.11.2018 21:03 12,8 °C 56 % 1008,1 hPa 0,0 mm 3,2 km/h (1 Bft) S-SW 202 ° 0 min 0,000 mm 0,0 UV-I 0 W/m² 4,2 °C 12,8 °C 4,8 km/h (1 Bft)
05.11.2018 21:04 12,8 °C 55 % 1008,0 hPa 0,0 mm 6,4 km/h (2 Bft) S 180 ° 0 min 0,000 mm 0,0 UV-I 0 W/m² 4,0 °C 12,8 °C 8,0 km/h (2 Bft)
05.11.2018 21:05 12,8 °C 56 % 1008,1 hPa 0,0 mm 6,4 km/h (2 Bft) S-SO 157 ° 0 min 0,000 mm 0,0 UV-I 0 W/m² 4,2 °C 12,8 °C 8,0 km/h (2 Bft)
05.11.2018 21:06 12,7 °C 56 % 1008,1 hPa 0,0 mm 4,8 km/h (1 Bft) S-SW 202 ° 0 min 0,000 mm 0,0 UV-I 0 W/m² 4,2 °C 12,7 °C 6,4 km/h (2 Bft)
05.11.2018 21:07 12,6 °C 56 % 1008,1 hPa 0,0 mm 4,8 km/h (1 Bft) S-SW 202 ° 0 min 0,000 mm 0,0 UV-I 0 W/m² 4,1 °C 12,6 °C 8,0 km/h (2 Bft)
05.11.2018 21:08 12,4 °C 58 % 1008,1 hPa 0,0 mm 6,4 km/h (2 Bft) S-SW 202 ° 0 min 0,000 mm 0,0 UV-I 0 W/m² 4,4 °C 12,4 °C 9,7 km/h (2 Bft)
05.11.2018 21:10 12,1 °C 58 % 1008,2 hPa 0,0 mm 5,6 km/h (1 Bft) S-SO 168 ° 0 min 0,000 mm 0,0 UV-I 0 W/m² 4,1 °C 12,1 °C 8,0 km/h (2 Bft)
05.11.2018 21:12 12,1 °C 58 % 1008,2 hPa 0,0 mm 3,8 km/h (1 Bft) S 170 ° 0 min 0,000 mm 0,0 UV-I 0 W/m² 4,1 °C 12,1 °C 8,0 km/h (2 Bft)
05.11.2018 21:13 11,9 °C 59 % 1008,2 hPa 0,0 mm 0,2 km/h (0 Bft) S 170 ° 0 min 0,000 mm 0,0 UV-I 0 W/m² 4,1 °C 11,9 °C 1,6 km/h (1 Bft)
05.11.2018 21:14 11,9 °C 58 % 1008,2 hPa 0,0 mm 1,0 km/h (0 Bft) S 170 ° 0 min 0,000 mm 0,0 UV-I 0 W/m² 3,9 °C 11,9 °C 3,2 km/h (1 Bft)
05.11.2018 21:15 11,9 °C 58 % 1008,3 hPa 0,0 mm 2,7 km/h (1 Bft) SO 144 ° 0 min 0,000 mm 0,0 UV-I 0 W/m² 3,9 °C 11,9 °C 4,8 km/h (1 Bft)
05.11.2018 21:17 12,0 °C 58 % 1008,2 hPa 0,0 mm 2,2 km/h (1 Bft) SO 144 ° 0 min 0,000 mm 0,0 UV-I 0 W/m² 4,0 °C 12,0 °C 4,8 km/h (1 Bft)
05.11.2018 21:18 11,9 °C 58 % 1008,2 hPa 0,0 mm 1,7 km/h (1 Bft) SO 145 ° 0 min 0,000 mm 0,0 UV-I 0 W/m² 3,9 °C 11,9 °C 3,2 km/h (1 Bft)
05.11.2018 21:19 11,9 °C 58 % 1008,2 hPa 0,0 mm 2,4 km/h (1 Bft) SW 216 ° 0 min 0,000 mm 0,0 UV-I 0 W/m² 3,9 °C 11,9 °C 4,8 km/h (1 Bft)
05.11.2018 21:20 11,8 °C 58 % 1008,2 hPa 0,0 mm 2,9 km/h (1 Bft) SW 215 ° 0 min 0,000 mm 0,0 UV-I 0 W/m² 3,8 °C 11,8 °C 4,8 km/h (1 Bft)
05.11.2018 21:21 11,8 °C 58 % 1008,2 hPa 0,0 mm 1,0 km/h (0 Bft) SW 215 ° 0 min 0,000 mm 0,0 UV-I 0 W/m² 3,8 °C 11,8 °C 3,2 km/h (1 Bft)
05.11.2018 21:22 11,9 °C 58 % 1008,3 hPa 0,0 mm 1,5 km/h (1 Bft) SW 215 ° 0 min 0,000 mm 0,0 UV-I 0 W/m² 3,9 °C 11,9 °C 3,2 km/h (1 Bft)
05.11.2018 21:23 12,0 °C 58 % 1008,3 hPa 0,0 mm 3,4 km/h (1 Bft) S 189 ° 0 min 0,000 mm 0,0 UV-I 0 W/m² 4,0 °C 12,0 °C 4,8 km/h (1 Bft)
05.11.2018 21:24 12,0 °C 58 % 1008,3 hPa 0,0 mm 2,7 km/h (1 Bft) S 189 ° 0 min 0,000 mm 0,0 UV-I 0 W/m² 4,0 °C 12,0 °C 4,8 km/h (1 Bft)
05.11.2018 21:25 12,0 °C 58 % 1008,3 hPa 0,0 mm 4,0 km/h (1 Bft) S 189 ° 0 min 0,000 mm 0,0 UV-I 0 W/m² 4,0 °C 12,0 °C 4,8 km/h (1 Bft)
05.11.2018 21:26 11,9 °C 59 % 1008,3 hPa 0,0 mm 1,8 km/h (1 Bft) S 189 ° 0 min 0,000 mm 0,0 UV-I 0 W/m² 4,1 °C 11,9 °C 4,8 km/h (1 Bft)
05.11.2018 21:27 11,7 °C 59 % 1008,3 hPa 0,0 mm 0,2 km/h (0 Bft) S 189 ° 0 min 0,000 mm 0,0 UV-I 0 W/m² 4,0 °C 11,7 °C 1,6 km/h (1 Bft)
05.11.2018 21:28 11,6 °C 61 % 1008,2 hPa 0,0 mm 1,1 km/h (1 Bft) S 189 ° 0 min 0,000 mm 0,0 UV-I 0 W/m² 4,3 °C 11,6 °C 3,2 km/h (1 Bft)
05.11.2018 21:29 11,3 °C 60 % 1008,2 hPa 0,0 mm 1,1 km/h (1 Bft) S 189 ° 0 min 0,000 mm 0,0 UV-I 0 W/m² 3,8 °C 11,3 °C 3,2 km/h (1 Bft)
05.11.2018 21:30 11,3 °C 60 % 1008,3 hPa 0,0 mm 1,0 km/h (0 Bft) S 189 ° 0 min 0,000 mm 0,0 UV-I 0 W/m² 3,8 °C 11,3 °C 3,2 km/h (1 Bft)
05.11.2018 21:31 11,4 °C 59 % 1008,3 hPa 0,0 mm 2,3 km/h (1 Bft) S 189 ° 0 min 0,000 mm 0,0 UV-I 0 W/m² 3,7 °C 11,4 °C 4,8 km/h (1 Bft)
05.11.2018 21:32 11,4 °C 60 % 1008,3 hPa 0,0 mm 2,9 km/h (1 Bft) S 189 ° 0 min 0,000 mm 0,0 UV-I 0 W/m² 3,9 °C 11,4 °C 6,4 km/h (2 Bft)
05.11.2018 21:33 11,4 °C 60 % 1008,3 hPa 0,0 mm 4,3 km/h (1 Bft) S-SW 196 ° 0 min 0,000 mm 0,0 UV-I 0 W/m² 3,9 °C 11,4 °C 8,0 km/h (2 Bft)
05.11.2018 21:34 11,3 °C 61 % 1008,3 hPa 0,0 mm 3,8 km/h (1 Bft) S-SW 197 ° 0 min 0,000 mm 0,0 UV-I 0 W/m² 4,1 °C 11,3 °C 4,8 km/h (1 Bft)
05.11.2018 21:35 11,2 °C 62 % 1008,3 hPa 0,0 mm 3,5 km/h (1 Bft) S 174 ° 0 min 0,000 mm 0,0 UV-I 0 W/m² 4,2 °C 11,2 °C 4,8 km/h (1 Bft)
05.11.2018 21:36 11,2 °C 61 % 1008,3 hPa 0,0 mm 2,9 km/h (1 Bft) S 174 ° 0 min 0,000 mm 0,0 UV-I 0 W/m² 4,0 °C 11,2 °C 4,8 km/h (1 Bft)
05.11.2018 21:37 11,2 °C 60 % 1008,3 hPa 0,0 mm 1,3 km/h (1 Bft) S 174 ° 0 min 0,000 mm 0,0 UV-I 0 W/m² 3,7 °C 11,2 °C 4,8 km/h (1 Bft)
05.11.2018 21:38 11,4 °C 59 % 1008,3 hPa 0,0 mm 2,7 km/h (1 Bft) S 174 ° 0 min 0,000 mm 0,0 UV-I 0 W/m² 3,7 °C 11,4 °C 4,8 km/h (1 Bft)
05.11.2018 21:39 11,6 °C 58 % 1008,3 hPa 0,0 mm 1,8 km/h (1 Bft) S 188 ° 0 min 0,000 mm 0,0 UV-I 0 W/m² 3,6 °C 11,6 °C 6,4 km/h (2 Bft)
05.11.2018 21:40 11,8 °C 57 % 1008,4 hPa 0,0 mm 3,8 km/h (1 Bft) S 185 ° 0 min 0,000 mm 0,0 UV-I 0 W/m² 3,6 °C 11,8 °C 6,4 km/h (2 Bft)
05.11.2018 21:41 11,9 °C 57 % 1008,4 hPa 0,0 mm 3,6 km/h (1 Bft) S 186 ° 0 min 0,000 mm 0,0 UV-I 0 W/m² 3,7 °C 11,9 °C 6,4 km/h (2 Bft)
05.11.2018 21:42 11,9 °C 58 % 1008,4 hPa 0,0 mm 3,2 km/h (1 Bft) S 186 ° 0 min 0,000 mm 0,0 UV-I 0 W/m² 3,9 °C 11,9 °C 4,8 km/h (1 Bft)
05.11.2018 21:43 11,9 °C 58 % 1008,3 hPa 0,0 mm 0,7 km/h (0 Bft) S 186 ° 0 min 0,000 mm 0,0 UV-I 0 W/m² 3,9 °C 11,9 °C 3,2 km/h (1 Bft)
05.11.2018 21:44 11,9 °C 57 % 1008,3 hPa 0,0 mm 0,8 km/h (0 Bft) S 186 ° 0 min 0,000 mm 0,0 UV-I 0 W/m² 3,7 °C 11,9 °C 3,2 km/h (1 Bft)
05.11.2018 21:45 11,9 °C 57 % 1008,3 hPa 0,0 mm 0,3 km/h (0 Bft) S 186 ° 0 min 0,000 mm 0,0 UV-I 0 W/m² 3,7 °C 11,9 °C 1,6 km/h (1 Bft)
05.11.2018 21:46 11,9 °C 57 % 1008,3 hPa 0,0 mm 1,1 km/h (1 Bft) S 186 ° 0 min 0,000 mm 0,0 UV-I 0 W/m² 3,7 °C 11,9 °C 3,2 km/h (1 Bft)
05.11.2018 21:47 11,9 °C 56 % 1008,3 hPa 0,0 mm 0,0 km/h (0 Bft) S 186 ° 0 min 0,000 mm 0,0 UV-I 0 W/m² 3,4 °C 11,9 °C 0,0 km/h (0 Bft)
05.11.2018 21:48 11,9 °C 57 % 1008,3 hPa 0,0 mm 0,6 km/h (0 Bft) S 186 ° 0 min 0,000 mm 0,0 UV-I 0 W/m² 3,7 °C 11,9 °C 3,2 km/h (1 Bft)
05.11.2018 21:49 11,7 °C 58 % 1008,3 hPa 0,0 mm 0,5 km/h (0 Bft) S-SW 197 ° 0 min 0,000 mm 0,0 UV-I 0 W/m² 3,7 °C 11,7 °C 3,2 km/h (1 Bft)
05.11.2018 21:50 11,6 °C 58 % 1008,3 hPa 0,0 mm 0,0 km/h (0 Bft) S-SW 197 ° 0 min 0,000 mm 0,0 UV-I 0 W/m² 3,6 °C 11,6 °C 0,0 km/h (0 Bft)
05.11.2018 21:51 11,6 °C 59 % 1008,3 hPa 0,0 mm 0,0 km/h (0 Bft) S-SW 197 ° 0 min 0,000 mm 0,0 UV-I 0 W/m² 3,9 °C 11,6 °C 0,0 km/h (0 Bft)
05.11.2018 21:52 11,6 °C 58 % 1008,3 hPa 0,0 mm 1,0 km/h (0 Bft) S-SW 197 ° 0 min 0,000 mm 0,0 UV-I 0 W/m² 3,6 °C 11,6 °C 3,2 km/h (1 Bft)
05.11.2018 21:53 11,6 °C 57 % 1008,3 hPa 0,0 mm 0,2 km/h (0 Bft) S-SW 197 ° 0 min 0,000 mm 0,0 UV-I 0 W/m² 3,4 °C 11,6 °C 3,2 km/h (1 Bft)
05.11.2018 21:54 11,6 °C 56 % 1008,3 hPa 0,0 mm 2,5 km/h (1 Bft) S-SW 197 ° 0 min 0,000 mm 0,0 UV-I 0 W/m² 3,1 °C 11,6 °C 4,8 km/h (1 Bft)
05.11.2018 21:55 11,7 °C 57 % 1008,2 hPa 0,0 mm 0,2 km/h (0 Bft) S-SW 197 ° 0 min 0,000 mm 0,0 UV-I 0 W/m² 3,5 °C 11,7 °C 1,6 km/h (1 Bft)
05.11.2018 21:56 11,9 °C 56 % 1008,2 hPa 0,0 mm 0,3 km/h (0 Bft) S-SW 197 ° 0 min 0,000 mm 0,0 UV-I 0 W/m² 3,4 °C 11,9 °C 1,6 km/h (1 Bft)
05.11.2018 21:57 12,1 °C 55 % 1008,2 hPa 0,0 mm 0,1 km/h (0 Bft) S-SW 197 ° 0 min 0,000 mm 0,0 UV-I 0 W/m² 3,3 °C 12,1 °C 1,6 km/h (1 Bft)
05.11.2018 21:58 12,2 °C 55 % 1008,2 hPa 0,0 mm 0,2 km/h (0 Bft) S-SW 197 ° 0 min 0,000 mm 0,0 UV-I 0 W/m² 3,4 °C 12,2 °C 3,2 km/h (1 Bft)
05.11.2018 21:59 12,3 °C 54 % 1008,2 hPa 0,0 mm 1,3 km/h (1 Bft) S 189 ° 0 min 0,000 mm 0,0 UV-I 0 W/m² 3,3 °C 12,3 °C 6,4 km/h (2 Bft)
05.11.2018 22:00 12,4 °C 54 % 1008,2 hPa 0,0 mm 0,8 km/h (0 Bft) W 263 ° 0 min 0,000 mm 0,0 UV-I 0 W/m² 3,4 °C 12,4 °C 3,2 km/h (1 Bft)
05.11.2018 22:01 12,3 °C 57 % 1008,2 hPa 0,0 mm 0,7 km/h (0 Bft) W 263 ° 0 min 0,051 mm 0,0 UV-I 0 W/m² 4,0 °C 12,3 °C 3,2 km/h (1 Bft)
05.11.2018 22:02 12,2 °C 58 % 1008,2 hPa 0,0 mm 0,1 km/h (0 Bft) W 263 ° 0 min 0,000 mm 0,0 UV-I 0 W/m² 4,2 °C 12,2 °C 1,6 km/h (1 Bft)
05.11.2018 22:03 12,2 °C 56 % 1008,1 hPa 0,0 mm 0,0 km/h (0 Bft) W 263 ° 0 min 0,000 mm 0,0 UV-I 0 W/m² 3,7 °C 12,2 °C 0,0 km/h (0 Bft)
05.11.2018 22:04 12,2 °C 55 % 1008,1 hPa 0,0 mm 0,8 km/h (0 Bft) W 263 ° 0 min 0,000 mm 0,0 UV-I 0 W/m² 3,4 °C 12,2 °C 3,2 km/h (1 Bft)
05.11.2018 22:05 12,2 °C 54 % 1008,2 hPa 0,0 mm 0,4 km/h (0 Bft) W 263 ° 0 min 0,000 mm 0,0 UV-I 0 W/m² 3,2 °C 12,2 °C 1,6 km/h (1 Bft)
05.11.2018 22:06 12,1 °C 56 % 1008,2 hPa 0,0 mm 1,3 km/h (1 Bft) W 263 ° 0 min 0,000 mm 0,0 UV-I 0 W/m² 3,6 °C 12,1 °C 3,2 km/h (1 Bft)
05.11.2018 22:07 12,2 °C 55 % 1008,2 hPa 0,0 mm 3,6 km/h (1 Bft) SW 225 ° 0 min 0,000 mm 0,0 UV-I 0 W/m² 3,4 °C 12,2 °C 6,4 km/h (2 Bft)
05.11.2018 22:08 12,2 °C 56 % 1008,2 hPa 0,0 mm 1,0 km/h (0 Bft) SW 225 ° 0 min 0,000 mm 0,0 UV-I 0 W/m² 3,7 °C 12,2 °C 3,2 km/h (1 Bft)
05.11.2018 22:09 12,3 °C 55 % 1008,2 hPa 0,0 mm 0,5 km/h (0 Bft) SW 225 ° 0 min 0,000 mm 0,0 UV-I 0 W/m² 3,5 °C 12,3 °C 3,2 km/h (1 Bft)
05.11.2018 22:10 12,3 °C 54 % 1008,1 hPa 0,0 mm 1,5 km/h (1 Bft) SW 221 ° 0 min 0,000 mm 0,0 UV-I 0 W/m² 3,3 °C 12,3 °C 6,4 km/h (2 Bft)
05.11.2018 22:11 12,3 °C 53 % 1008,1 hPa 0,0 mm 3,1 km/h (1 Bft) W-SW 246 ° 0 min 0,000 mm 0,0 UV-I 0 W/m² 3,0 °C 12,3 °C 4,8 km/h (1 Bft)
05.11.2018 22:12 12,4 °C 54 % 1008,1 hPa 0,0 mm 3,1 km/h (1 Bft) S-SW 195 ° 0 min 0,000 mm 0,0 UV-I 0 W/m² 3,4 °C 12,4 °C 4,8 km/h (1 Bft)
05.11.2018 22:13 12,3 °C 55 % 1008,1 hPa 0,0 mm 0,0 km/h (0 Bft) S-SW 195 ° 0 min 0,000 mm 0,0 UV-I 0 W/m² 3,5 °C 12,3 °C 0,0 km/h (0 Bft)
05.11.2018 22:14 12,1 °C 57 % 1008,1 hPa 0,0 mm 0,9 km/h (0 Bft) S 191 ° 0 min 0,000 mm 0,0 UV-I 0 W/m² 3,8 °C 12,1 °C 4,8 km/h (1 Bft)
05.11.2018 22:15 11,9 °C 58 % 1008,1 hPa 0,0 mm 3,0 km/h (1 Bft) S 191 ° 0 min 0,000 mm 0,0 UV-I 0 W/m² 3,9 °C 11,9 °C 4,8 km/h (1 Bft)
05.11.2018 22:16 11,9 °C 58 % 1008,1 hPa 0,0 mm 3,1 km/h (1 Bft) S 190 ° 0 min 0,000 mm 0,0 UV-I 0 W/m² 3,9 °C 11,9 °C 4,8 km/h (1 Bft)
05.11.2018 22:17 11,9 °C 56 % 1008,0 hPa 0,0 mm 0,5 km/h (0 Bft) S 190 ° 0 min 0,000 mm 0,0 UV-I 0 W/m² 3,4 °C 11,9 °C 1,6 km/h (1 Bft)
05.11.2018 22:18 12,0 °C 55 % 1008,1 hPa 0,0 mm 0,0 km/h (0 Bft) S 190 ° 0 min 0,000 mm 0,0 UV-I 0 W/m² 3,2 °C 12,0 °C 0,0 km/h (0 Bft)
05.11.2018 22:19 12,1 °C 56 % 1008,1 hPa 0,0 mm 0,0 km/h (0 Bft) S 190 ° 0 min 0,000 mm 0,0 UV-I 0 W/m² 3,6 °C 12,1 °C 0,0 km/h (0 Bft)
05.11.2018 22:20 12,0 °C 56 % 1008,1 hPa 0,0 mm 0,3 km/h (0 Bft) S 190 ° 0 min 0,000 mm 0,0 UV-I 0 W/m² 3,5 °C 12,0 °C 1,6 km/h (1 Bft)
05.11.2018 22:21 12,0 °C 56 % 1008,1 hPa 0,0 mm 0,3 km/h (0 Bft) S 190 ° 0 min 0,000 mm 0,0 UV-I 0 W/m² 3,5 °C 12,0 °C 1,6 km/h (1 Bft)
05.11.2018 22:22 12,0 °C 55 % 1008,2 hPa 0,0 mm 0,0 km/h (0 Bft) S 190 ° 0 min 0,000 mm 0,0 UV-I 0 W/m² 3,2 °C 12,0 °C 0,0 km/h (0 Bft)
05.11.2018 22:23 12,0 °C 55 % 1008,2 hPa 0,0 mm 0,0 km/h (0 Bft) S 190 ° 0 min 0,000 mm 0,0 UV-I 0 W/m² 3,2 °C 12,0 °C 0,0 km/h (0 Bft)
05.11.2018 22:24 12,1 °C 56 % 1008,2 hPa 0,0 mm 0,0 km/h (0 Bft) S 190 ° 0 min 0,000 mm 0,0 UV-I 0 W/m² 3,6 °C 12,1 °C 0,0 km/h (0 Bft)
05.11.2018 22:25 12,1 °C 55 % 1008,2 hPa 0,0 mm 0,0 km/h (0 Bft) S 190 ° 0 min 0,000 mm 0,0 UV-I 0 W/m² 3,3 °C 12,1 °C 0,0 km/h (0 Bft)
05.11.2018 22:26 12,2 °C 55 % 1008,2 hPa 0,0 mm 0,0 km/h (0 Bft) S 190 ° 0 min 0,000 mm 0,0 UV-I 0 W/m² 3,4 °C 12,2 °C 0,0 km/h (0 Bft)
05.11.2018 22:27 12,3 °C 54 % 1008,2 hPa 0,0 mm 0,0 km/h (0 Bft) S 190 ° 0 min 0,000 mm 0,0 UV-I 0 W/m² 3,3 °C 12,3 °C 0,0 km/h (0 Bft)
05.11.2018 22:28 12,3 °C 53 % 1008,2 hPa 0,0 mm 0,0 km/h (0 Bft) S 190 ° 0 min 0,000 mm 0,0 UV-I 0 W/m² 3,0 °C 12,3 °C 0,0 km/h (0 Bft)
05.11.2018 22:29 12,4 °C 54 % 1008,2 hPa 0,0 mm 0,3 km/h (0 Bft) S 190 ° 0 min 0,000 mm 0,0 UV-I 0 W/m² 3,4 °C 12,4 °C 1,6 km/h (1 Bft)
05.11.2018 22:30 12,5 °C 53 % 1008,2 hPa 0,0 mm 0,3 km/h (0 Bft) S 190 ° 0 min 0,000 mm 0,0 UV-I 0 W/m² 3,2 °C 12,5 °C 1,6 km/h (1 Bft)
05.11.2018 22:31 12,5 °C 52 % 1008,1 hPa 0,0 mm 0,4 km/h (0 Bft) S 190 ° 0 min 0,000 mm 0,0 UV-I 0 W/m² 2,9 °C 12,5 °C 1,6 km/h (1 Bft)
05.11.2018 22:32 12,6 °C 53 % 1008,2 hPa 0,0 mm 3,9 km/h (1 Bft) S-SW 200 ° 0 min 0,000 mm 0,0 UV-I 0 W/m² 3,3 °C 12,6 °C 6,4 km/h (2 Bft)
05.11.2018 22:33 12,6 °C 52 % 1008,2 hPa 0,0 mm 3,6 km/h (1 Bft) S-SW 197 ° 0 min 0,000 mm 0,0 UV-I 0 W/m² 3,0 °C 12,6 °C 4,8 km/h (1 Bft)
05.11.2018 22:34 12,6 °C 53 % 1008,2 hPa 0,0 mm 3,8 km/h (1 Bft) S-SW 194 ° 0 min 0,000 mm 0,0 UV-I 0 W/m² 3,3 °C 12,6 °C 4,8 km/h (1 Bft)
05.11.2018 22:35 12,7 °C 51 % 1008,2 hPa 0,0 mm 1,7 km/h (1 Bft) S-SW 194 ° 0 min 0,000 mm 0,0 UV-I 0 W/m² 2,8 °C 12,7 °C 4,8 km/h (1 Bft)
05.11.2018 22:36 12,6 °C 54 % 1008,2 hPa 0,0 mm 0,3 km/h (0 Bft) S-SW 194 ° 0 min 0,000 mm 0,0 UV-I 0 W/m² 3,5 °C 12,6 °C 1,6 km/h (1 Bft)
05.11.2018 22:37 12,7 °C 53 % 1008,2 hPa 0,0 mm 1,6 km/h (1 Bft) S-SW 194 ° 0 min 0,000 mm 0,0 UV-I 0 W/m² 3,4 °C 12,7 °C 4,8 km/h (1 Bft)
05.11.2018 22:38 12,6 °C 54 % 1008,1 hPa 0,0 mm 0,0 km/h (0 Bft) S-SW 194 ° 0 min 0,000 mm 0,0 UV-I 0 W/m² 3,5 °C 12,6 °C 0,0 km/h (0 Bft)
05.11.2018 22:39 12,6 °C 53 % 1008,1 hPa 0,0 mm 0,6 km/h (0 Bft) S-SW 194 ° 0 min 0,000 mm 0,0 UV-I 0 W/m² 3,3 °C 12,6 °C 1,6 km/h (1 Bft)
05.11.2018 22:40 12,4 °C 54 % 1008,1 hPa 0,0 mm 0,0 km/h (0 Bft) S-SW 194 ° 0 min 0,000 mm 0,0 UV-I 0 W/m² 3,4 °C 12,4 °C 0,0 km/h (0 Bft)
05.11.2018 22:41 12,3 °C 54 % 1008,1 hPa 0,0 mm 0,0 km/h (0 Bft) S-SW 194 ° 0 min 0,000 mm 0,0 UV-I 0 W/m² 3,3 °C 12,3 °C 0,0 km/h (0 Bft)
05.11.2018 22:42 12,2 °C 54 % 1008,1 hPa 0,0 mm 0,0 km/h (0 Bft) S-SW 194 ° 0 min 0,000 mm 0,0 UV-I 0 W/m² 3,2 °C 12,2 °C 0,0 km/h (0 Bft)
05.11.2018 22:43 12,2 °C 54 % 1008,2 hPa 0,0 mm 1,3 km/h (1 Bft) S-SW 194 ° 0 min 0,000 mm 0,0 UV-I 0 W/m² 3,2 °C 12,2 °C 3,2 km/h (1 Bft)
05.11.2018 22:44 12,3 °C 54 % 1008,1 hPa 0,0 mm 1,9 km/h (1 Bft) S-SW 194 ° 0 min 0,000 mm 0,0 UV-I 0 W/m² 3,3 °C 12,3 °C 3,2 km/h (1 Bft)
05.11.2018 22:45 12,4 °C 54 % 1008,1 hPa 0,0 mm 3,3 km/h (1 Bft) S-SW 194 ° 0 min 0,000 mm 0,0 UV-I 0 W/m² 3,4 °C 12,4 °C 4,8 km/h (1 Bft)
05.11.2018 22:46 12,6 °C 53 % 1008,1 hPa 0,0 mm 3,6 km/h (1 Bft) S-SW 193 ° 0 min 0,000 mm 0,0 UV-I 0 W/m² 3,3 °C 12,6 °C 4,8 km/h (1 Bft)
05.11.2018 22:47 12,6 °C 51 % 1008,1 hPa 0,0 mm 2,7 km/h (1 Bft) S-SW 193 ° 0 min 0,000 mm 0,0 UV-I 0 W/m² 2,7 °C 12,6 °C 3,2 km/h (1 Bft)
05.11.2018 22:48 12,7 °C 52 % 1008,1 hPa 0,0 mm 3,3 km/h (1 Bft) S-SW 193 ° 0 min 0,000 mm 0,0 UV-I 0 W/m² 3,1 °C 12,7 °C 4,8 km/h (1 Bft)
05.11.2018 22:49 12,7 °C 52 % 1008,1 hPa 0,0 mm 3,1 km/h (1 Bft) S 190 ° 0 min 0,000 mm 0,0 UV-I 0 W/m² 3,1 °C 12,7 °C 4,8 km/h (1 Bft)
05.11.2018 22:50 12,8 °C 50 % 1008,1 hPa 0,0 mm 1,5 km/h (1 Bft) S 190 ° 0 min 0,000 mm 0,0 UV-I 0 W/m² 2,6 °C 12,8 °C 3,2 km/h (1 Bft)
05.11.2018 22:51 12,9 °C 50 % 1008,0 hPa 0,0 mm 3,9 km/h (1 Bft) S 190 ° 0 min 0,000 mm 0,0 UV-I 0 W/m² 2,7 °C 12,9 °C 4,8 km/h (1 Bft)
05.11.2018 22:52 13,0 °C 50 % 1008,1 hPa 0,0 mm 5,4 km/h (1 Bft) S 190 ° 0 min 0,000 mm 0,0 UV-I 0 W/m² 2,8 °C 13,0 °C 8,0 km/h (2 Bft)
05.11.2018 22:53 12,9 °C 51 % 1008,1 hPa 0,0 mm 3,4 km/h (1 Bft) S 190 ° 0 min 0,000 mm 0,0 UV-I 0 W/m² 3,0 °C 12,9 °C 6,4 km/h (2 Bft)
05.11.2018 22:54 12,9 °C 52 % 1008,1 hPa 0,0 mm 5,0 km/h (1 Bft) S 190 ° 0 min 0,000 mm 0,0 UV-I 0 W/m² 3,3 °C 12,9 °C 6,4 km/h (2 Bft)
05.11.2018 22:55 12,8 °C 53 % 1008,1 hPa 0,0 mm 6,0 km/h (2 Bft) S 190 ° 0 min 0,000 mm 0,0 UV-I 0 W/m² 3,5 °C 12,8 °C 8,0 km/h (2 Bft)
05.11.2018 22:56 12,8 °C 50 % 1008,0 hPa 0,0 mm 6,5 km/h (2 Bft) S 190 ° 0 min 0,000 mm 0,0 UV-I 0 W/m² 2,6 °C 12,8 °C 8,0 km/h (2 Bft)
05.11.2018 22:57 12,8 °C 52 % 1008,0 hPa 0,0 mm 4,9 km/h (1 Bft) S 190 ° 0 min 0,000 mm 0,0 UV-I 0 W/m² 3,2 °C 12,8 °C 6,4 km/h (2 Bft)
05.11.2018 22:58 12,7 °C 52 % 1008,1 hPa 0,0 mm 4,8 km/h (1 Bft) S 189 ° 0 min 0,000 mm 0,0 UV-I 0 W/m² 3,1 °C 12,7 °C 6,4 km/h (2 Bft)
05.11.2018 22:59 12,7 °C 52 % 1008,0 hPa 0,0 mm 2,0 km/h (1 Bft) S 189 ° 0 min 0,000 mm 0,0 UV-I 0 W/m² 3,1 °C 12,7 °C 4,8 km/h (1 Bft)
05.11.2018 23:00 12,7 °C 51 % 1008,1 hPa 0,0 mm 2,7 km/h (1 Bft) S 189 ° 0 min 0,000 mm 0,0 UV-I 0 W/m² 2,8 °C 12,7 °C 3,2 km/h (1 Bft)
05.11.2018 23:01 12,6 °C 52 % 1008,2 hPa 0,0 mm 5,1 km/h (1 Bft) S 189 ° 0 min 0,050 mm 0,0 UV-I 0 W/m² 3,0 °C 12,6 °C 6,4 km/h (2 Bft)
05.11.2018 23:02 12,6 °C 52 % 1008,2 hPa 0,0 mm 7,2 km/h (2 Bft) S 190 ° 0 min 0,000 mm 0,0 UV-I 0 W/m² 3,0 °C 12,6 °C 9,7 km/h (2 Bft)
05.11.2018 23:03 12,6 °C 54 % 1008,2 hPa 0,0 mm 0,7 km/h (0 Bft) S 190 ° 0 min 0,000 mm 0,0 UV-I 0 W/m² 3,5 °C 12,6 °C 4,8 km/h (1 Bft)
05.11.2018 23:04 12,3 °C 56 % 1008,1 hPa 0,0 mm 0,8 km/h (0 Bft) S 190 ° 0 min 0,000 mm 0,0 UV-I 0 W/m² 3,8 °C 12,3 °C 6,4 km/h (2 Bft)
05.11.2018 23:05 12,1 °C 54 % 1008,1 hPa 0,0 mm 7,1 km/h (2 Bft) S-SW 194 ° 0 min 0,000 mm 0,0 UV-I 0 W/m² 3,1 °C 12,1 °C 9,7 km/h (2 Bft)
05.11.2018 23:06 11,9 °C 54 % 1008,0 hPa 0,0 mm 3,8 km/h (1 Bft) S-SW 194 ° 0 min 0,000 mm 0,0 UV-I 0 W/m² 2,9 °C 11,9 °C 4,8 km/h (1 Bft)
05.11.2018 23:07 12,0 °C 53 % 1008,1 hPa 0,0 mm 3,8 km/h (1 Bft) S 180 ° 0 min 0,000 mm 0,0 UV-I 0 W/m² 2,7 °C 12,0 °C 6,4 km/h (2 Bft)
05.11.2018 23:08 12,2 °C 53 % 1008,1 hPa 0,0 mm 5,2 km/h (1 Bft) S-SO 167 ° 0 min 0,000 mm 0,0 UV-I 0 W/m² 2,9 °C 12,2 °C 8,0 km/h (2 Bft)
05.11.2018 23:09 12,2 °C 53 % 1008,1 hPa 0,0 mm 5,1 km/h (1 Bft) S-SO 155 ° 0 min 0,000 mm 0,0 UV-I 0 W/m² 2,9 °C 12,2 °C 8,0 km/h (2 Bft)
05.11.2018 23:10 12,3 °C 53 % 1008,1 hPa 0,0 mm 2,7 km/h (1 Bft) S-SO 155 ° 0 min 0,000 mm 0,0 UV-I 0 W/m² 3,0 °C 12,3 °C 4,8 km/h (1 Bft)
05.11.2018 23:11 12,3 °C 53 % 1008,1 hPa 0,0 mm 3,6 km/h (1 Bft) S-SO 155 ° 0 min 0,000 mm 0,0 UV-I 0 W/m² 3,0 °C 12,3 °C 4,8 km/h (1 Bft)
05.11.2018 23:12 12,4 °C 52 % 1008,1 hPa 0,0 mm 2,2 km/h (1 Bft) S-SO 155 ° 0 min 0,000 mm 0,0 UV-I 0 W/m² 2,8 °C 12,4 °C 3,2 km/h (1 Bft)
05.11.2018 23:13 12,4 °C 51 % 1008,0 hPa 0,0 mm 2,2 km/h (1 Bft) S-SO 155 ° 0 min 0,000 mm 0,0 UV-I 0 W/m² 2,6 °C 12,4 °C 3,2 km/h (1 Bft)
05.11.2018 23:14 12,4 °C 53 % 1008,1 hPa 0,0 mm 3,8 km/h (1 Bft) S 186 ° 0 min 0,000 mm 0,0 UV-I 0 W/m² 3,1 °C 12,4 °C 6,4 km/h (2 Bft)
05.11.2018 23:15 12,3 °C 53 % 1008,1 hPa 0,0 mm 4,3 km/h (1 Bft) S 186 ° 0 min 0,000 mm 0,0 UV-I 0 W/m² 3,0 °C 12,3 °C 6,4 km/h (2 Bft)
05.11.2018 23:16 12,1 °C 55 % 1008,1 hPa 0,0 mm 2,0 km/h (1 Bft) S 186 ° 0 min 0,000 mm 0,0 UV-I 0 W/m² 3,3 °C 12,1 °C 4,8 km/h (1 Bft)
05.11.2018 23:17 11,9 °C 56 % 1008,1 hPa 0,0 mm 2,0 km/h (1 Bft) S 186 ° 0 min 0,000 mm 0,0 UV-I 0 W/m² 3,4 °C 11,9 °C 4,8 km/h (1 Bft)
05.11.2018 23:18 11,8 °C 55 % 1008,0 hPa 0,0 mm 0,0 km/h (0 Bft) S 186 ° 0 min 0,000 mm 0,0 UV-I 0 W/m² 3,1 °C 11,8 °C 0,0 km/h (0 Bft)
05.11.2018 23:19 11,7 °C 56 % 1008,0 hPa 0,0 mm 3,1 km/h (1 Bft) S 186 ° 0 min 0,000 mm 0,0 UV-I 0 W/m² 3,2 °C 11,7 °C 4,8 km/h (1 Bft)
05.11.2018 23:20 11,7 °C 55 % 1008,0 hPa 0,0 mm 1,8 km/h (1 Bft) S 186 ° 0 min 0,000 mm 0,0 UV-I 0 W/m² 3,0 °C 11,7 °C 3,2 km/h (1 Bft)
05.11.2018 23:21 11,8 °C 55 % 1008,0 hPa 0,0 mm 1,9 km/h (1 Bft) S 186 ° 0 min 0,000 mm 0,0 UV-I 0 W/m² 3,1 °C 11,8 °C 3,2 km/h (1 Bft)
05.11.2018 23:22 11,9 °C 54 % 1008,0 hPa 0,0 mm 2,2 km/h (1 Bft) S 186 ° 0 min 0,000 mm 0,0 UV-I 0 W/m² 2,9 °C 11,9 °C 3,2 km/h (1 Bft)
05.11.2018 23:23 11,9 °C 55 % 1008,0 hPa 0,0 mm 2,0 km/h (1 Bft) S 186 ° 0 min 0,000 mm 0,0 UV-I 0 W/m² 3,2 °C 11,9 °C 3,2 km/h (1 Bft)
05.11.2018 23:24 12,0 °C 55 % 1008,0 hPa 0,0 mm 3,2 km/h (1 Bft) S 186 ° 0 min 0,000 mm 0,0 UV-I 0 W/m² 3,2 °C 12,0 °C 4,8 km/h (1 Bft)
05.11.2018 23:25 12,1 °C 55 % 1008,0 hPa 0,0 mm 2,5 km/h (1 Bft) S 186 ° 0 min 0,000 mm 0,0 UV-I 0 W/m² 3,3 °C 12,1 °C 4,8 km/h (1 Bft)
05.11.2018 23:26 11,9 °C 55 % 1008,0 hPa 0,0 mm 0,9 km/h (0 Bft) S 186 ° 0 min 0,000 mm 0,0 UV-I 0 W/m² 3,2 °C 11,9 °C 3,2 km/h (1 Bft)
05.11.2018 23:27 11,7 °C 55 % 1008,0 hPa 0,0 mm 0,1 km/h (0 Bft) S 186 ° 0 min 0,000 mm 0,0 UV-I 0 W/m² 3,0 °C 11,7 °C 1,6 km/h (1 Bft)
05.11.2018 23:28 11,4 °C 56 % 1008,0 hPa 0,0 mm 0,0 km/h (0 Bft) S 186 ° 0 min 0,000 mm 0,0 UV-I 0 W/m² 2,9 °C 11,4 °C 0,0 km/h (0 Bft)
05.11.2018 23:29 11,1 °C 58 % 1008,0 hPa 0,0 mm 1,1 km/h (1 Bft) S 186 ° 0 min 0,000 mm 0,0 UV-I 0 W/m² 3,2 °C 11,1 °C 3,2 km/h (1 Bft)
05.11.2018 23:30 10,9 °C 58 % 1008,0 hPa 0,0 mm 2,7 km/h (1 Bft) S 186 ° 0 min 0,000 mm 0,0 UV-I 0 W/m² 3,0 °C 10,9 °C 3,2 km/h (1 Bft)
05.11.2018 23:31 10,9 °C 58 % 1007,9 hPa 0,0 mm 2,4 km/h (1 Bft) S 186 ° 0 min 0,000 mm 0,0 UV-I 0 W/m² 3,0 °C 10,9 °C 4,8 km/h (1 Bft)
05.11.2018 23:32 11,0 °C 58 % 1007,9 hPa 0,0 mm 1,5 km/h (1 Bft) S 186 ° 0 min 0,000 mm 0,0 UV-I 0 W/m² 3,1 °C 11,0 °C 4,8 km/h (1 Bft)
05.11.2018 23:33 11,0 °C 57 % 1007,9 hPa 0,0 mm 0,9 km/h (0 Bft) S 186 ° 0 min 0,000 mm 0,0 UV-I 0 W/m² 2,8 °C 11,0 °C 3,2 km/h (1 Bft)
05.11.2018 23:34 11,1 °C 56 % 1007,9 hPa 0,0 mm 0,2 km/h (0 Bft) S 186 ° 0 min 0,000 mm 0,0 UV-I 0 W/m² 2,7 °C 11,1 °C 1,6 km/h (1 Bft)
05.11.2018 23:35 11,2 °C 56 % 1007,9 hPa 0,0 mm 1,1 km/h (1 Bft) S 186 ° 0 min 0,000 mm 0,0 UV-I 0 W/m² 2,8 °C 11,2 °C 4,8 km/h (1 Bft)
05.11.2018 23:36 11,3 °C 56 % 1007,9 hPa 0,0 mm 1,2 km/h (1 Bft) S 186 ° 0 min 0,000 mm 0,0 UV-I 0 W/m² 2,8 °C 11,3 °C 4,8 km/h (1 Bft)
05.11.2018 23:37 11,3 °C 56 % 1008,0 hPa 0,0 mm 3,8 km/h (1 Bft) S 186 ° 0 min 0,000 mm 0,0 UV-I 0 W/m² 2,8 °C 11,3 °C 6,4 km/h (2 Bft)
05.11.2018 23:38 11,4 °C 55 % 1007,9 hPa 0,0 mm 4,3 km/h (1 Bft) S 186 ° 0 min 0,000 mm 0,0 UV-I 0 W/m² 2,7 °C 11,4 °C 6,4 km/h (2 Bft)
05.11.2018 23:39 11,6 °C 55 % 1007,9 hPa 0,0 mm 4,4 km/h (1 Bft) S 184 ° 0 min 0,000 mm 0,0 UV-I 0 W/m² 2,9 °C 11,6 °C 6,4 km/h (2 Bft)
05.11.2018 23:40 11,7 °C 54 % 1008,0 hPa 0,0 mm 5,7 km/h (1 Bft) S 185 ° 0 min 0,000 mm 0,0 UV-I 0 W/m² 2,7 °C 11,7 °C 6,4 km/h (2 Bft)
05.11.2018 23:41 11,7 °C 54 % 1007,9 hPa 0,0 mm 2,5 km/h (1 Bft) S 190 ° 0 min 0,000 mm 0,0 UV-I 0 W/m² 2,7 °C 11,7 °C 6,4 km/h (2 Bft)
05.11.2018 23:42 11,7 °C 54 % 1007,9 hPa 0,0 mm 3,4 km/h (1 Bft) S 190 ° 0 min 0,000 mm 0,0 UV-I 0 W/m² 2,7 °C 11,7 °C 4,8 km/h (1 Bft)
05.11.2018 23:43 11,8 °C 54 % 1007,9 hPa 0,0 mm 3,3 km/h (1 Bft) S 190 ° 0 min 0,000 mm 0,0 UV-I 0 W/m² 2,8 °C 11,8 °C 4,8 km/h (1 Bft)
05.11.2018 23:44 11,9 °C 54 % 1007,9 hPa 0,0 mm 1,3 km/h (1 Bft) S 190 ° 0 min 0,000 mm 0,0 UV-I 0 W/m² 2,9 °C 11,9 °C 6,4 km/h (2 Bft)
05.11.2018 23:45 12,0 °C 54 % 1007,8 hPa 0,0 mm 2,7 km/h (1 Bft) S 190 ° 0 min 0,000 mm 0,0 UV-I 0 W/m² 3,0 °C 12,0 °C 6,4 km/h (2 Bft)
05.11.2018 23:46 12,1 °C 53 % 1007,9 hPa 0,0 mm 3,4 km/h (1 Bft) S 190 ° 0 min 0,000 mm 0,0 UV-I 0 W/m² 2,8 °C 12,1 °C 4,8 km/h (1 Bft)
05.11.2018 23:47 12,2 °C 52 % 1007,9 hPa 0,0 mm 4,6 km/h (1 Bft) S 191 ° 0 min 0,000 mm 0,0 UV-I 0 W/m² 2,6 °C 12,2 °C 8,0 km/h (2 Bft)
05.11.2018 23:48 12,2 °C 53 % 1007,9 hPa 0,0 mm 5,8 km/h (2 Bft) S 187 ° 0 min 0,000 mm 0,0 UV-I 0 W/m² 2,9 °C 12,2 °C 9,7 km/h (2 Bft)
05.11.2018 23:49 12,2 °C 53 % 1007,8 hPa 0,0 mm 0,9 km/h (0 Bft) S 187 ° 0 min 0,000 mm 0,0 UV-I 0 W/m² 2,9 °C 12,2 °C 3,2 km/h (1 Bft)
05.11.2018 23:50 12,1 °C 53 % 1007,8 hPa 0,0 mm 2,3 km/h (1 Bft) S 187 ° 0 min 0,000 mm 0,0 UV-I 0 W/m² 2,8 °C 12,1 °C 3,2 km/h (1 Bft)
05.11.2018 23:51 12,1 °C 53 % 1007,8 hPa 0,0 mm 2,7 km/h (1 Bft) S 186 ° 0 min 0,000 mm 0,0 UV-I 0 W/m² 2,8 °C 12,1 °C 4,8 km/h (1 Bft)
05.11.2018 23:52 12,1 °C 53 % 1007,8 hPa 0,0 mm 2,3 km/h (1 Bft) S 186 ° 0 min 0,000 mm 0,0 UV-I 0 W/m² 2,8 °C 12,1 °C 4,8 km/h (1 Bft)
05.11.2018 23:53 12,1 °C 54 % 1007,7 hPa 0,0 mm 3,2 km/h (1 Bft) S 184 ° 0 min 0,000 mm 0,0 UV-I 0 W/m² 3,1 °C 12,1 °C 4,8 km/h (1 Bft)
05.11.2018 23:54 11,9 °C 54 % 1007,8 hPa 0,0 mm 3,3 km/h (1 Bft) S 191 ° 0 min 0,000 mm 0,0 UV-I 0 W/m² 2,9 °C 11,9 °C 4,8 km/h (1 Bft)
05.11.2018 23:55 11,9 °C 54 % 1007,9 hPa 0,0 mm 2,3 km/h (1 Bft) S 191 ° 0 min 0,000 mm 0,0 UV-I 0 W/m² 2,9 °C 11,9 °C 3,2 km/h (1 Bft)
05.11.2018 23:56 11,8 °C 54 % 1007,8 hPa 0,0 mm 0,1 km/h (0 Bft) S 191 ° 0 min 0,000 mm 0,0 UV-I 0 W/m² 2,8 °C 11,8 °C 1,6 km/h (1 Bft)
05.11.2018 23:57 11,6 °C 56 % 1007,7 hPa 0,0 mm 0,0 km/h (0 Bft) S 191 ° 0 min 0,000 mm 0,0 UV-I 0 W/m² 3,1 °C 11,6 °C 0,0 km/h (0 Bft)
05.11.2018 23:58 11,4 °C 56 % 1007,7 hPa 0,0 mm 0,0 km/h (0 Bft) S 191 ° 0 min 0,000 mm 0,0 UV-I 0 W/m² 2,9 °C 11,4 °C 0,0 km/h (0 Bft)
05.11.2018 23:59 11,3 °C 57 % 1007,7 hPa 0,0 mm 0,0 km/h (0 Bft) S 191 ° 0 min 0,000 mm 0,0 UV-I 0 W/m² 3,1 °C 11,3 °C 0,0 km/h (0 Bft)
_ Min-Zeit 01:00 13:04 14:36 - 23:59 - - - - - - 23:13 01:00 23:59
Minimum _ 6,8 °C 41 % 1006,5 hPa - 0,0 km/h (0 Bft) - - - - - - 2,6 °C 6,8 °C 0,0 km/h (0 Bft)
_ Max-Zeit 13:40 01:22 00:08 23:59 12:14 - - 23:59 14:00 13:36 13:25 10:59 13:40 12:13
Maximum _ 19,8 °C 90 % 1011,7 hPa 0,0 mm 8,9 km/h
O-NO (2 Bft)
- - 0 min 0,203 mm 2,1 UV-I 492 W/m² 10,8 °C 19,8 °C 20,9 km/h
O-NO (4 Bft)
Durchschnitt _ 12,7 °C 66 % 1008,6 hPa #0,0 mm 1,2 km/h (1 Bft) S - #0 min. #1,041 mm 1,2 UV-I 46 W/m² 6,2 °C 12,7 °C 2,5 km/h (1 Bft)